<?xml version="1.0" encoding="UTF-8" standalone="no" ?>
<gpx xmlns="http://www.topografix.com/GPX/1/1" xmlns:xsi="http://www.w3.org/2001/XMLSchema-instance" xsi:schemaLocation="http://www.topografix.com/GPX/1/1 http://www.topografix.com/GPX/1/1/gpx.xsd" version="1.1" creator="VisuGPX - https://www.visugpx.com">
  <metadata>
    <name>VTT - Tête d' Aval</name>
    <desc><![CDATA[VTT - Tête d'Aval / Relevé terrain :   1 600 m / - 1 950 m / 22 km

CR ASCVTT ici : <>]]></desc>
  </metadata>
  <trk>
    <name><![CDATA[2012-09-15T07:12:22Z]]></name>
    <trkseg>
      <trkpt lat="44.52467" lon="6.79643">
        <ele>1883.207</ele>
        <time>2012-09-15T07:12:27Z</time>
      </trkpt>
      <trkpt lat="44.52467" lon="6.79643">
        <ele>1882.61</ele>
        <time>2012-09-15T07:12:28Z</time>
      </trkpt>
      <trkpt lat="44.52468" lon="6.7966">
        <ele>1878.537</ele>
        <time>2012-09-15T07:12:35Z</time>
      </trkpt>
      <trkpt lat="44.52468" lon="6.79683">
        <ele>1875.935</ele>
        <time>2012-09-15T07:12:39Z</time>
      </trkpt>
      <trkpt lat="44.5247" lon="6.79703">
        <ele>1877.143</ele>
        <time>2012-09-15T07:12:43Z</time>
      </trkpt>
      <trkpt lat="44.52471" lon="6.79706">
        <ele>1877.273</ele>
        <time>2012-09-15T07:12:44Z</time>
      </trkpt>
      <trkpt lat="44.52478" lon="6.79722">
        <ele>1879.737</ele>
        <time>2012-09-15T07:12:51Z</time>
      </trkpt>
      <trkpt lat="44.52483" lon="6.79735">
        <ele>1881.447</ele>
        <time>2012-09-15T07:12:57Z</time>
      </trkpt>
      <trkpt lat="44.52489" lon="6.79752">
        <ele>1883.357</ele>
        <time>2012-09-15T07:13:05Z</time>
      </trkpt>
      <trkpt lat="44.52496" lon="6.7977">
        <ele>1884.687</ele>
        <time>2012-09-15T07:13:14Z</time>
      </trkpt>
      <trkpt lat="44.52501" lon="6.79786">
        <ele>1885.864</ele>
        <time>2012-09-15T07:13:21Z</time>
      </trkpt>
      <trkpt lat="44.52503" lon="6.79796">
        <ele>1886.825</ele>
        <time>2012-09-15T07:13:26Z</time>
      </trkpt>
      <trkpt lat="44.52506" lon="6.79813">
        <ele>1887.294</ele>
        <time>2012-09-15T07:13:33Z</time>
      </trkpt>
      <trkpt lat="44.52507" lon="6.79825">
        <ele>1887.805</ele>
        <time>2012-09-15T07:13:39Z</time>
      </trkpt>
      <trkpt lat="44.5251" lon="6.79839">
        <ele>1888.684</ele>
        <time>2012-09-15T07:13:46Z</time>
      </trkpt>
      <trkpt lat="44.52512" lon="6.79857">
        <ele>1889.927</ele>
        <time>2012-09-15T07:13:53Z</time>
      </trkpt>
      <trkpt lat="44.52513" lon="6.79869">
        <ele>1893.319</ele>
        <time>2012-09-15T07:13:59Z</time>
      </trkpt>
      <trkpt lat="44.52514" lon="6.7987">
        <ele>1893.588</ele>
        <time>2012-09-15T07:14:00Z</time>
      </trkpt>
      <trkpt lat="44.5252" lon="6.79887">
        <ele>1893.594</ele>
        <time>2012-09-15T07:14:08Z</time>
      </trkpt>
      <trkpt lat="44.52524" lon="6.79907">
        <ele>1895.195</ele>
        <time>2012-09-15T07:14:16Z</time>
      </trkpt>
      <trkpt lat="44.52529" lon="6.79925">
        <ele>1896.623</ele>
        <time>2012-09-15T07:14:22Z</time>
      </trkpt>
      <trkpt lat="44.52532" lon="6.79946">
        <ele>1898.522</ele>
        <time>2012-09-15T07:14:28Z</time>
      </trkpt>
      <trkpt lat="44.52537" lon="6.79971">
        <ele>1899.422</ele>
        <time>2012-09-15T07:14:35Z</time>
      </trkpt>
      <trkpt lat="44.52542" lon="6.79996">
        <ele>1900.976</ele>
        <time>2012-09-15T07:14:42Z</time>
      </trkpt>
      <trkpt lat="44.5255" lon="6.80029">
        <ele>1899.203</ele>
        <time>2012-09-15T07:14:50Z</time>
      </trkpt>
      <trkpt lat="44.52549" lon="6.8005">
        <ele>1898.444</ele>
        <time>2012-09-15T07:14:55Z</time>
      </trkpt>
      <trkpt lat="44.52547" lon="6.80085">
        <ele>1898.472</ele>
        <time>2012-09-15T07:15:03Z</time>
      </trkpt>
      <trkpt lat="44.52548" lon="6.80112">
        <ele>1899.102</ele>
        <time>2012-09-15T07:15:10Z</time>
      </trkpt>
      <trkpt lat="44.52549" lon="6.8013">
        <ele>1899.714</ele>
        <time>2012-09-15T07:15:16Z</time>
      </trkpt>
      <trkpt lat="44.52554" lon="6.80149">
        <ele>1898.771</ele>
        <time>2012-09-15T07:15:23Z</time>
      </trkpt>
      <trkpt lat="44.5256" lon="6.80169">
        <ele>1895.843</ele>
        <time>2012-09-15T07:15:30Z</time>
      </trkpt>
      <trkpt lat="44.52563" lon="6.8018">
        <ele>1902.186</ele>
        <time>2012-09-15T07:15:36Z</time>
      </trkpt>
      <trkpt lat="44.52566" lon="6.80193">
        <ele>1904.175</ele>
        <time>2012-09-15T07:15:41Z</time>
      </trkpt>
      <trkpt lat="44.52571" lon="6.80216">
        <ele>1905.531</ele>
        <time>2012-09-15T07:15:49Z</time>
      </trkpt>
      <trkpt lat="44.52578" lon="6.8024">
        <ele>1909.465</ele>
        <time>2012-09-15T07:15:58Z</time>
      </trkpt>
      <trkpt lat="44.52585" lon="6.80268">
        <ele>1909.668</ele>
        <time>2012-09-15T07:16:06Z</time>
      </trkpt>
      <trkpt lat="44.52592" lon="6.80299">
        <ele>1908.75</ele>
        <time>2012-09-15T07:16:15Z</time>
      </trkpt>
      <trkpt lat="44.52596" lon="6.80327">
        <ele>1905.703</ele>
        <time>2012-09-15T07:16:24Z</time>
      </trkpt>
      <trkpt lat="44.52598" lon="6.80349">
        <ele>1906.303</ele>
        <time>2012-09-15T07:16:32Z</time>
      </trkpt>
      <trkpt lat="44.52598" lon="6.80364">
        <ele>1906.401</ele>
        <time>2012-09-15T07:16:38Z</time>
      </trkpt>
      <trkpt lat="44.52599" lon="6.80387">
        <ele>1903.324</ele>
        <time>2012-09-15T07:16:44Z</time>
      </trkpt>
      <trkpt lat="44.52599" lon="6.80412">
        <ele>1904.478</ele>
        <time>2012-09-15T07:16:50Z</time>
      </trkpt>
      <trkpt lat="44.52602" lon="6.80437">
        <ele>1904.609</ele>
        <time>2012-09-15T07:16:57Z</time>
      </trkpt>
      <trkpt lat="44.52599" lon="6.80451">
        <ele>1905.403</ele>
        <time>2012-09-15T07:17:02Z</time>
      </trkpt>
      <trkpt lat="44.52595" lon="6.80468">
        <ele>1906.496</ele>
        <time>2012-09-15T07:17:10Z</time>
      </trkpt>
      <trkpt lat="44.52592" lon="6.80478">
        <ele>1907.117</ele>
        <time>2012-09-15T07:17:16Z</time>
      </trkpt>
      <trkpt lat="44.52588" lon="6.80494">
        <ele>1911.291</ele>
        <time>2012-09-15T07:17:25Z</time>
      </trkpt>
      <trkpt lat="44.52584" lon="6.80509">
        <ele>1914.761</ele>
        <time>2012-09-15T07:17:32Z</time>
      </trkpt>
      <trkpt lat="44.52578" lon="6.80521">
        <ele>1916.247</ele>
        <time>2012-09-15T07:17:39Z</time>
      </trkpt>
      <trkpt lat="44.52573" lon="6.80539">
        <ele>1916.346</ele>
        <time>2012-09-15T07:17:47Z</time>
      </trkpt>
      <trkpt lat="44.52569" lon="6.80556">
        <ele>1917.649</ele>
        <time>2012-09-15T07:17:55Z</time>
      </trkpt>
      <trkpt lat="44.52566" lon="6.80577">
        <ele>1917.144</ele>
        <time>2012-09-15T07:18:02Z</time>
      </trkpt>
      <trkpt lat="44.52565" lon="6.80598">
        <ele>1917.096</ele>
        <time>2012-09-15T07:18:09Z</time>
      </trkpt>
      <trkpt lat="44.52562" lon="6.80618">
        <ele>1918.387</ele>
        <time>2012-09-15T07:18:17Z</time>
      </trkpt>
      <trkpt lat="44.52559" lon="6.80645">
        <ele>1916.393</ele>
        <time>2012-09-15T07:18:24Z</time>
      </trkpt>
      <trkpt lat="44.52554" lon="6.80669">
        <ele>1915.773</ele>
        <time>2012-09-15T07:18:31Z</time>
      </trkpt>
      <trkpt lat="44.52549" lon="6.80689">
        <ele>1915.573</ele>
        <time>2012-09-15T07:18:37Z</time>
      </trkpt>
      <trkpt lat="44.52542" lon="6.80714">
        <ele>1916.325</ele>
        <time>2012-09-15T07:18:45Z</time>
      </trkpt>
      <trkpt lat="44.52533" lon="6.80734">
        <ele>1915.633</ele>
        <time>2012-09-15T07:18:51Z</time>
      </trkpt>
      <trkpt lat="44.52522" lon="6.80753">
        <ele>1916.355</ele>
        <time>2012-09-15T07:18:57Z</time>
      </trkpt>
      <trkpt lat="44.52511" lon="6.80767">
        <ele>1919.209</ele>
        <time>2012-09-15T07:19:04Z</time>
      </trkpt>
      <trkpt lat="44.525" lon="6.80775">
        <ele>1920.297</ele>
        <time>2012-09-15T07:19:11Z</time>
      </trkpt>
      <trkpt lat="44.52488" lon="6.80784">
        <ele>1923.121</ele>
        <time>2012-09-15T07:19:19Z</time>
      </trkpt>
      <trkpt lat="44.5248" lon="6.80795">
        <ele>1924.209</ele>
        <time>2012-09-15T07:19:27Z</time>
      </trkpt>
      <trkpt lat="44.52472" lon="6.80808">
        <ele>1925.799</ele>
        <time>2012-09-15T07:19:35Z</time>
      </trkpt>
      <trkpt lat="44.52463" lon="6.80823">
        <ele>1926.609</ele>
        <time>2012-09-15T07:19:45Z</time>
      </trkpt>
      <trkpt lat="44.5245" lon="6.80833">
        <ele>1929.787</ele>
        <time>2012-09-15T07:19:55Z</time>
      </trkpt>
      <trkpt lat="44.52442" lon="6.80836">
        <ele>1931.667</ele>
        <time>2012-09-15T07:20:01Z</time>
      </trkpt>
      <trkpt lat="44.52436" lon="6.80839">
        <ele>1930.085</ele>
        <time>2012-09-15T07:20:07Z</time>
      </trkpt>
      <trkpt lat="44.52425" lon="6.80845">
        <ele>1930.917</ele>
        <time>2012-09-15T07:20:17Z</time>
      </trkpt>
      <trkpt lat="44.52415" lon="6.8085">
        <ele>1932.388</ele>
        <time>2012-09-15T07:20:25Z</time>
      </trkpt>
      <trkpt lat="44.52409" lon="6.80853">
        <ele>1934.168</ele>
        <time>2012-09-15T07:20:29Z</time>
      </trkpt>
      <trkpt lat="44.52405" lon="6.80855">
        <ele>1934.688</ele>
        <time>2012-09-15T07:20:32Z</time>
      </trkpt>
      <trkpt lat="44.52397" lon="6.80865">
        <ele>1937.161</ele>
        <time>2012-09-15T07:20:39Z</time>
      </trkpt>
      <trkpt lat="44.52397" lon="6.80876">
        <ele>1937.249</ele>
        <time>2012-09-15T07:20:45Z</time>
      </trkpt>
      <trkpt lat="44.52402" lon="6.80883">
        <ele>1937.568</ele>
        <time>2012-09-15T07:20:50Z</time>
      </trkpt>
      <trkpt lat="44.52413" lon="6.80883">
        <ele>1940.48</ele>
        <time>2012-09-15T07:20:58Z</time>
      </trkpt>
      <trkpt lat="44.52423" lon="6.80882">
        <ele>1944.053</ele>
        <time>2012-09-15T07:21:06Z</time>
      </trkpt>
      <trkpt lat="44.52432" lon="6.80883">
        <ele>1946.572</ele>
        <time>2012-09-15T07:21:13Z</time>
      </trkpt>
      <trkpt lat="44.52442" lon="6.8089">
        <ele>1945.075</ele>
        <time>2012-09-15T07:21:19Z</time>
      </trkpt>
      <trkpt lat="44.52442" lon="6.80904">
        <ele>1945.428</ele>
        <time>2012-09-15T07:21:26Z</time>
      </trkpt>
      <trkpt lat="44.52433" lon="6.8092">
        <ele>1945.457</ele>
        <time>2012-09-15T07:21:36Z</time>
      </trkpt>
      <trkpt lat="44.52426" lon="6.80933">
        <ele>1944.546</ele>
        <time>2012-09-15T07:21:44Z</time>
      </trkpt>
      <trkpt lat="44.52419" lon="6.80945">
        <ele>1943.995</ele>
        <time>2012-09-15T07:21:51Z</time>
      </trkpt>
      <trkpt lat="44.52411" lon="6.80954">
        <ele>1944.197</ele>
        <time>2012-09-15T07:21:58Z</time>
      </trkpt>
      <trkpt lat="44.5241" lon="6.80956">
        <ele>1944.487</ele>
        <time>2012-09-15T07:21:59Z</time>
      </trkpt>
      <trkpt lat="44.52406" lon="6.80965">
        <ele>1945.537</ele>
        <time>2012-09-15T07:22:04Z</time>
      </trkpt>
      <trkpt lat="44.52398" lon="6.80962">
        <ele>1946.04</ele>
        <time>2012-09-15T07:22:10Z</time>
      </trkpt>
      <trkpt lat="44.52397" lon="6.80961">
        <ele>1946.331</ele>
        <time>2012-09-15T07:22:11Z</time>
      </trkpt>
      <trkpt lat="44.52391" lon="6.80959">
        <ele>1947.38</ele>
        <time>2012-09-15T07:22:16Z</time>
      </trkpt>
      <trkpt lat="44.5238" lon="6.80965">
        <ele>1948.319</ele>
        <time>2012-09-15T07:22:25Z</time>
      </trkpt>
      <trkpt lat="44.52376" lon="6.80966">
        <ele>1949.16</ele>
        <time>2012-09-15T07:22:28Z</time>
      </trkpt>
      <trkpt lat="44.5237" lon="6.8097">
        <ele>1950.86</ele>
        <time>2012-09-15T07:22:34Z</time>
      </trkpt>
      <trkpt lat="44.52367" lon="6.80974">
        <ele>1951.79</ele>
        <time>2012-09-15T07:22:37Z</time>
      </trkpt>
      <trkpt lat="44.52361" lon="6.80985">
        <ele>1956.063</ele>
        <time>2012-09-15T07:22:45Z</time>
      </trkpt>
      <trkpt lat="44.52355" lon="6.80995">
        <ele>1959.925</ele>
        <time>2012-09-15T07:22:53Z</time>
      </trkpt>
      <trkpt lat="44.5235" lon="6.81">
        <ele>1962.515</ele>
        <time>2012-09-15T07:22:58Z</time>
      </trkpt>
      <trkpt lat="44.52342" lon="6.81012">
        <ele>1966.993</ele>
        <time>2012-09-15T07:23:07Z</time>
      </trkpt>
      <trkpt lat="44.5234" lon="6.81016">
        <ele>1968.173</ele>
        <time>2012-09-15T07:23:10Z</time>
      </trkpt>
      <trkpt lat="44.5234" lon="6.81022">
        <ele>1970.391</ele>
        <time>2012-09-15T07:23:16Z</time>
      </trkpt>
      <trkpt lat="44.52344" lon="6.81023">
        <ele>1967.546</ele>
        <time>2012-09-15T07:23:25Z</time>
      </trkpt>
      <trkpt lat="44.5234" lon="6.81034">
        <ele>1967.345</ele>
        <time>2012-09-15T07:23:34Z</time>
      </trkpt>
      <trkpt lat="44.5234" lon="6.81035">
        <ele>1967.426</ele>
        <time>2012-09-15T07:23:35Z</time>
      </trkpt>
      <trkpt lat="44.52334" lon="6.81048">
        <ele>1969.169</ele>
        <time>2012-09-15T07:23:45Z</time>
      </trkpt>
      <trkpt lat="44.52329" lon="6.81054">
        <ele>1971.75</ele>
        <time>2012-09-15T07:23:54Z</time>
      </trkpt>
      <trkpt lat="44.52328" lon="6.81058">
        <ele>1972.158</ele>
        <time>2012-09-15T07:23:58Z</time>
      </trkpt>
      <trkpt lat="44.52326" lon="6.81059">
        <ele>1973.981</ele>
        <time>2012-09-15T07:24:00Z</time>
      </trkpt>
      <trkpt lat="44.52323" lon="6.81063">
        <ele>1974.098</ele>
        <time>2012-09-15T07:24:06Z</time>
      </trkpt>
      <trkpt lat="44.52322" lon="6.81065">
        <ele>1974.457</ele>
        <time>2012-09-15T07:24:08Z</time>
      </trkpt>
      <trkpt lat="44.52318" lon="6.81069">
        <ele>1978.29</ele>
        <time>2012-09-15T07:24:14Z</time>
      </trkpt>
      <trkpt lat="44.52313" lon="6.81078">
        <ele>1978.529</ele>
        <time>2012-09-15T07:24:22Z</time>
      </trkpt>
      <trkpt lat="44.52313" lon="6.81081">
        <ele>1978.899</ele>
        <time>2012-09-15T07:24:24Z</time>
      </trkpt>
      <trkpt lat="44.52312" lon="6.81091">
        <ele>1978.458</ele>
        <time>2012-09-15T07:24:31Z</time>
      </trkpt>
      <trkpt lat="44.52305" lon="6.81098">
        <ele>1981.67</ele>
        <time>2012-09-15T07:24:41Z</time>
      </trkpt>
      <trkpt lat="44.52302" lon="6.81106">
        <ele>1982.967</ele>
        <time>2012-09-15T07:24:47Z</time>
      </trkpt>
      <trkpt lat="44.52302" lon="6.81118">
        <ele>1984.978</ele>
        <time>2012-09-15T07:24:55Z</time>
      </trkpt>
      <trkpt lat="44.52299" lon="6.81122">
        <ele>1986.78</ele>
        <time>2012-09-15T07:25:00Z</time>
      </trkpt>
      <trkpt lat="44.52293" lon="6.81124">
        <ele>1990.273</ele>
        <time>2012-09-15T07:25:06Z</time>
      </trkpt>
      <trkpt lat="44.52291" lon="6.81125">
        <ele>1990.912</ele>
        <time>2012-09-15T07:25:08Z</time>
      </trkpt>
      <trkpt lat="44.52286" lon="6.81133">
        <ele>1992.188</ele>
        <time>2012-09-15T07:25:14Z</time>
      </trkpt>
      <trkpt lat="44.52285" lon="6.81135">
        <ele>1992.678</ele>
        <time>2012-09-15T07:25:16Z</time>
      </trkpt>
      <trkpt lat="44.52284" lon="6.81139">
        <ele>1990.064</ele>
        <time>2012-09-15T07:25:22Z</time>
      </trkpt>
      <trkpt lat="44.52285" lon="6.81141">
        <ele>1988.943</ele>
        <time>2012-09-15T07:25:24Z</time>
      </trkpt>
      <trkpt lat="44.52284" lon="6.81154">
        <ele>1986.426</ele>
        <time>2012-09-15T07:25:31Z</time>
      </trkpt>
      <trkpt lat="44.52276" lon="6.81166">
        <ele>1985.797</ele>
        <time>2012-09-15T07:25:38Z</time>
      </trkpt>
      <trkpt lat="44.52272" lon="6.81172">
        <ele>1986.629</ele>
        <time>2012-09-15T07:25:43Z</time>
      </trkpt>
      <trkpt lat="44.5227" lon="6.81175">
        <ele>1987.62</ele>
        <time>2012-09-15T07:25:47Z</time>
      </trkpt>
      <trkpt lat="44.52263" lon="6.81183">
        <ele>1990.122</ele>
        <time>2012-09-15T07:25:53Z</time>
      </trkpt>
      <trkpt lat="44.5226" lon="6.81185">
        <ele>1990.831</ele>
        <time>2012-09-15T07:25:55Z</time>
      </trkpt>
      <trkpt lat="44.52258" lon="6.81191">
        <ele>1994.152</ele>
        <time>2012-09-15T07:26:00Z</time>
      </trkpt>
      <trkpt lat="44.52254" lon="6.81201">
        <ele>1995.98</ele>
        <time>2012-09-15T07:26:08Z</time>
      </trkpt>
      <trkpt lat="44.52249" lon="6.81205">
        <ele>1996.979</ele>
        <time>2012-09-15T07:26:13Z</time>
      </trkpt>
      <trkpt lat="44.5225" lon="6.81206">
        <ele>1999.071</ele>
        <time>2012-09-15T07:26:18Z</time>
      </trkpt>
      <trkpt lat="44.52247" lon="6.81209">
        <ele>2000.392</ele>
        <time>2012-09-15T07:26:24Z</time>
      </trkpt>
      <trkpt lat="44.52245" lon="6.81209">
        <ele>2002.643</ele>
        <time>2012-09-15T07:26:29Z</time>
      </trkpt>
      <trkpt lat="44.5224" lon="6.81215">
        <ele>2001.486</ele>
        <time>2012-09-15T07:26:35Z</time>
      </trkpt>
      <trkpt lat="44.52237" lon="6.81218">
        <ele>2001.085</ele>
        <time>2012-09-15T07:26:40Z</time>
      </trkpt>
      <trkpt lat="44.52225" lon="6.81227">
        <ele>2011.057</ele>
        <time>2012-09-15T07:26:57Z</time>
      </trkpt>
      <trkpt lat="44.52222" lon="6.81232">
        <ele>2013.853</ele>
        <time>2012-09-15T07:27:05Z</time>
      </trkpt>
      <trkpt lat="44.52216" lon="6.81239">
        <ele>2016.681</ele>
        <time>2012-09-15T07:27:17Z</time>
      </trkpt>
      <trkpt lat="44.52211" lon="6.81248">
        <ele>2014.467</ele>
        <time>2012-09-15T07:27:24Z</time>
      </trkpt>
      <trkpt lat="44.52203" lon="6.81259">
        <ele>2012.053</ele>
        <time>2012-09-15T07:27:42Z</time>
      </trkpt>
      <trkpt lat="44.52192" lon="6.81274">
        <ele>2010.764</ele>
        <time>2012-09-15T07:27:49Z</time>
      </trkpt>
      <trkpt lat="44.52183" lon="6.81287">
        <ele>2009.464</ele>
        <time>2012-09-15T07:27:56Z</time>
      </trkpt>
      <trkpt lat="44.52176" lon="6.81299">
        <ele>2010.727</ele>
        <time>2012-09-15T07:28:03Z</time>
      </trkpt>
      <trkpt lat="44.5217" lon="6.81309">
        <ele>2013.149</ele>
        <time>2012-09-15T07:28:11Z</time>
      </trkpt>
      <trkpt lat="44.52167" lon="6.81317">
        <ele>2014.378</ele>
        <time>2012-09-15T07:28:17Z</time>
      </trkpt>
      <trkpt lat="44.52162" lon="6.81322">
        <ele>2017.922</ele>
        <time>2012-09-15T07:28:24Z</time>
      </trkpt>
      <trkpt lat="44.52157" lon="6.81331">
        <ele>2017.789</ele>
        <time>2012-09-15T07:28:31Z</time>
      </trkpt>
      <trkpt lat="44.52154" lon="6.81335">
        <ele>2018.412</ele>
        <time>2012-09-15T07:28:36Z</time>
      </trkpt>
      <trkpt lat="44.52146" lon="6.81343">
        <ele>2014.843</ele>
        <time>2012-09-15T07:28:42Z</time>
      </trkpt>
      <trkpt lat="44.52145" lon="6.81345">
        <ele>2014.652</ele>
        <time>2012-09-15T07:28:43Z</time>
      </trkpt>
      <trkpt lat="44.52133" lon="6.81354">
        <ele>2012.803</ele>
        <time>2012-09-15T07:28:52Z</time>
      </trkpt>
      <trkpt lat="44.52123" lon="6.8136">
        <ele>2013.976</ele>
        <time>2012-09-15T07:28:59Z</time>
      </trkpt>
      <trkpt lat="44.52117" lon="6.81364">
        <ele>2017.249</ele>
        <time>2012-09-15T07:29:05Z</time>
      </trkpt>
      <trkpt lat="44.52114" lon="6.81365">
        <ele>2017.949</ele>
        <time>2012-09-15T07:29:07Z</time>
      </trkpt>
      <trkpt lat="44.52103" lon="6.81371">
        <ele>2021.071</ele>
        <time>2012-09-15T07:29:15Z</time>
      </trkpt>
      <trkpt lat="44.52096" lon="6.81375">
        <ele>2022.814</ele>
        <time>2012-09-15T07:29:20Z</time>
      </trkpt>
      <trkpt lat="44.52083" lon="6.81383">
        <ele>2022.829</ele>
        <time>2012-09-15T07:29:28Z</time>
      </trkpt>
      <trkpt lat="44.52078" lon="6.81384">
        <ele>2024.521</ele>
        <time>2012-09-15T07:29:30Z</time>
      </trkpt>
      <trkpt lat="44.52072" lon="6.81392">
        <ele>2028.572</ele>
        <time>2012-09-15T07:29:38Z</time>
      </trkpt>
      <trkpt lat="44.5207" lon="6.81398">
        <ele>2028.679</ele>
        <time>2012-09-15T07:29:42Z</time>
      </trkpt>
      <trkpt lat="44.52061" lon="6.81408">
        <ele>2029.127</ele>
        <time>2012-09-15T07:29:49Z</time>
      </trkpt>
      <trkpt lat="44.52054" lon="6.81414">
        <ele>2029.508</ele>
        <time>2012-09-15T07:29:54Z</time>
      </trkpt>
      <trkpt lat="44.52052" lon="6.81416">
        <ele>2029.417</ele>
        <time>2012-09-15T07:29:55Z</time>
      </trkpt>
      <trkpt lat="44.52044" lon="6.81429">
        <ele>2029.427</ele>
        <time>2012-09-15T07:30:03Z</time>
      </trkpt>
      <trkpt lat="44.52037" lon="6.81442">
        <ele>2031.177</ele>
        <time>2012-09-15T07:30:09Z</time>
      </trkpt>
      <trkpt lat="44.52036" lon="6.81459">
        <ele>2034.717</ele>
        <time>2012-09-15T07:30:17Z</time>
      </trkpt>
      <trkpt lat="44.52035" lon="6.81465">
        <ele>2035.316</ele>
        <time>2012-09-15T07:30:20Z</time>
      </trkpt>
      <trkpt lat="44.5204" lon="6.81479">
        <ele>2037.897</ele>
        <time>2012-09-15T07:30:26Z</time>
      </trkpt>
      <trkpt lat="44.52036" lon="6.81496">
        <ele>2036.251</ele>
        <time>2012-09-15T07:30:33Z</time>
      </trkpt>
      <trkpt lat="44.52031" lon="6.81512">
        <ele>2034.609</ele>
        <time>2012-09-15T07:30:39Z</time>
      </trkpt>
      <trkpt lat="44.5203" lon="6.81523">
        <ele>2036.212</ele>
        <time>2012-09-15T07:30:45Z</time>
      </trkpt>
      <trkpt lat="44.52025" lon="6.81537">
        <ele>2036.901</ele>
        <time>2012-09-15T07:30:51Z</time>
      </trkpt>
      <trkpt lat="44.52025" lon="6.81545">
        <ele>2034.728</ele>
        <time>2012-09-15T07:30:54Z</time>
      </trkpt>
      <trkpt lat="44.52023" lon="6.81556">
        <ele>2036.614</ele>
        <time>2012-09-15T07:31:00Z</time>
      </trkpt>
      <trkpt lat="44.52021" lon="6.8156">
        <ele>2036.614</ele>
        <time>2012-09-15T07:31:02Z</time>
      </trkpt>
      <trkpt lat="44.52013" lon="6.81571">
        <ele>2039.972</ele>
        <time>2012-09-15T07:31:09Z</time>
      </trkpt>
      <trkpt lat="44.52006" lon="6.81577">
        <ele>2042.63</ele>
        <time>2012-09-15T07:31:17Z</time>
      </trkpt>
      <trkpt lat="44.51999" lon="6.81578">
        <ele>2041.648</ele>
        <time>2012-09-15T07:31:27Z</time>
      </trkpt>
      <trkpt lat="44.51992" lon="6.81574">
        <ele>2043.872</ele>
        <time>2012-09-15T07:31:33Z</time>
      </trkpt>
      <trkpt lat="44.51991" lon="6.81574">
        <ele>2044.353</ele>
        <time>2012-09-15T07:31:34Z</time>
      </trkpt>
      <trkpt lat="44.51984" lon="6.81581">
        <ele>2045.88</ele>
        <time>2012-09-15T07:31:40Z</time>
      </trkpt>
      <trkpt lat="44.51983" lon="6.81581">
        <ele>2045.616</ele>
        <time>2012-09-15T07:31:45Z</time>
      </trkpt>
      <trkpt lat="44.51983" lon="6.81584">
        <ele>2049.181</ele>
        <time>2012-09-15T07:31:50Z</time>
      </trkpt>
      <trkpt lat="44.51983" lon="6.81587">
        <ele>2050.773</ele>
        <time>2012-09-15T07:31:55Z</time>
      </trkpt>
      <trkpt lat="44.51981" lon="6.81595">
        <ele>2055.454</ele>
        <time>2012-09-15T07:32:02Z</time>
      </trkpt>
      <trkpt lat="44.51981" lon="6.81596">
        <ele>2055.583</ele>
        <time>2012-09-15T07:32:03Z</time>
      </trkpt>
      <trkpt lat="44.5198" lon="6.81598">
        <ele>2056.583</ele>
        <time>2012-09-15T07:32:06Z</time>
      </trkpt>
      <trkpt lat="44.51977" lon="6.81602">
        <ele>2057.51</ele>
        <time>2012-09-15T07:32:11Z</time>
      </trkpt>
      <trkpt lat="44.51976" lon="6.81603">
        <ele>2057.508</ele>
        <time>2012-09-15T07:32:14Z</time>
      </trkpt>
      <trkpt lat="44.51973" lon="6.81597">
        <ele>2057.076</ele>
        <time>2012-09-15T07:32:22Z</time>
      </trkpt>
      <trkpt lat="44.51972" lon="6.81596">
        <ele>2056.806</ele>
        <time>2012-09-15T07:32:23Z</time>
      </trkpt>
      <trkpt lat="44.51967" lon="6.81594">
        <ele>2056.446</ele>
        <time>2012-09-15T07:32:31Z</time>
      </trkpt>
      <trkpt lat="44.51963" lon="6.81595">
        <ele>2053.232</ele>
        <time>2012-09-15T07:32:37Z</time>
      </trkpt>
      <trkpt lat="44.51958" lon="6.81592">
        <ele>2054.288</ele>
        <time>2012-09-15T07:32:42Z</time>
      </trkpt>
      <trkpt lat="44.51954" lon="6.81596">
        <ele>2055.267</ele>
        <time>2012-09-15T07:32:47Z</time>
      </trkpt>
      <trkpt lat="44.51954" lon="6.81599">
        <ele>2055.897</ele>
        <time>2012-09-15T07:32:49Z</time>
      </trkpt>
      <trkpt lat="44.51954" lon="6.81602">
        <ele>2057.309</ele>
        <time>2012-09-15T07:32:51Z</time>
      </trkpt>
      <trkpt lat="44.51953" lon="6.81607">
        <ele>2061.311</ele>
        <time>2012-09-15T07:32:56Z</time>
      </trkpt>
      <trkpt lat="44.5195" lon="6.81613">
        <ele>2063.81</ele>
        <time>2012-09-15T07:33:00Z</time>
      </trkpt>
      <trkpt lat="44.51948" lon="6.81617">
        <ele>2063.447</ele>
        <time>2012-09-15T07:33:03Z</time>
      </trkpt>
      <trkpt lat="44.5195" lon="6.81621">
        <ele>2060.191</ele>
        <time>2012-09-15T07:33:08Z</time>
      </trkpt>
      <trkpt lat="44.51943" lon="6.8162">
        <ele>2062.138</ele>
        <time>2012-09-15T07:33:16Z</time>
      </trkpt>
      <trkpt lat="44.51935" lon="6.81623">
        <ele>2061.238</ele>
        <time>2012-09-15T07:33:22Z</time>
      </trkpt>
      <trkpt lat="44.51934" lon="6.81625">
        <ele>2061.529</ele>
        <time>2012-09-15T07:33:24Z</time>
      </trkpt>
      <trkpt lat="44.51938" lon="6.81638">
        <ele>2062.805</ele>
        <time>2012-09-15T07:33:32Z</time>
      </trkpt>
      <trkpt lat="44.51935" lon="6.8164">
        <ele>2064.439</ele>
        <time>2012-09-15T07:33:35Z</time>
      </trkpt>
      <trkpt lat="44.5193" lon="6.81638">
        <ele>2065.809</ele>
        <time>2012-09-15T07:33:40Z</time>
      </trkpt>
      <trkpt lat="44.5192" lon="6.81635">
        <ele>2068.942</ele>
        <time>2012-09-15T07:33:50Z</time>
      </trkpt>
      <trkpt lat="44.51916" lon="6.81635">
        <ele>2069.799</ele>
        <time>2012-09-15T07:33:55Z</time>
      </trkpt>
      <trkpt lat="44.51908" lon="6.81635">
        <ele>2067.997</ele>
        <time>2012-09-15T07:34:04Z</time>
      </trkpt>
      <trkpt lat="44.51901" lon="6.81646">
        <ele>2066.617</ele>
        <time>2012-09-15T07:34:12Z</time>
      </trkpt>
      <trkpt lat="44.51896" lon="6.81649">
        <ele>2069.407</ele>
        <time>2012-09-15T07:34:20Z</time>
      </trkpt>
      <trkpt lat="44.51896" lon="6.81649">
        <ele>2069.547</ele>
        <time>2012-09-15T07:34:21Z</time>
      </trkpt>
      <trkpt lat="44.51891" lon="6.81653">
        <ele>2072.62</ele>
        <time>2012-09-15T07:34:27Z</time>
      </trkpt>
      <trkpt lat="44.51889" lon="6.81655">
        <ele>2072.858</ele>
        <time>2012-09-15T07:34:29Z</time>
      </trkpt>
      <trkpt lat="44.51898" lon="6.81669">
        <ele>2073.496</ele>
        <time>2012-09-15T07:34:37Z</time>
      </trkpt>
      <trkpt lat="44.519" lon="6.81672">
        <ele>2072.724</ele>
        <time>2012-09-15T07:34:39Z</time>
      </trkpt>
      <trkpt lat="44.51902" lon="6.81677">
        <ele>2071.355</ele>
        <time>2012-09-15T07:34:46Z</time>
      </trkpt>
      <trkpt lat="44.51901" lon="6.81681">
        <ele>2072.835</ele>
        <time>2012-09-15T07:34:50Z</time>
      </trkpt>
      <trkpt lat="44.51903" lon="6.81684">
        <ele>2079.474</ele>
        <time>2012-09-15T07:34:56Z</time>
      </trkpt>
      <trkpt lat="44.51903" lon="6.81685">
        <ele>2080.425</ele>
        <time>2012-09-15T07:34:57Z</time>
      </trkpt>
      <trkpt lat="44.51897" lon="6.81697">
        <ele>2085.695</ele>
        <time>2012-09-15T07:35:05Z</time>
      </trkpt>
      <trkpt lat="44.51894" lon="6.81708">
        <ele>2085.177</ele>
        <time>2012-09-15T07:35:13Z</time>
      </trkpt>
      <trkpt lat="44.51894" lon="6.81713">
        <ele>2083.427</ele>
        <time>2012-09-15T07:35:21Z</time>
      </trkpt>
      <trkpt lat="44.51894" lon="6.81713">
        <ele>2084.028</ele>
        <time>2012-09-15T07:35:22Z</time>
      </trkpt>
      <trkpt lat="44.51892" lon="6.81708">
        <ele>2084.69</ele>
        <time>2012-09-15T07:35:29Z</time>
      </trkpt>
      <trkpt lat="44.5189" lon="6.81706">
        <ele>2085.392</ele>
        <time>2012-09-15T07:35:31Z</time>
      </trkpt>
      <trkpt lat="44.51883" lon="6.81709">
        <ele>2087.271</ele>
        <time>2012-09-15T07:35:38Z</time>
      </trkpt>
      <trkpt lat="44.51879" lon="6.81717">
        <ele>2086.738</ele>
        <time>2012-09-15T07:35:43Z</time>
      </trkpt>
      <trkpt lat="44.51876" lon="6.81731">
        <ele>2086.968</ele>
        <time>2012-09-15T07:35:51Z</time>
      </trkpt>
      <trkpt lat="44.51874" lon="6.81741">
        <ele>2092.412</ele>
        <time>2012-09-15T07:36:00Z</time>
      </trkpt>
      <trkpt lat="44.51875" lon="6.81747">
        <ele>2093.481</ele>
        <time>2012-09-15T07:36:04Z</time>
      </trkpt>
      <trkpt lat="44.51873" lon="6.81751">
        <ele>2096.753</ele>
        <time>2012-09-15T07:36:09Z</time>
      </trkpt>
      <trkpt lat="44.51871" lon="6.8175">
        <ele>2097.974</ele>
        <time>2012-09-15T07:36:12Z</time>
      </trkpt>
      <trkpt lat="44.51863" lon="6.81741">
        <ele>2104.927</ele>
        <time>2012-09-15T07:36:20Z</time>
      </trkpt>
      <trkpt lat="44.51862" lon="6.81745">
        <ele>2101.797</ele>
        <time>2012-09-15T07:36:25Z</time>
      </trkpt>
      <trkpt lat="44.51858" lon="6.81748">
        <ele>2099.135</ele>
        <time>2012-09-15T07:36:30Z</time>
      </trkpt>
      <trkpt lat="44.51853" lon="6.81748">
        <ele>2098.297</ele>
        <time>2012-09-15T07:36:33Z</time>
      </trkpt>
      <trkpt lat="44.51844" lon="6.81756">
        <ele>2096.665</ele>
        <time>2012-09-15T07:36:40Z</time>
      </trkpt>
      <trkpt lat="44.51831" lon="6.81765">
        <ele>2098.481</ele>
        <time>2012-09-15T07:36:47Z</time>
      </trkpt>
      <trkpt lat="44.51825" lon="6.81768">
        <ele>2099.853</ele>
        <time>2012-09-15T07:36:50Z</time>
      </trkpt>
      <trkpt lat="44.51821" lon="6.81775">
        <ele>2101.191</ele>
        <time>2012-09-15T07:36:56Z</time>
      </trkpt>
      <trkpt lat="44.51829" lon="6.81785">
        <ele>2101.099</ele>
        <time>2012-09-15T07:37:01Z</time>
      </trkpt>
      <trkpt lat="44.51835" lon="6.8179">
        <ele>2104.292</ele>
        <time>2012-09-15T07:37:06Z</time>
      </trkpt>
      <trkpt lat="44.51833" lon="6.81796">
        <ele>2107.031</ele>
        <time>2012-09-15T07:37:12Z</time>
      </trkpt>
      <trkpt lat="44.51832" lon="6.81799">
        <ele>2109.914</ele>
        <time>2012-09-15T07:37:17Z</time>
      </trkpt>
      <trkpt lat="44.51817" lon="6.8182">
        <ele>2117.731</ele>
        <time>2012-09-15T07:38:01Z</time>
      </trkpt>
      <trkpt lat="44.51809" lon="6.81829">
        <ele>2114.354</ele>
        <time>2012-09-15T07:38:06Z</time>
      </trkpt>
      <trkpt lat="44.51807" lon="6.81835">
        <ele>2113.094</ele>
        <time>2012-09-15T07:38:10Z</time>
      </trkpt>
      <trkpt lat="44.51804" lon="6.81839">
        <ele>2112.876</ele>
        <time>2012-09-15T07:38:13Z</time>
      </trkpt>
      <trkpt lat="44.518" lon="6.81844">
        <ele>2114.177</ele>
        <time>2012-09-15T07:38:19Z</time>
      </trkpt>
      <trkpt lat="44.51804" lon="6.81858">
        <ele>2120.81</ele>
        <time>2012-09-15T07:41:24Z</time>
      </trkpt>
      <trkpt lat="44.51797" lon="6.81856">
        <ele>2129.108</ele>
        <time>2012-09-15T07:41:33Z</time>
      </trkpt>
      <trkpt lat="44.51792" lon="6.81863">
        <ele>2132.391</ele>
        <time>2012-09-15T07:41:40Z</time>
      </trkpt>
      <trkpt lat="44.5179" lon="6.81879">
        <ele>2132.062</ele>
        <time>2012-09-15T07:41:53Z</time>
      </trkpt>
      <trkpt lat="44.51794" lon="6.81889">
        <ele>2128.12</ele>
        <time>2012-09-15T07:42:01Z</time>
      </trkpt>
      <trkpt lat="44.5179" lon="6.81893">
        <ele>2128.404</ele>
        <time>2012-09-15T07:42:05Z</time>
      </trkpt>
      <trkpt lat="44.51786" lon="6.819">
        <ele>2126.733</ele>
        <time>2012-09-15T07:42:11Z</time>
      </trkpt>
      <trkpt lat="44.51783" lon="6.81908">
        <ele>2128.087</ele>
        <time>2012-09-15T07:42:18Z</time>
      </trkpt>
      <trkpt lat="44.51781" lon="6.8191">
        <ele>2127.557</ele>
        <time>2012-09-15T07:42:22Z</time>
      </trkpt>
      <trkpt lat="44.51778" lon="6.81913">
        <ele>2126.675</ele>
        <time>2012-09-15T07:42:26Z</time>
      </trkpt>
      <trkpt lat="44.51773" lon="6.81917">
        <ele>2128.701</ele>
        <time>2012-09-15T07:42:33Z</time>
      </trkpt>
      <trkpt lat="44.5177" lon="6.8192">
        <ele>2130.805</ele>
        <time>2012-09-15T07:42:37Z</time>
      </trkpt>
      <trkpt lat="44.51769" lon="6.81924">
        <ele>2131.621</ele>
        <time>2012-09-15T07:42:40Z</time>
      </trkpt>
      <trkpt lat="44.51766" lon="6.81927">
        <ele>2137.778</ele>
        <time>2012-09-15T07:42:46Z</time>
      </trkpt>
      <trkpt lat="44.51762" lon="6.81927">
        <ele>2147.265</ele>
        <time>2012-09-15T07:42:53Z</time>
      </trkpt>
      <trkpt lat="44.51758" lon="6.81936">
        <ele>2144.35</ele>
        <time>2012-09-15T07:43:01Z</time>
      </trkpt>
      <trkpt lat="44.5176" lon="6.81941">
        <ele>2141.254</ele>
        <time>2012-09-15T07:43:04Z</time>
      </trkpt>
      <trkpt lat="44.51751" lon="6.81947">
        <ele>2141.544</ele>
        <time>2012-09-15T07:43:09Z</time>
      </trkpt>
      <trkpt lat="44.51747" lon="6.81952">
        <ele>2143.121</ele>
        <time>2012-09-15T07:43:12Z</time>
      </trkpt>
      <trkpt lat="44.51742" lon="6.81965">
        <ele>2144.323</ele>
        <time>2012-09-15T07:43:19Z</time>
      </trkpt>
      <trkpt lat="44.51741" lon="6.81967">
        <ele>2144.333</ele>
        <time>2012-09-15T07:43:20Z</time>
      </trkpt>
      <trkpt lat="44.51737" lon="6.81979">
        <ele>2144.401</ele>
        <time>2012-09-15T07:43:28Z</time>
      </trkpt>
      <trkpt lat="44.51731" lon="6.81991">
        <ele>2142.286</ele>
        <time>2012-09-15T07:43:36Z</time>
      </trkpt>
      <trkpt lat="44.51726" lon="6.82011">
        <ele>2139.556</ele>
        <time>2012-09-15T07:43:47Z</time>
      </trkpt>
      <trkpt lat="44.5172" lon="6.82023">
        <ele>2141.44</ele>
        <time>2012-09-15T07:43:54Z</time>
      </trkpt>
      <trkpt lat="44.51712" lon="6.82033">
        <ele>2144.104</ele>
        <time>2012-09-15T07:44:01Z</time>
      </trkpt>
      <trkpt lat="44.51712" lon="6.82037">
        <ele>2142.515</ele>
        <time>2012-09-15T07:44:07Z</time>
      </trkpt>
      <trkpt lat="44.51719" lon="6.82045">
        <ele>2129.093</ele>
        <time>2012-09-15T07:45:05Z</time>
      </trkpt>
      <trkpt lat="44.51713" lon="6.82047">
        <ele>2129.884</ele>
        <time>2012-09-15T07:45:09Z</time>
      </trkpt>
      <trkpt lat="44.51706" lon="6.82054">
        <ele>2131.964</ele>
        <time>2012-09-15T07:45:15Z</time>
      </trkpt>
      <trkpt lat="44.51696" lon="6.82061">
        <ele>2137.592</ele>
        <time>2012-09-15T07:45:22Z</time>
      </trkpt>
      <trkpt lat="44.51694" lon="6.82071">
        <ele>2142.759</ele>
        <time>2012-09-15T07:45:28Z</time>
      </trkpt>
      <trkpt lat="44.51697" lon="6.8208">
        <ele>2146.39</ele>
        <time>2012-09-15T07:45:32Z</time>
      </trkpt>
      <trkpt lat="44.51694" lon="6.82087">
        <ele>2151.83</ele>
        <time>2012-09-15T07:45:38Z</time>
      </trkpt>
      <trkpt lat="44.51694" lon="6.82088">
        <ele>2152.541</ele>
        <time>2012-09-15T07:45:39Z</time>
      </trkpt>
      <trkpt lat="44.51689" lon="6.8209">
        <ele>2156.052</ele>
        <time>2012-09-15T07:45:45Z</time>
      </trkpt>
      <trkpt lat="44.51688" lon="6.82089">
        <ele>2162.458</ele>
        <time>2012-09-15T07:45:51Z</time>
      </trkpt>
      <trkpt lat="44.51686" lon="6.82091">
        <ele>2164.276</ele>
        <time>2012-09-15T07:45:54Z</time>
      </trkpt>
      <trkpt lat="44.51683" lon="6.82102">
        <ele>2161.076</ele>
        <time>2012-09-15T07:46:01Z</time>
      </trkpt>
      <trkpt lat="44.51685" lon="6.82106">
        <ele>2160.213</ele>
        <time>2012-09-15T07:46:03Z</time>
      </trkpt>
      <trkpt lat="44.51686" lon="6.82116">
        <ele>2168.065</ele>
        <time>2012-09-15T07:46:11Z</time>
      </trkpt>
      <trkpt lat="44.51684" lon="6.82127">
        <ele>2162.229</ele>
        <time>2012-09-15T07:46:22Z</time>
      </trkpt>
      <trkpt lat="44.51683" lon="6.82131">
        <ele>2166.356</ele>
        <time>2012-09-15T07:46:29Z</time>
      </trkpt>
      <trkpt lat="44.51677" lon="6.82134">
        <ele>2164.729</ele>
        <time>2012-09-15T07:46:35Z</time>
      </trkpt>
      <trkpt lat="44.51673" lon="6.82141">
        <ele>2164.95</ele>
        <time>2012-09-15T07:46:41Z</time>
      </trkpt>
      <trkpt lat="44.51672" lon="6.82143">
        <ele>2164.526</ele>
        <time>2012-09-15T07:46:46Z</time>
      </trkpt>
      <trkpt lat="44.51663" lon="6.82155">
        <ele>2164.472</ele>
        <time>2012-09-15T07:47:05Z</time>
      </trkpt>
      <trkpt lat="44.51662" lon="6.8216">
        <ele>2165.302</ele>
        <time>2012-09-15T07:47:11Z</time>
      </trkpt>
      <trkpt lat="44.51666" lon="6.8217">
        <ele>2167.051</ele>
        <time>2012-09-15T07:47:18Z</time>
      </trkpt>
      <trkpt lat="44.51659" lon="6.82169">
        <ele>2170.795</ele>
        <time>2012-09-15T07:47:21Z</time>
      </trkpt>
      <trkpt lat="44.51649" lon="6.82173">
        <ele>2182.058</ele>
        <time>2012-09-15T07:47:28Z</time>
      </trkpt>
      <trkpt lat="44.51645" lon="6.82176">
        <ele>2188.371</ele>
        <time>2012-09-15T07:47:41Z</time>
      </trkpt>
      <trkpt lat="44.51642" lon="6.82179">
        <ele>2185.543</ele>
        <time>2012-09-15T07:47:45Z</time>
      </trkpt>
      <trkpt lat="44.51637" lon="6.82185">
        <ele>2183.999</ele>
        <time>2012-09-15T07:47:50Z</time>
      </trkpt>
      <trkpt lat="44.51637" lon="6.82191">
        <ele>2181.994</ele>
        <time>2012-09-15T07:47:55Z</time>
      </trkpt>
      <trkpt lat="44.51636" lon="6.82191">
        <ele>2182.698</ele>
        <time>2012-09-15T07:48:02Z</time>
      </trkpt>
      <trkpt lat="44.51643" lon="6.82195">
        <ele>2179.427</ele>
        <time>2012-09-15T07:48:07Z</time>
      </trkpt>
      <trkpt lat="44.51649" lon="6.82197">
        <ele>2182.067</ele>
        <time>2012-09-15T07:48:13Z</time>
      </trkpt>
      <trkpt lat="44.51653" lon="6.82201">
        <ele>2184.172</ele>
        <time>2012-09-15T07:48:19Z</time>
      </trkpt>
      <trkpt lat="44.51659" lon="6.82205">
        <ele>2176.56</ele>
        <time>2012-09-15T07:48:23Z</time>
      </trkpt>
      <trkpt lat="44.51662" lon="6.82208">
        <ele>2175.271</ele>
        <time>2012-09-15T07:48:26Z</time>
      </trkpt>
      <trkpt lat="44.51657" lon="6.82212">
        <ele>2179.71</ele>
        <time>2012-09-15T07:48:34Z</time>
      </trkpt>
      <trkpt lat="44.51658" lon="6.82219">
        <ele>2177.753</ele>
        <time>2012-09-15T07:48:49Z</time>
      </trkpt>
      <trkpt lat="44.51656" lon="6.82224">
        <ele>2177.529</ele>
        <time>2012-09-15T07:48:56Z</time>
      </trkpt>
      <trkpt lat="44.51657" lon="6.82225">
        <ele>2178.754</ele>
        <time>2012-09-15T07:48:58Z</time>
      </trkpt>
      <trkpt lat="44.51653" lon="6.82228">
        <ele>2176.625</ele>
        <time>2012-09-15T07:49:05Z</time>
      </trkpt>
      <trkpt lat="44.51652" lon="6.82228">
        <ele>2178.119</ele>
        <time>2012-09-15T07:49:07Z</time>
      </trkpt>
      <trkpt lat="44.51647" lon="6.82232">
        <ele>2182.703</ele>
        <time>2012-09-15T07:49:14Z</time>
      </trkpt>
      <trkpt lat="44.51642" lon="6.82236">
        <ele>2187.007</ele>
        <time>2012-09-15T07:49:20Z</time>
      </trkpt>
      <trkpt lat="44.51637" lon="6.82245">
        <ele>2185.258</ele>
        <time>2012-09-15T07:49:29Z</time>
      </trkpt>
      <trkpt lat="44.51634" lon="6.82249">
        <ele>2185.444</ele>
        <time>2012-09-15T07:49:34Z</time>
      </trkpt>
      <trkpt lat="44.51632" lon="6.82252">
        <ele>2188.904</ele>
        <time>2012-09-15T07:49:40Z</time>
      </trkpt>
      <trkpt lat="44.51629" lon="6.82253">
        <ele>2191.782</ele>
        <time>2012-09-15T07:49:47Z</time>
      </trkpt>
      <trkpt lat="44.51628" lon="6.82258">
        <ele>2190.981</ele>
        <time>2012-09-15T07:49:51Z</time>
      </trkpt>
      <trkpt lat="44.5162" lon="6.82263">
        <ele>2190.723</ele>
        <time>2012-09-15T07:49:59Z</time>
      </trkpt>
      <trkpt lat="44.51611" lon="6.82267">
        <ele>2192.216</ele>
        <time>2012-09-15T07:50:07Z</time>
      </trkpt>
      <trkpt lat="44.51608" lon="6.82267">
        <ele>2195.344</ele>
        <time>2012-09-15T07:50:11Z</time>
      </trkpt>
      <trkpt lat="44.51605" lon="6.82271">
        <ele>2193.374</ele>
        <time>2012-09-15T07:50:15Z</time>
      </trkpt>
      <trkpt lat="44.51597" lon="6.82274">
        <ele>2196.084</ele>
        <time>2012-09-15T07:50:22Z</time>
      </trkpt>
      <trkpt lat="44.51593" lon="6.82282">
        <ele>2195.988</ele>
        <time>2012-09-15T07:50:29Z</time>
      </trkpt>
      <trkpt lat="44.5159" lon="6.82292">
        <ele>2193.364</ele>
        <time>2012-09-15T07:50:41Z</time>
      </trkpt>
      <trkpt lat="44.51585" lon="6.82304">
        <ele>2191.843</ele>
        <time>2012-09-15T07:50:48Z</time>
      </trkpt>
      <trkpt lat="44.51579" lon="6.8231">
        <ele>2191.654</ele>
        <time>2012-09-15T07:50:53Z</time>
      </trkpt>
      <trkpt lat="44.51574" lon="6.82321">
        <ele>2193.885</ele>
        <time>2012-09-15T07:51:00Z</time>
      </trkpt>
      <trkpt lat="44.51575" lon="6.82338">
        <ele>2195.671</ele>
        <time>2012-09-15T07:51:08Z</time>
      </trkpt>
      <trkpt lat="44.51572" lon="6.8235">
        <ele>2198.514</ele>
        <time>2012-09-15T07:51:15Z</time>
      </trkpt>
      <trkpt lat="44.51564" lon="6.82358">
        <ele>2204.383</ele>
        <time>2012-09-15T07:51:23Z</time>
      </trkpt>
      <trkpt lat="44.51561" lon="6.82364">
        <ele>2206.439</ele>
        <time>2012-09-15T07:51:28Z</time>
      </trkpt>
      <trkpt lat="44.51559" lon="6.8237">
        <ele>2207.368</ele>
        <time>2012-09-15T07:51:32Z</time>
      </trkpt>
      <trkpt lat="44.51558" lon="6.82375">
        <ele>2209.767</ele>
        <time>2012-09-15T07:51:38Z</time>
      </trkpt>
      <trkpt lat="44.51553" lon="6.8238">
        <ele>2213.73</ele>
        <time>2012-09-15T07:51:42Z</time>
      </trkpt>
      <trkpt lat="44.51552" lon="6.82383">
        <ele>2213.699</ele>
        <time>2012-09-15T07:51:44Z</time>
      </trkpt>
      <trkpt lat="44.51546" lon="6.82394">
        <ele>2215.425</ele>
        <time>2012-09-15T07:51:51Z</time>
      </trkpt>
      <trkpt lat="44.51542" lon="6.82403">
        <ele>2217.837</ele>
        <time>2012-09-15T07:51:58Z</time>
      </trkpt>
      <trkpt lat="44.51547" lon="6.82414">
        <ele>2218.001</ele>
        <time>2012-09-15T07:52:03Z</time>
      </trkpt>
      <trkpt lat="44.51544" lon="6.82427">
        <ele>2220.608</ele>
        <time>2012-09-15T07:52:12Z</time>
      </trkpt>
      <trkpt lat="44.51539" lon="6.82434">
        <ele>2223.497</ele>
        <time>2012-09-15T07:52:19Z</time>
      </trkpt>
      <trkpt lat="44.51536" lon="6.82436">
        <ele>2224.194</ele>
        <time>2012-09-15T07:52:25Z</time>
      </trkpt>
      <trkpt lat="44.51534" lon="6.8244">
        <ele>2221.886</ele>
        <time>2012-09-15T07:52:30Z</time>
      </trkpt>
      <trkpt lat="44.51532" lon="6.82442">
        <ele>2221.036</ele>
        <time>2012-09-15T07:52:33Z</time>
      </trkpt>
      <trkpt lat="44.51534" lon="6.82448">
        <ele>2220.515</ele>
        <time>2012-09-15T07:52:40Z</time>
      </trkpt>
      <trkpt lat="44.51539" lon="6.82455">
        <ele>2218.461</ele>
        <time>2012-09-15T07:52:46Z</time>
      </trkpt>
      <trkpt lat="44.51542" lon="6.82461">
        <ele>2215.358</ele>
        <time>2012-09-15T07:52:53Z</time>
      </trkpt>
      <trkpt lat="44.51546" lon="6.82467">
        <ele>2210.52</ele>
        <time>2012-09-15T07:53:00Z</time>
      </trkpt>
      <trkpt lat="44.51549" lon="6.82473">
        <ele>2205.926</ele>
        <time>2012-09-15T07:53:06Z</time>
      </trkpt>
      <trkpt lat="44.51545" lon="6.82484">
        <ele>2212.045</ele>
        <time>2012-09-15T07:53:17Z</time>
      </trkpt>
      <trkpt lat="44.51549" lon="6.82492">
        <ele>2211.128</ele>
        <time>2012-09-15T07:53:23Z</time>
      </trkpt>
      <trkpt lat="44.51542" lon="6.82488">
        <ele>2226.293</ele>
        <time>2012-09-15T07:53:46Z</time>
      </trkpt>
      <trkpt lat="44.51543" lon="6.82495">
        <ele>2227.141</ele>
        <time>2012-09-15T07:53:50Z</time>
      </trkpt>
      <trkpt lat="44.51545" lon="6.82505">
        <ele>2228.105</ele>
        <time>2012-09-15T07:53:55Z</time>
      </trkpt>
      <trkpt lat="44.51547" lon="6.8252">
        <ele>2229.112</ele>
        <time>2012-09-15T07:54:02Z</time>
      </trkpt>
      <trkpt lat="44.51537" lon="6.82529">
        <ele>2230.619</ele>
        <time>2012-09-15T07:54:09Z</time>
      </trkpt>
      <trkpt lat="44.51529" lon="6.82534">
        <ele>2226.585</ele>
        <time>2012-09-15T07:54:17Z</time>
      </trkpt>
      <trkpt lat="44.51517" lon="6.82546">
        <ele>2228.007</ele>
        <time>2012-09-15T07:54:25Z</time>
      </trkpt>
      <trkpt lat="44.51508" lon="6.82563">
        <ele>2229.766</ele>
        <time>2012-09-15T07:54:34Z</time>
      </trkpt>
      <trkpt lat="44.51504" lon="6.82577">
        <ele>2229.791</ele>
        <time>2012-09-15T07:54:41Z</time>
      </trkpt>
      <trkpt lat="44.51497" lon="6.82587">
        <ele>2231.094</ele>
        <time>2012-09-15T07:54:48Z</time>
      </trkpt>
      <trkpt lat="44.51495" lon="6.8259">
        <ele>2232.035</ele>
        <time>2012-09-15T07:54:50Z</time>
      </trkpt>
      <trkpt lat="44.51483" lon="6.82608">
        <ele>2236.027</ele>
        <time>2012-09-15T07:55:00Z</time>
      </trkpt>
      <trkpt lat="44.51479" lon="6.82618">
        <ele>2234.47</ele>
        <time>2012-09-15T07:55:05Z</time>
      </trkpt>
      <trkpt lat="44.51475" lon="6.82638">
        <ele>2233.948</ele>
        <time>2012-09-15T07:55:15Z</time>
      </trkpt>
      <trkpt lat="44.51467" lon="6.82657">
        <ele>2236.003</ele>
        <time>2012-09-15T07:55:25Z</time>
      </trkpt>
      <trkpt lat="44.51461" lon="6.8267">
        <ele>2237.053</ele>
        <time>2012-09-15T07:55:33Z</time>
      </trkpt>
      <trkpt lat="44.51456" lon="6.82684">
        <ele>2236.292</ele>
        <time>2012-09-15T07:55:42Z</time>
      </trkpt>
      <trkpt lat="44.51445" lon="6.82695">
        <ele>2242.59</ele>
        <time>2012-09-15T07:55:51Z</time>
      </trkpt>
      <trkpt lat="44.51446" lon="6.82696">
        <ele>2238.674</ele>
        <time>2012-09-15T07:56:03Z</time>
      </trkpt>
      <trkpt lat="44.51448" lon="6.82695">
        <ele>2232.194</ele>
        <time>2012-09-15T07:56:36Z</time>
      </trkpt>
      <trkpt lat="44.51442" lon="6.82706">
        <ele>2233.074</ele>
        <time>2012-09-15T07:56:46Z</time>
      </trkpt>
      <trkpt lat="44.51438" lon="6.82714">
        <ele>2234.164</ele>
        <time>2012-09-15T07:56:55Z</time>
      </trkpt>
      <trkpt lat="44.51437" lon="6.8272">
        <ele>2235.821</ele>
        <time>2012-09-15T07:57:01Z</time>
      </trkpt>
      <trkpt lat="44.51438" lon="6.82725">
        <ele>2238.706</ele>
        <time>2012-09-15T07:57:06Z</time>
      </trkpt>
      <trkpt lat="44.51438" lon="6.82734">
        <ele>2239.019</ele>
        <time>2012-09-15T07:57:13Z</time>
      </trkpt>
      <trkpt lat="44.51439" lon="6.82738">
        <ele>2242.914</ele>
        <time>2012-09-15T07:57:17Z</time>
      </trkpt>
      <trkpt lat="44.5144" lon="6.82745">
        <ele>2241.81</ele>
        <time>2012-09-15T07:57:23Z</time>
      </trkpt>
      <trkpt lat="44.5144" lon="6.82746">
        <ele>2241.908</ele>
        <time>2012-09-15T07:57:24Z</time>
      </trkpt>
      <trkpt lat="44.5144" lon="6.8275">
        <ele>2241.657</ele>
        <time>2012-09-15T07:57:27Z</time>
      </trkpt>
      <trkpt lat="44.51438" lon="6.82755">
        <ele>2239.889</ele>
        <time>2012-09-15T07:57:32Z</time>
      </trkpt>
      <trkpt lat="44.51437" lon="6.82765">
        <ele>2240.966</ele>
        <time>2012-09-15T07:57:40Z</time>
      </trkpt>
      <trkpt lat="44.51431" lon="6.82778">
        <ele>2249.209</ele>
        <time>2012-09-15T07:57:50Z</time>
      </trkpt>
      <trkpt lat="44.51429" lon="6.82794">
        <ele>2252.155</ele>
        <time>2012-09-15T07:58:01Z</time>
      </trkpt>
      <trkpt lat="44.51428" lon="6.82808">
        <ele>2253.142</ele>
        <time>2012-09-15T07:58:11Z</time>
      </trkpt>
      <trkpt lat="44.51426" lon="6.82818">
        <ele>2255.877</ele>
        <time>2012-09-15T07:58:19Z</time>
      </trkpt>
      <trkpt lat="44.51425" lon="6.82823">
        <ele>2257.637</ele>
        <time>2012-09-15T07:58:23Z</time>
      </trkpt>
      <trkpt lat="44.51425" lon="6.82826">
        <ele>2258.258</ele>
        <time>2012-09-15T07:58:25Z</time>
      </trkpt>
      <trkpt lat="44.51422" lon="6.82839">
        <ele>2254.767</ele>
        <time>2012-09-15T07:58:36Z</time>
      </trkpt>
      <trkpt lat="44.51421" lon="6.82845">
        <ele>2254.931</ele>
        <time>2012-09-15T07:58:41Z</time>
      </trkpt>
      <trkpt lat="44.51421" lon="6.82855">
        <ele>2256.284</ele>
        <time>2012-09-15T07:58:49Z</time>
      </trkpt>
      <trkpt lat="44.51421" lon="6.82859">
        <ele>2256.042</ele>
        <time>2012-09-15T07:58:53Z</time>
      </trkpt>
      <trkpt lat="44.51419" lon="6.8287">
        <ele>2257.342</ele>
        <time>2012-09-15T07:59:03Z</time>
      </trkpt>
      <trkpt lat="44.51416" lon="6.82877">
        <ele>2258.822</ele>
        <time>2012-09-15T07:59:11Z</time>
      </trkpt>
      <trkpt lat="44.51411" lon="6.82888">
        <ele>2258.802</ele>
        <time>2012-09-15T07:59:17Z</time>
      </trkpt>
      <trkpt lat="44.51408" lon="6.82897">
        <ele>2256.177</ele>
        <time>2012-09-15T07:59:24Z</time>
      </trkpt>
      <trkpt lat="44.51408" lon="6.82905">
        <ele>2256.9</ele>
        <time>2012-09-15T07:59:53Z</time>
      </trkpt>
      <trkpt lat="44.51401" lon="6.82926">
        <ele>2261.035</ele>
        <time>2012-09-15T08:00:03Z</time>
      </trkpt>
      <trkpt lat="44.51394" lon="6.82944">
        <ele>2265.732</ele>
        <time>2012-09-15T08:00:13Z</time>
      </trkpt>
      <trkpt lat="44.5139" lon="6.82956">
        <ele>2265.661</ele>
        <time>2012-09-15T08:00:20Z</time>
      </trkpt>
      <trkpt lat="44.5139" lon="6.82956">
        <ele>2264.739</ele>
        <time>2012-09-15T08:00:23Z</time>
      </trkpt>
      <trkpt lat="44.51389" lon="6.82962">
        <ele>2264.156</ele>
        <time>2012-09-15T08:00:27Z</time>
      </trkpt>
      <trkpt lat="44.51378" lon="6.82976">
        <ele>2260.158</ele>
        <time>2012-09-15T08:00:36Z</time>
      </trkpt>
      <trkpt lat="44.51367" lon="6.82984">
        <ele>2258.563</ele>
        <time>2012-09-15T08:00:42Z</time>
      </trkpt>
      <trkpt lat="44.51366" lon="6.82986">
        <ele>2258.715</ele>
        <time>2012-09-15T08:00:43Z</time>
      </trkpt>
      <trkpt lat="44.51358" lon="6.82997">
        <ele>2261.792</ele>
        <time>2012-09-15T08:00:49Z</time>
      </trkpt>
      <trkpt lat="44.51355" lon="6.83002">
        <ele>2261.36</ele>
        <time>2012-09-15T08:00:52Z</time>
      </trkpt>
      <trkpt lat="44.51343" lon="6.83017">
        <ele>2261.187</ele>
        <time>2012-09-15T08:01:01Z</time>
      </trkpt>
      <trkpt lat="44.51338" lon="6.8302">
        <ele>2260.937</ele>
        <time>2012-09-15T08:01:04Z</time>
      </trkpt>
      <trkpt lat="44.51333" lon="6.83029">
        <ele>2260.275</ele>
        <time>2012-09-15T08:01:09Z</time>
      </trkpt>
      <trkpt lat="44.51323" lon="6.83042">
        <ele>2263.4</ele>
        <time>2012-09-15T08:01:16Z</time>
      </trkpt>
      <trkpt lat="44.51317" lon="6.83056">
        <ele>2263.722</ele>
        <time>2012-09-15T08:01:22Z</time>
      </trkpt>
      <trkpt lat="44.51309" lon="6.83068">
        <ele>2264.95</ele>
        <time>2012-09-15T08:01:27Z</time>
      </trkpt>
      <trkpt lat="44.51305" lon="6.83079">
        <ele>2262.856</ele>
        <time>2012-09-15T08:01:32Z</time>
      </trkpt>
      <trkpt lat="44.51299" lon="6.83095">
        <ele>2262.115</ele>
        <time>2012-09-15T08:01:38Z</time>
      </trkpt>
      <trkpt lat="44.51293" lon="6.83109">
        <ele>2260.314</ele>
        <time>2012-09-15T08:01:44Z</time>
      </trkpt>
      <trkpt lat="44.51284" lon="6.83123">
        <ele>2262.745</ele>
        <time>2012-09-15T08:01:50Z</time>
      </trkpt>
      <trkpt lat="44.51275" lon="6.83136">
        <ele>2263.191</ele>
        <time>2012-09-15T08:01:56Z</time>
      </trkpt>
      <trkpt lat="44.51271" lon="6.83142">
        <ele>2262.389</ele>
        <time>2012-09-15T08:02:00Z</time>
      </trkpt>
      <trkpt lat="44.51271" lon="6.8315">
        <ele>2262.683</ele>
        <time>2012-09-15T08:02:07Z</time>
      </trkpt>
      <trkpt lat="44.51274" lon="6.83156">
        <ele>2264.565</ele>
        <time>2012-09-15T08:02:13Z</time>
      </trkpt>
      <trkpt lat="44.5127" lon="6.8316">
        <ele>2262.7</ele>
        <time>2012-09-15T08:02:19Z</time>
      </trkpt>
      <trkpt lat="44.51273" lon="6.83163">
        <ele>2262.973</ele>
        <time>2012-09-15T08:02:22Z</time>
      </trkpt>
      <trkpt lat="44.51274" lon="6.8317">
        <ele>2265.195</ele>
        <time>2012-09-15T08:02:29Z</time>
      </trkpt>
      <trkpt lat="44.51275" lon="6.83175">
        <ele>2264.032</ele>
        <time>2012-09-15T08:02:34Z</time>
      </trkpt>
      <trkpt lat="44.51274" lon="6.83175">
        <ele>2263.399</ele>
        <time>2012-09-15T08:02:36Z</time>
      </trkpt>
      <trkpt lat="44.51273" lon="6.83182">
        <ele>2265.227</ele>
        <time>2012-09-15T08:02:42Z</time>
      </trkpt>
      <trkpt lat="44.51267" lon="6.83189">
        <ele>2267.292</ele>
        <time>2012-09-15T08:02:50Z</time>
      </trkpt>
      <trkpt lat="44.51267" lon="6.8319">
        <ele>2268.255</ele>
        <time>2012-09-15T08:02:51Z</time>
      </trkpt>
      <trkpt lat="44.51267" lon="6.8319">
        <ele>2272.574</ele>
        <time>2012-09-15T08:02:58Z</time>
      </trkpt>
      <trkpt lat="44.51269" lon="6.83191">
        <ele>2269.696</ele>
        <time>2012-09-15T08:03:04Z</time>
      </trkpt>
      <trkpt lat="44.51266" lon="6.83188">
        <ele>2269.261</ele>
        <time>2012-09-15T08:03:15Z</time>
      </trkpt>
      <trkpt lat="44.51262" lon="6.8319">
        <ele>2276.923</ele>
        <time>2012-09-15T08:03:56Z</time>
      </trkpt>
      <trkpt lat="44.51264" lon="6.83191">
        <ele>2285.728</ele>
        <time>2012-09-15T08:04:16Z</time>
      </trkpt>
      <trkpt lat="44.51266" lon="6.83196">
        <ele>2282.518</ele>
        <time>2012-09-15T08:04:30Z</time>
      </trkpt>
      <trkpt lat="44.51271" lon="6.83197">
        <ele>2278.507</ele>
        <time>2012-09-15T08:04:37Z</time>
      </trkpt>
      <trkpt lat="44.51272" lon="6.83212">
        <ele>2279.741</ele>
        <time>2012-09-15T08:04:43Z</time>
      </trkpt>
      <trkpt lat="44.51272" lon="6.8322">
        <ele>2281.977</ele>
        <time>2012-09-15T08:04:47Z</time>
      </trkpt>
      <trkpt lat="44.51269" lon="6.83227">
        <ele>2285.362</ele>
        <time>2012-09-15T08:04:51Z</time>
      </trkpt>
      <trkpt lat="44.5127" lon="6.83234">
        <ele>2282.548</ele>
        <time>2012-09-15T08:04:56Z</time>
      </trkpt>
      <trkpt lat="44.5127" lon="6.83239">
        <ele>2282.09</ele>
        <time>2012-09-15T08:05:00Z</time>
      </trkpt>
      <trkpt lat="44.5127" lon="6.83248">
        <ele>2281.63</ele>
        <time>2012-09-15T08:05:06Z</time>
      </trkpt>
      <trkpt lat="44.51265" lon="6.83259">
        <ele>2280.679</ele>
        <time>2012-09-15T08:05:14Z</time>
      </trkpt>
      <trkpt lat="44.51265" lon="6.83264">
        <ele>2279.357</ele>
        <time>2012-09-15T08:05:18Z</time>
      </trkpt>
      <trkpt lat="44.51255" lon="6.83277">
        <ele>2280.46</ele>
        <time>2012-09-15T08:05:29Z</time>
      </trkpt>
      <trkpt lat="44.5125" lon="6.83285">
        <ele>2280.156</ele>
        <time>2012-09-15T08:05:38Z</time>
      </trkpt>
      <trkpt lat="44.51251" lon="6.83286">
        <ele>2276.963</ele>
        <time>2012-09-15T08:05:42Z</time>
      </trkpt>
      <trkpt lat="44.51248" lon="6.83293">
        <ele>2277.595</ele>
        <time>2012-09-15T08:05:47Z</time>
      </trkpt>
      <trkpt lat="44.51245" lon="6.83302">
        <ele>2278.159</ele>
        <time>2012-09-15T08:05:55Z</time>
      </trkpt>
      <trkpt lat="44.51243" lon="6.83304">
        <ele>2278.911</ele>
        <time>2012-09-15T08:05:57Z</time>
      </trkpt>
      <trkpt lat="44.51241" lon="6.83309">
        <ele>2279.722</ele>
        <time>2012-09-15T08:06:01Z</time>
      </trkpt>
      <trkpt lat="44.51242" lon="6.83322">
        <ele>2285.677</ele>
        <time>2012-09-15T08:06:11Z</time>
      </trkpt>
      <trkpt lat="44.51243" lon="6.83332">
        <ele>2284.42</ele>
        <time>2012-09-15T08:06:20Z</time>
      </trkpt>
      <trkpt lat="44.51242" lon="6.83336">
        <ele>2283.638</ele>
        <time>2012-09-15T08:06:27Z</time>
      </trkpt>
      <trkpt lat="44.51243" lon="6.83336">
        <ele>2283.348</ele>
        <time>2012-09-15T08:06:32Z</time>
      </trkpt>
      <trkpt lat="44.51245" lon="6.83345">
        <ele>2283.088</ele>
        <time>2012-09-15T08:06:40Z</time>
      </trkpt>
      <trkpt lat="44.5124" lon="6.83355">
        <ele>2289.126</ele>
        <time>2012-09-15T08:06:50Z</time>
      </trkpt>
      <trkpt lat="44.51238" lon="6.83365">
        <ele>2292.716</ele>
        <time>2012-09-15T08:06:59Z</time>
      </trkpt>
      <trkpt lat="44.51236" lon="6.83372">
        <ele>2293.89</ele>
        <time>2012-09-15T08:07:08Z</time>
      </trkpt>
      <trkpt lat="44.51233" lon="6.83381">
        <ele>2294.51</ele>
        <time>2012-09-15T08:07:18Z</time>
      </trkpt>
      <trkpt lat="44.51232" lon="6.83387">
        <ele>2293.887</ele>
        <time>2012-09-15T08:07:27Z</time>
      </trkpt>
      <trkpt lat="44.51228" lon="6.83395">
        <ele>2298.201</ele>
        <time>2012-09-15T08:07:36Z</time>
      </trkpt>
      <trkpt lat="44.51225" lon="6.83399">
        <ele>2299.722</ele>
        <time>2012-09-15T08:07:40Z</time>
      </trkpt>
      <trkpt lat="44.51222" lon="6.83409">
        <ele>2302.614</ele>
        <time>2012-09-15T08:07:49Z</time>
      </trkpt>
      <trkpt lat="44.51218" lon="6.83418">
        <ele>2303.251</ele>
        <time>2012-09-15T08:07:58Z</time>
      </trkpt>
      <trkpt lat="44.51216" lon="6.83422">
        <ele>2303.79</ele>
        <time>2012-09-15T08:08:05Z</time>
      </trkpt>
      <trkpt lat="44.51215" lon="6.83427">
        <ele>2303.678</ele>
        <time>2012-09-15T08:08:11Z</time>
      </trkpt>
      <trkpt lat="44.51212" lon="6.83436">
        <ele>2303.448</ele>
        <time>2012-09-15T08:08:20Z</time>
      </trkpt>
      <trkpt lat="44.51211" lon="6.83439">
        <ele>2304.77</ele>
        <time>2012-09-15T08:08:24Z</time>
      </trkpt>
      <trkpt lat="44.51207" lon="6.83446">
        <ele>2308.221</ele>
        <time>2012-09-15T08:08:32Z</time>
      </trkpt>
      <trkpt lat="44.51205" lon="6.8345">
        <ele>2309.529</ele>
        <time>2012-09-15T08:08:40Z</time>
      </trkpt>
      <trkpt lat="44.51201" lon="6.83455">
        <ele>2310.948</ele>
        <time>2012-09-15T08:08:44Z</time>
      </trkpt>
      <trkpt lat="44.51193" lon="6.83468">
        <ele>2317.185</ele>
        <time>2012-09-15T08:08:52Z</time>
      </trkpt>
      <trkpt lat="44.51193" lon="6.83469">
        <ele>2317.845</ele>
        <time>2012-09-15T08:08:53Z</time>
      </trkpt>
      <trkpt lat="44.5119" lon="6.8347">
        <ele>2315.721</ele>
        <time>2012-09-15T08:09:00Z</time>
      </trkpt>
      <trkpt lat="44.51187" lon="6.83475">
        <ele>2314.27</ele>
        <time>2012-09-15T08:09:04Z</time>
      </trkpt>
      <trkpt lat="44.51177" lon="6.83486">
        <ele>2317.371</ele>
        <time>2012-09-15T08:09:11Z</time>
      </trkpt>
      <trkpt lat="44.51168" lon="6.83498">
        <ele>2319.711</ele>
        <time>2012-09-15T08:09:17Z</time>
      </trkpt>
      <trkpt lat="44.51156" lon="6.83517">
        <ele>2328.507</ele>
        <time>2012-09-15T08:09:26Z</time>
      </trkpt>
      <trkpt lat="44.51148" lon="6.8353">
        <ele>2336.392</ele>
        <time>2012-09-15T08:09:33Z</time>
      </trkpt>
      <trkpt lat="44.51141" lon="6.83539">
        <ele>2340.915</ele>
        <time>2012-09-15T08:09:38Z</time>
      </trkpt>
      <trkpt lat="44.51137" lon="6.83551">
        <ele>2343.543</ele>
        <time>2012-09-15T08:09:45Z</time>
      </trkpt>
      <trkpt lat="44.51137" lon="6.83554">
        <ele>2340.426</ele>
        <time>2012-09-15T08:09:51Z</time>
      </trkpt>
      <trkpt lat="44.5114" lon="6.83558">
        <ele>2334.494</ele>
        <time>2012-09-15T08:10:32Z</time>
      </trkpt>
      <trkpt lat="44.5114" lon="6.83561">
        <ele>2334.245</ele>
        <time>2012-09-15T08:10:38Z</time>
      </trkpt>
      <trkpt lat="44.51138" lon="6.83569">
        <ele>2335.758</ele>
        <time>2012-09-15T08:10:45Z</time>
      </trkpt>
      <trkpt lat="44.51136" lon="6.83579">
        <ele>2339.051</ele>
        <time>2012-09-15T08:10:55Z</time>
      </trkpt>
      <trkpt lat="44.51135" lon="6.83589">
        <ele>2340.122</ele>
        <time>2012-09-15T08:11:03Z</time>
      </trkpt>
      <trkpt lat="44.51134" lon="6.83595">
        <ele>2340.98</ele>
        <time>2012-09-15T08:11:08Z</time>
      </trkpt>
      <trkpt lat="44.51133" lon="6.83599">
        <ele>2343.082</ele>
        <time>2012-09-15T08:11:15Z</time>
      </trkpt>
      <trkpt lat="44.51131" lon="6.83605">
        <ele>2344.943</ele>
        <time>2012-09-15T08:11:22Z</time>
      </trkpt>
      <trkpt lat="44.51129" lon="6.8361">
        <ele>2346.282</ele>
        <time>2012-09-15T08:11:27Z</time>
      </trkpt>
      <trkpt lat="44.51127" lon="6.83618">
        <ele>2347.779</ele>
        <time>2012-09-15T08:11:35Z</time>
      </trkpt>
      <trkpt lat="44.51124" lon="6.83624">
        <ele>2349.35</ele>
        <time>2012-09-15T08:11:41Z</time>
      </trkpt>
      <trkpt lat="44.51121" lon="6.83632">
        <ele>2350.76</ele>
        <time>2012-09-15T08:11:50Z</time>
      </trkpt>
      <trkpt lat="44.51122" lon="6.83635">
        <ele>2347.063</ele>
        <time>2012-09-15T08:11:56Z</time>
      </trkpt>
      <trkpt lat="44.51123" lon="6.83635">
        <ele>2344.192</ele>
        <time>2012-09-15T08:12:10Z</time>
      </trkpt>
      <trkpt lat="44.51127" lon="6.83646">
        <ele>2339.364</ele>
        <time>2012-09-15T08:12:19Z</time>
      </trkpt>
      <trkpt lat="44.51131" lon="6.83656">
        <ele>2337.839</ele>
        <time>2012-09-15T08:12:29Z</time>
      </trkpt>
      <trkpt lat="44.51131" lon="6.83657">
        <ele>2338.28</ele>
        <time>2012-09-15T08:12:30Z</time>
      </trkpt>
      <trkpt lat="44.51132" lon="6.83667">
        <ele>2337.471</ele>
        <time>2012-09-15T08:12:39Z</time>
      </trkpt>
      <trkpt lat="44.51132" lon="6.83675">
        <ele>2338.742</ele>
        <time>2012-09-15T08:12:45Z</time>
      </trkpt>
      <trkpt lat="44.51134" lon="6.83685">
        <ele>2337.4</ele>
        <time>2012-09-15T08:12:54Z</time>
      </trkpt>
      <trkpt lat="44.51134" lon="6.83693">
        <ele>2342.313</ele>
        <time>2012-09-15T08:13:03Z</time>
      </trkpt>
      <trkpt lat="44.51134" lon="6.83697">
        <ele>2349.788</ele>
        <time>2012-09-15T08:13:09Z</time>
      </trkpt>
      <trkpt lat="44.51132" lon="6.83703">
        <ele>2353.428</ele>
        <time>2012-09-15T08:13:15Z</time>
      </trkpt>
      <trkpt lat="44.51131" lon="6.83704">
        <ele>2353.818</ele>
        <time>2012-09-15T08:13:16Z</time>
      </trkpt>
      <trkpt lat="44.51131" lon="6.8371">
        <ele>2355.375</ele>
        <time>2012-09-15T08:13:22Z</time>
      </trkpt>
      <trkpt lat="44.51133" lon="6.83717">
        <ele>2356.504</ele>
        <time>2012-09-15T08:13:30Z</time>
      </trkpt>
      <trkpt lat="44.51134" lon="6.83718">
        <ele>2356.443</ele>
        <time>2012-09-15T08:13:31Z</time>
      </trkpt>
      <trkpt lat="44.51137" lon="6.83721">
        <ele>2355.591</ele>
        <time>2012-09-15T08:13:37Z</time>
      </trkpt>
      <trkpt lat="44.51141" lon="6.8372">
        <ele>2355.01</ele>
        <time>2012-09-15T08:13:43Z</time>
      </trkpt>
      <trkpt lat="44.51145" lon="6.83721">
        <ele>2355.832</ele>
        <time>2012-09-15T08:13:49Z</time>
      </trkpt>
      <trkpt lat="44.51146" lon="6.83722">
        <ele>2355.687</ele>
        <time>2012-09-15T08:13:54Z</time>
      </trkpt>
      <trkpt lat="44.51143" lon="6.83708">
        <ele>2379.989</ele>
        <time>2012-09-15T08:21:50Z</time>
      </trkpt>
      <trkpt lat="44.51146" lon="6.83711">
        <ele>2381.787</ele>
        <time>2012-09-15T08:21:55Z</time>
      </trkpt>
      <trkpt lat="44.51147" lon="6.83716">
        <ele>2382.422</ele>
        <time>2012-09-15T08:22:00Z</time>
      </trkpt>
      <trkpt lat="44.5115" lon="6.83729">
        <ele>2381.104</ele>
        <time>2012-09-15T08:22:10Z</time>
      </trkpt>
      <trkpt lat="44.51148" lon="6.83737">
        <ele>2386.502</ele>
        <time>2012-09-15T08:22:18Z</time>
      </trkpt>
      <trkpt lat="44.5115" lon="6.83742">
        <ele>2389.464</ele>
        <time>2012-09-15T08:22:25Z</time>
      </trkpt>
      <trkpt lat="44.51153" lon="6.83747">
        <ele>2391.134</ele>
        <time>2012-09-15T08:22:32Z</time>
      </trkpt>
      <trkpt lat="44.51157" lon="6.83753">
        <ele>2391.443</ele>
        <time>2012-09-15T08:22:39Z</time>
      </trkpt>
      <trkpt lat="44.51157" lon="6.83755">
        <ele>2391.482</ele>
        <time>2012-09-15T08:22:42Z</time>
      </trkpt>
      <trkpt lat="44.51158" lon="6.83757">
        <ele>2391.303</ele>
        <time>2012-09-15T08:22:44Z</time>
      </trkpt>
      <trkpt lat="44.51165" lon="6.83766">
        <ele>2387.765</ele>
        <time>2012-09-15T08:22:54Z</time>
      </trkpt>
      <trkpt lat="44.51166" lon="6.83771">
        <ele>2386.485</ele>
        <time>2012-09-15T08:22:59Z</time>
      </trkpt>
      <trkpt lat="44.51174" lon="6.83773">
        <ele>2382.721</ele>
        <time>2012-09-15T08:23:08Z</time>
      </trkpt>
      <trkpt lat="44.51179" lon="6.83773">
        <ele>2382.511</ele>
        <time>2012-09-15T08:23:18Z</time>
      </trkpt>
      <trkpt lat="44.51183" lon="6.83772">
        <ele>2382.268</ele>
        <time>2012-09-15T08:23:25Z</time>
      </trkpt>
      <trkpt lat="44.51183" lon="6.83772">
        <ele>2382.258</ele>
        <time>2012-09-15T08:23:26Z</time>
      </trkpt>
      <trkpt lat="44.51183" lon="6.83774">
        <ele>2386.064</ele>
        <time>2012-09-15T08:23:32Z</time>
      </trkpt>
      <trkpt lat="44.51184" lon="6.83773">
        <ele>2388.632</ele>
        <time>2012-09-15T08:23:35Z</time>
      </trkpt>
      <trkpt lat="44.51188" lon="6.8377">
        <ele>2391.89</ele>
        <time>2012-09-15T08:23:42Z</time>
      </trkpt>
      <trkpt lat="44.51191" lon="6.83769">
        <ele>2393.171</ele>
        <time>2012-09-15T08:23:48Z</time>
      </trkpt>
      <trkpt lat="44.51193" lon="6.83775">
        <ele>2394.574</ele>
        <time>2012-09-15T08:23:57Z</time>
      </trkpt>
      <trkpt lat="44.51197" lon="6.83774">
        <ele>2394.218</ele>
        <time>2012-09-15T08:24:03Z</time>
      </trkpt>
      <trkpt lat="44.512" lon="6.83772">
        <ele>2393.586</ele>
        <time>2012-09-15T08:24:09Z</time>
      </trkpt>
      <trkpt lat="44.51201" lon="6.83774">
        <ele>2393.594</ele>
        <time>2012-09-15T08:24:14Z</time>
      </trkpt>
      <trkpt lat="44.51203" lon="6.8378">
        <ele>2393.162</ele>
        <time>2012-09-15T08:24:22Z</time>
      </trkpt>
      <trkpt lat="44.5121" lon="6.83784">
        <ele>2387.358</ele>
        <time>2012-09-15T08:24:29Z</time>
      </trkpt>
      <trkpt lat="44.51211" lon="6.83787">
        <ele>2388.017</ele>
        <time>2012-09-15T08:24:36Z</time>
      </trkpt>
      <trkpt lat="44.51212" lon="6.83788">
        <ele>2394.105</ele>
        <time>2012-09-15T08:24:44Z</time>
      </trkpt>
      <trkpt lat="44.51214" lon="6.83788">
        <ele>2396.508</ele>
        <time>2012-09-15T08:24:50Z</time>
      </trkpt>
      <trkpt lat="44.51216" lon="6.83789">
        <ele>2397.989</ele>
        <time>2012-09-15T08:24:55Z</time>
      </trkpt>
      <trkpt lat="44.51217" lon="6.8379">
        <ele>2399.392</ele>
        <time>2012-09-15T08:25:00Z</time>
      </trkpt>
      <trkpt lat="44.5122" lon="6.83791">
        <ele>2399.982</ele>
        <time>2012-09-15T08:25:07Z</time>
      </trkpt>
      <trkpt lat="44.51223" lon="6.83792">
        <ele>2400.543</ele>
        <time>2012-09-15T08:25:14Z</time>
      </trkpt>
      <trkpt lat="44.51223" lon="6.83796">
        <ele>2401.538</ele>
        <time>2012-09-15T08:25:23Z</time>
      </trkpt>
      <trkpt lat="44.51222" lon="6.83799">
        <ele>2402.358</ele>
        <time>2012-09-15T08:25:31Z</time>
      </trkpt>
      <trkpt lat="44.51221" lon="6.83804">
        <ele>2403.049</ele>
        <time>2012-09-15T08:25:37Z</time>
      </trkpt>
      <trkpt lat="44.51226" lon="6.83807">
        <ele>2403.547</ele>
        <time>2012-09-15T08:25:46Z</time>
      </trkpt>
      <trkpt lat="44.5123" lon="6.83808">
        <ele>2405.24</ele>
        <time>2012-09-15T08:25:54Z</time>
      </trkpt>
      <trkpt lat="44.51231" lon="6.83812">
        <ele>2405.114</ele>
        <time>2012-09-15T08:26:02Z</time>
      </trkpt>
      <trkpt lat="44.51232" lon="6.83818">
        <ele>2405.596</ele>
        <time>2012-09-15T08:26:09Z</time>
      </trkpt>
      <trkpt lat="44.51233" lon="6.83825">
        <ele>2406.257</ele>
        <time>2012-09-15T08:26:17Z</time>
      </trkpt>
      <trkpt lat="44.51236" lon="6.83824">
        <ele>2406.336</ele>
        <time>2012-09-15T08:26:23Z</time>
      </trkpt>
      <trkpt lat="44.51239" lon="6.83823">
        <ele>2405.263</ele>
        <time>2012-09-15T08:26:30Z</time>
      </trkpt>
      <trkpt lat="44.51241" lon="6.8382">
        <ele>2407.855</ele>
        <time>2012-09-15T08:26:37Z</time>
      </trkpt>
      <trkpt lat="44.51248" lon="6.8382">
        <ele>2403.083</ele>
        <time>2012-09-15T08:26:45Z</time>
      </trkpt>
      <trkpt lat="44.51248" lon="6.83824">
        <ele>2402.969</ele>
        <time>2012-09-15T08:26:51Z</time>
      </trkpt>
      <trkpt lat="44.51249" lon="6.83829">
        <ele>2404.757</ele>
        <time>2012-09-15T08:27:00Z</time>
      </trkpt>
      <trkpt lat="44.51249" lon="6.83833">
        <ele>2407.224</ele>
        <time>2012-09-15T08:27:07Z</time>
      </trkpt>
      <trkpt lat="44.51249" lon="6.83838">
        <ele>2409.454</ele>
        <time>2012-09-15T08:27:14Z</time>
      </trkpt>
      <trkpt lat="44.51253" lon="6.83835">
        <ele>2410.569</ele>
        <time>2012-09-15T08:27:23Z</time>
      </trkpt>
      <trkpt lat="44.51258" lon="6.83835">
        <ele>2409.605</ele>
        <time>2012-09-15T08:27:31Z</time>
      </trkpt>
      <trkpt lat="44.51261" lon="6.83835">
        <ele>2410.873</ele>
        <time>2012-09-15T08:27:38Z</time>
      </trkpt>
      <trkpt lat="44.51264" lon="6.83834">
        <ele>2412.167</ele>
        <time>2012-09-15T08:27:46Z</time>
      </trkpt>
      <trkpt lat="44.51266" lon="6.83833">
        <ele>2415.3</ele>
        <time>2012-09-15T08:27:54Z</time>
      </trkpt>
      <trkpt lat="44.51265" lon="6.83837">
        <ele>2418.271</ele>
        <time>2012-09-15T08:28:01Z</time>
      </trkpt>
      <trkpt lat="44.51266" lon="6.8384">
        <ele>2420.412</ele>
        <time>2012-09-15T08:28:07Z</time>
      </trkpt>
      <trkpt lat="44.51265" lon="6.83845">
        <ele>2423.332</ele>
        <time>2012-09-15T08:28:15Z</time>
      </trkpt>
      <trkpt lat="44.51264" lon="6.83849">
        <ele>2424.964</ele>
        <time>2012-09-15T08:28:21Z</time>
      </trkpt>
      <trkpt lat="44.51263" lon="6.83852">
        <ele>2425.792</ele>
        <time>2012-09-15T08:28:26Z</time>
      </trkpt>
      <trkpt lat="44.51265" lon="6.83857">
        <ele>2425.679</ele>
        <time>2012-09-15T08:28:34Z</time>
      </trkpt>
      <trkpt lat="44.51269" lon="6.83858">
        <ele>2423.795</ele>
        <time>2012-09-15T08:28:40Z</time>
      </trkpt>
      <trkpt lat="44.51271" lon="6.83858">
        <ele>2423.906</ele>
        <time>2012-09-15T08:28:45Z</time>
      </trkpt>
      <trkpt lat="44.51272" lon="6.83858">
        <ele>2426.95</ele>
        <time>2012-09-15T08:28:50Z</time>
      </trkpt>
      <trkpt lat="44.51274" lon="6.83858">
        <ele>2430.733</ele>
        <time>2012-09-15T08:28:57Z</time>
      </trkpt>
      <trkpt lat="44.51274" lon="6.8386">
        <ele>2433.444</ele>
        <time>2012-09-15T08:29:03Z</time>
      </trkpt>
      <trkpt lat="44.51275" lon="6.83865">
        <ele>2435.412</ele>
        <time>2012-09-15T08:29:10Z</time>
      </trkpt>
      <trkpt lat="44.51278" lon="6.83868">
        <ele>2437.14</ele>
        <time>2012-09-15T08:29:18Z</time>
      </trkpt>
      <trkpt lat="44.51279" lon="6.83872">
        <ele>2438.35</ele>
        <time>2012-09-15T08:29:24Z</time>
      </trkpt>
      <trkpt lat="44.51282" lon="6.83878">
        <ele>2438.926</ele>
        <time>2012-09-15T08:29:34Z</time>
      </trkpt>
      <trkpt lat="44.51283" lon="6.83882">
        <ele>2441.25</ele>
        <time>2012-09-15T08:29:42Z</time>
      </trkpt>
      <trkpt lat="44.51285" lon="6.83885">
        <ele>2444.052</ele>
        <time>2012-09-15T08:29:50Z</time>
      </trkpt>
      <trkpt lat="44.51286" lon="6.83891">
        <ele>2445.5</ele>
        <time>2012-09-15T08:29:59Z</time>
      </trkpt>
      <trkpt lat="44.51287" lon="6.83892">
        <ele>2445.799</ele>
        <time>2012-09-15T08:30:01Z</time>
      </trkpt>
      <trkpt lat="44.51289" lon="6.83892">
        <ele>2445.772</ele>
        <time>2012-09-15T08:30:08Z</time>
      </trkpt>
      <trkpt lat="44.51293" lon="6.83892">
        <ele>2446.286</ele>
        <time>2012-09-15T08:30:16Z</time>
      </trkpt>
      <trkpt lat="44.51297" lon="6.83893">
        <ele>2447.027</ele>
        <time>2012-09-15T08:30:24Z</time>
      </trkpt>
      <trkpt lat="44.51295" lon="6.83897">
        <ele>2450.56</ele>
        <time>2012-09-15T08:30:30Z</time>
      </trkpt>
      <trkpt lat="44.51294" lon="6.83903">
        <ele>2453.042</ele>
        <time>2012-09-15T08:30:38Z</time>
      </trkpt>
      <trkpt lat="44.51294" lon="6.83907">
        <ele>2455.481</ele>
        <time>2012-09-15T08:30:45Z</time>
      </trkpt>
      <trkpt lat="44.51293" lon="6.8391">
        <ele>2457.611</ele>
        <time>2012-09-15T08:30:51Z</time>
      </trkpt>
      <trkpt lat="44.51293" lon="6.83916">
        <ele>2461.352</ele>
        <time>2012-09-15T08:31:00Z</time>
      </trkpt>
      <trkpt lat="44.51293" lon="6.83923">
        <ele>2464.121</ele>
        <time>2012-09-15T08:31:09Z</time>
      </trkpt>
      <trkpt lat="44.51293" lon="6.83924">
        <ele>2464.291</ele>
        <time>2012-09-15T08:31:10Z</time>
      </trkpt>
      <trkpt lat="44.51297" lon="6.8392">
        <ele>2464.668</ele>
        <time>2012-09-15T08:31:17Z</time>
      </trkpt>
      <trkpt lat="44.51302" lon="6.83918">
        <ele>2465.939</ele>
        <time>2012-09-15T08:31:26Z</time>
      </trkpt>
      <trkpt lat="44.51304" lon="6.83917">
        <ele>2466.308</ele>
        <time>2012-09-15T08:31:31Z</time>
      </trkpt>
      <trkpt lat="44.51307" lon="6.83922">
        <ele>2466.808</ele>
        <time>2012-09-15T08:31:39Z</time>
      </trkpt>
      <trkpt lat="44.51307" lon="6.83926">
        <ele>2469.169</ele>
        <time>2012-09-15T08:31:46Z</time>
      </trkpt>
      <trkpt lat="44.51308" lon="6.83927">
        <ele>2469.528</ele>
        <time>2012-09-15T08:31:49Z</time>
      </trkpt>
      <trkpt lat="44.51312" lon="6.83929">
        <ele>2472.013</ele>
        <time>2012-09-15T08:31:58Z</time>
      </trkpt>
      <trkpt lat="44.51313" lon="6.8393">
        <ele>2472.542</ele>
        <time>2012-09-15T08:32:00Z</time>
      </trkpt>
      <trkpt lat="44.51317" lon="6.83931">
        <ele>2470.766</ele>
        <time>2012-09-15T08:32:07Z</time>
      </trkpt>
      <trkpt lat="44.51318" lon="6.83931">
        <ele>2471.124</ele>
        <time>2012-09-15T08:32:14Z</time>
      </trkpt>
      <trkpt lat="44.51324" lon="6.83935">
        <ele>2471.309</ele>
        <time>2012-09-15T08:32:25Z</time>
      </trkpt>
      <trkpt lat="44.51325" lon="6.83936">
        <ele>2471.359</ele>
        <time>2012-09-15T08:32:27Z</time>
      </trkpt>
      <trkpt lat="44.51327" lon="6.83936">
        <ele>2471.038</ele>
        <time>2012-09-15T08:32:29Z</time>
      </trkpt>
      <trkpt lat="44.5133" lon="6.83937">
        <ele>2471.178</ele>
        <time>2012-09-15T08:32:34Z</time>
      </trkpt>
      <trkpt lat="44.51333" lon="6.83938">
        <ele>2471.318</ele>
        <time>2012-09-15T08:32:37Z</time>
      </trkpt>
      <trkpt lat="44.51335" lon="6.83938">
        <ele>2474.841</ele>
        <time>2012-09-15T08:32:43Z</time>
      </trkpt>
      <trkpt lat="44.51344" lon="6.83936">
        <ele>2474.119</ele>
        <time>2012-09-15T08:32:52Z</time>
      </trkpt>
      <trkpt lat="44.51348" lon="6.83938">
        <ele>2474.499</ele>
        <time>2012-09-15T08:32:59Z</time>
      </trkpt>
      <trkpt lat="44.51352" lon="6.83936">
        <ele>2475.68</ele>
        <time>2012-09-15T08:33:05Z</time>
      </trkpt>
      <trkpt lat="44.51354" lon="6.83932">
        <ele>2481.706</ele>
        <time>2012-09-15T08:33:11Z</time>
      </trkpt>
      <trkpt lat="44.51354" lon="6.83931">
        <ele>2483.128</ele>
        <time>2012-09-15T08:33:12Z</time>
      </trkpt>
      <trkpt lat="44.51355" lon="6.83923">
        <ele>2487.336</ele>
        <time>2012-09-15T08:33:20Z</time>
      </trkpt>
      <trkpt lat="44.51362" lon="6.8393">
        <ele>2479.211</ele>
        <time>2012-09-15T08:35:12Z</time>
      </trkpt>
      <trkpt lat="44.51368" lon="6.83927">
        <ele>2476.738</ele>
        <time>2012-09-15T08:35:16Z</time>
      </trkpt>
      <trkpt lat="44.51379" lon="6.83923">
        <ele>2475.207</ele>
        <time>2012-09-15T08:35:24Z</time>
      </trkpt>
      <trkpt lat="44.51383" lon="6.83913">
        <ele>2474.397</ele>
        <time>2012-09-15T08:35:31Z</time>
      </trkpt>
      <trkpt lat="44.51383" lon="6.83908">
        <ele>2476.471</ele>
        <time>2012-09-15T08:35:37Z</time>
      </trkpt>
      <trkpt lat="44.51386" lon="6.83905">
        <ele>2476.841</ele>
        <time>2012-09-15T08:35:44Z</time>
      </trkpt>
      <trkpt lat="44.51391" lon="6.83899">
        <ele>2475.421</ele>
        <time>2012-09-15T08:35:51Z</time>
      </trkpt>
      <trkpt lat="44.51396" lon="6.83897">
        <ele>2475.742</ele>
        <time>2012-09-15T08:35:58Z</time>
      </trkpt>
      <trkpt lat="44.51399" lon="6.83895">
        <ele>2476.454</ele>
        <time>2012-09-15T08:36:05Z</time>
      </trkpt>
      <trkpt lat="44.514" lon="6.83894">
        <ele>2478.034</ele>
        <time>2012-09-15T08:36:10Z</time>
      </trkpt>
      <trkpt lat="44.51404" lon="6.83894">
        <ele>2479.514</ele>
        <time>2012-09-15T08:36:16Z</time>
      </trkpt>
      <trkpt lat="44.51407" lon="6.83891">
        <ele>2480.995</ele>
        <time>2012-09-15T08:36:23Z</time>
      </trkpt>
      <trkpt lat="44.51412" lon="6.83891">
        <ele>2482.621</ele>
        <time>2012-09-15T08:36:32Z</time>
      </trkpt>
      <trkpt lat="44.51416" lon="6.83893">
        <ele>2483.493</ele>
        <time>2012-09-15T08:36:40Z</time>
      </trkpt>
      <trkpt lat="44.51417" lon="6.83893">
        <ele>2483.844</ele>
        <time>2012-09-15T08:36:41Z</time>
      </trkpt>
      <trkpt lat="44.51421" lon="6.83896">
        <ele>2485.013</ele>
        <time>2012-09-15T08:36:48Z</time>
      </trkpt>
      <trkpt lat="44.51425" lon="6.83896">
        <ele>2486.602</ele>
        <time>2012-09-15T08:36:56Z</time>
      </trkpt>
      <trkpt lat="44.51428" lon="6.83899">
        <ele>2487.472</ele>
        <time>2012-09-15T08:37:05Z</time>
      </trkpt>
      <trkpt lat="44.51432" lon="6.83903">
        <ele>2489.564</ele>
        <time>2012-09-15T08:37:12Z</time>
      </trkpt>
      <trkpt lat="44.51435" lon="6.83901">
        <ele>2492.406</ele>
        <time>2012-09-15T08:37:18Z</time>
      </trkpt>
      <trkpt lat="44.51436" lon="6.83901">
        <ele>2492.385</ele>
        <time>2012-09-15T08:37:19Z</time>
      </trkpt>
      <trkpt lat="44.51441" lon="6.83898">
        <ele>2489.75</ele>
        <time>2012-09-15T08:37:25Z</time>
      </trkpt>
      <trkpt lat="44.51447" lon="6.83895">
        <ele>2486.798</ele>
        <time>2012-09-15T08:37:30Z</time>
      </trkpt>
      <trkpt lat="44.51454" lon="6.83895">
        <ele>2489.484</ele>
        <time>2012-09-15T08:37:40Z</time>
      </trkpt>
      <trkpt lat="44.51458" lon="6.83894">
        <ele>2491.935</ele>
        <time>2012-09-15T08:37:46Z</time>
      </trkpt>
      <trkpt lat="44.51462" lon="6.83892">
        <ele>2494.046</ele>
        <time>2012-09-15T08:37:53Z</time>
      </trkpt>
      <trkpt lat="44.51464" lon="6.83888">
        <ele>2493.031</ele>
        <time>2012-09-15T08:38:02Z</time>
      </trkpt>
      <trkpt lat="44.51464" lon="6.83887">
        <ele>2492.54</ele>
        <time>2012-09-15T08:38:03Z</time>
      </trkpt>
      <trkpt lat="44.51468" lon="6.83878">
        <ele>2491.389</ele>
        <time>2012-09-15T08:38:13Z</time>
      </trkpt>
      <trkpt lat="44.51474" lon="6.83875">
        <ele>2491.559</ele>
        <time>2012-09-15T08:38:22Z</time>
      </trkpt>
      <trkpt lat="44.51477" lon="6.83873">
        <ele>2491.799</ele>
        <time>2012-09-15T08:38:27Z</time>
      </trkpt>
      <trkpt lat="44.51482" lon="6.8387">
        <ele>2492.189</ele>
        <time>2012-09-15T08:38:35Z</time>
      </trkpt>
      <trkpt lat="44.51488" lon="6.83869">
        <ele>2495.504</ele>
        <time>2012-09-15T08:38:45Z</time>
      </trkpt>
      <trkpt lat="44.5149" lon="6.8387">
        <ele>2504.725</ele>
        <time>2012-09-15T08:38:55Z</time>
      </trkpt>
      <trkpt lat="44.51491" lon="6.8387">
        <ele>2505.87</ele>
        <time>2012-09-15T08:38:56Z</time>
      </trkpt>
      <trkpt lat="44.51492" lon="6.83875">
        <ele>2508.948</ele>
        <time>2012-09-15T08:39:00Z</time>
      </trkpt>
      <trkpt lat="44.51501" lon="6.83886">
        <ele>2510.114</ele>
        <time>2012-09-15T08:39:09Z</time>
      </trkpt>
      <trkpt lat="44.51508" lon="6.83896">
        <ele>2507.51</ele>
        <time>2012-09-15T08:39:17Z</time>
      </trkpt>
      <trkpt lat="44.51514" lon="6.83901">
        <ele>2505.057</ele>
        <time>2012-09-15T08:39:23Z</time>
      </trkpt>
      <trkpt lat="44.51525" lon="6.83908">
        <ele>2503.832</ele>
        <time>2012-09-15T08:39:32Z</time>
      </trkpt>
      <trkpt lat="44.51534" lon="6.83916">
        <ele>2500.687</ele>
        <time>2012-09-15T08:39:40Z</time>
      </trkpt>
      <trkpt lat="44.51539" lon="6.83917">
        <ele>2500.158</ele>
        <time>2012-09-15T08:39:45Z</time>
      </trkpt>
      <trkpt lat="44.51543" lon="6.8392">
        <ele>2497.628</ele>
        <time>2012-09-15T08:39:54Z</time>
      </trkpt>
      <trkpt lat="44.51546" lon="6.83922">
        <ele>2497.959</ele>
        <time>2012-09-15T08:40:01Z</time>
      </trkpt>
      <trkpt lat="44.51549" lon="6.83925">
        <ele>2497.037</ele>
        <time>2012-09-15T08:40:07Z</time>
      </trkpt>
      <trkpt lat="44.51554" lon="6.83929">
        <ele>2496.798</ele>
        <time>2012-09-15T08:40:15Z</time>
      </trkpt>
      <trkpt lat="44.51557" lon="6.83931">
        <ele>2497.899</ele>
        <time>2012-09-15T08:40:21Z</time>
      </trkpt>
      <trkpt lat="44.51561" lon="6.83935">
        <ele>2499.21</ele>
        <time>2012-09-15T08:40:28Z</time>
      </trkpt>
      <trkpt lat="44.51566" lon="6.83937">
        <ele>2501.084</ele>
        <time>2012-09-15T08:40:35Z</time>
      </trkpt>
      <trkpt lat="44.51572" lon="6.83938">
        <ele>2503.901</ele>
        <time>2012-09-15T08:40:44Z</time>
      </trkpt>
      <trkpt lat="44.51576" lon="6.83939">
        <ele>2506.195</ele>
        <time>2012-09-15T08:40:49Z</time>
      </trkpt>
      <trkpt lat="44.51581" lon="6.83945">
        <ele>2506.532</ele>
        <time>2012-09-15T08:40:57Z</time>
      </trkpt>
      <trkpt lat="44.51587" lon="6.83947">
        <ele>2505.5</ele>
        <time>2012-09-15T08:41:06Z</time>
      </trkpt>
      <trkpt lat="44.51591" lon="6.83947">
        <ele>2506.331</ele>
        <time>2012-09-15T08:41:13Z</time>
      </trkpt>
      <trkpt lat="44.51593" lon="6.83948">
        <ele>2508.575</ele>
        <time>2012-09-15T08:41:18Z</time>
      </trkpt>
      <trkpt lat="44.51594" lon="6.8395">
        <ele>2513.729</ele>
        <time>2012-09-15T08:41:25Z</time>
      </trkpt>
      <trkpt lat="44.51602" lon="6.83949">
        <ele>2517.207</ele>
        <time>2012-09-15T08:41:38Z</time>
      </trkpt>
      <trkpt lat="44.51607" lon="6.83947">
        <ele>2512.721</ele>
        <time>2012-09-15T08:41:43Z</time>
      </trkpt>
      <trkpt lat="44.51613" lon="6.83948">
        <ele>2511.99</ele>
        <time>2012-09-15T08:41:51Z</time>
      </trkpt>
      <trkpt lat="44.51617" lon="6.83953">
        <ele>2516.135</ele>
        <time>2012-09-15T08:42:00Z</time>
      </trkpt>
      <trkpt lat="44.51621" lon="6.83953">
        <ele>2516.774</ele>
        <time>2012-09-15T08:42:05Z</time>
      </trkpt>
      <trkpt lat="44.51624" lon="6.83954">
        <ele>2517.873</ele>
        <time>2012-09-15T08:42:09Z</time>
      </trkpt>
      <trkpt lat="44.51627" lon="6.83956">
        <ele>2518.803</ele>
        <time>2012-09-15T08:42:15Z</time>
      </trkpt>
      <trkpt lat="44.51629" lon="6.83956">
        <ele>2516.198</ele>
        <time>2012-09-15T08:42:19Z</time>
      </trkpt>
      <trkpt lat="44.5164" lon="6.83955">
        <ele>2512.362</ele>
        <time>2012-09-15T08:42:25Z</time>
      </trkpt>
      <trkpt lat="44.51647" lon="6.83953">
        <ele>2510.774</ele>
        <time>2012-09-15T08:42:29Z</time>
      </trkpt>
      <trkpt lat="44.51648" lon="6.83953">
        <ele>2510.414</ele>
        <time>2012-09-15T08:42:30Z</time>
      </trkpt>
      <trkpt lat="44.51652" lon="6.83955">
        <ele>2510.868</ele>
        <time>2012-09-15T08:42:36Z</time>
      </trkpt>
      <trkpt lat="44.5166" lon="6.83962">
        <ele>2512.011</ele>
        <time>2012-09-15T08:42:43Z</time>
      </trkpt>
      <trkpt lat="44.51667" lon="6.83965">
        <ele>2511.122</ele>
        <time>2012-09-15T08:42:47Z</time>
      </trkpt>
      <trkpt lat="44.51668" lon="6.83966">
        <ele>2510.931</ele>
        <time>2012-09-15T08:42:48Z</time>
      </trkpt>
      <trkpt lat="44.51677" lon="6.83968">
        <ele>2509.378</ele>
        <time>2012-09-15T08:42:56Z</time>
      </trkpt>
      <trkpt lat="44.51679" lon="6.83969">
        <ele>2510.572</ele>
        <time>2012-09-15T08:43:01Z</time>
      </trkpt>
      <trkpt lat="44.51683" lon="6.83971">
        <ele>2513.583</ele>
        <time>2012-09-15T08:43:08Z</time>
      </trkpt>
      <trkpt lat="44.51687" lon="6.83974">
        <ele>2516.684</ele>
        <time>2012-09-15T08:43:17Z</time>
      </trkpt>
      <trkpt lat="44.51693" lon="6.83978">
        <ele>2518.203</ele>
        <time>2012-09-15T08:43:26Z</time>
      </trkpt>
      <trkpt lat="44.51694" lon="6.83978">
        <ele>2521.365</ele>
        <time>2012-09-15T08:43:33Z</time>
      </trkpt>
      <trkpt lat="44.51699" lon="6.83979">
        <ele>2518.309</ele>
        <time>2012-09-15T08:43:42Z</time>
      </trkpt>
      <trkpt lat="44.51701" lon="6.8398">
        <ele>2517.228</ele>
        <time>2012-09-15T08:43:44Z</time>
      </trkpt>
      <trkpt lat="44.5171" lon="6.83984">
        <ele>2509.844</ele>
        <time>2012-09-15T08:43:54Z</time>
      </trkpt>
      <trkpt lat="44.51718" lon="6.83988">
        <ele>2506.812</ele>
        <time>2012-09-15T08:44:02Z</time>
      </trkpt>
      <trkpt lat="44.51724" lon="6.8399">
        <ele>2506.059</ele>
        <time>2012-09-15T08:44:11Z</time>
      </trkpt>
      <trkpt lat="44.51728" lon="6.83991">
        <ele>2507.412</ele>
        <time>2012-09-15T08:44:20Z</time>
      </trkpt>
      <trkpt lat="44.51731" lon="6.83991">
        <ele>2510.045</ele>
        <time>2012-09-15T08:44:27Z</time>
      </trkpt>
      <trkpt lat="44.51736" lon="6.83995">
        <ele>2513.887</ele>
        <time>2012-09-15T08:44:37Z</time>
      </trkpt>
      <trkpt lat="44.51738" lon="6.83998">
        <ele>2514.835</ele>
        <time>2012-09-15T08:44:41Z</time>
      </trkpt>
      <trkpt lat="44.51742" lon="6.84001">
        <ele>2519.698</ele>
        <time>2012-09-15T08:44:50Z</time>
      </trkpt>
      <trkpt lat="44.51743" lon="6.84004">
        <ele>2523.128</ele>
        <time>2012-09-15T08:44:55Z</time>
      </trkpt>
      <trkpt lat="44.51745" lon="6.84007">
        <ele>2527.67</ele>
        <time>2012-09-15T08:45:01Z</time>
      </trkpt>
      <trkpt lat="44.51749" lon="6.8401">
        <ele>2529.888</ele>
        <time>2012-09-15T08:45:07Z</time>
      </trkpt>
      <trkpt lat="44.51755" lon="6.84016">
        <ele>2532.937</ele>
        <time>2012-09-15T08:45:16Z</time>
      </trkpt>
      <trkpt lat="44.51759" lon="6.84019">
        <ele>2533.415</ele>
        <time>2012-09-15T08:45:23Z</time>
      </trkpt>
      <trkpt lat="44.51763" lon="6.84019">
        <ele>2530.672</ele>
        <time>2012-09-15T08:45:29Z</time>
      </trkpt>
      <trkpt lat="44.51765" lon="6.84022">
        <ele>2534.777</ele>
        <time>2012-09-15T08:45:36Z</time>
      </trkpt>
      <trkpt lat="44.51765" lon="6.84023">
        <ele>2538.945</ele>
        <time>2012-09-15T08:45:47Z</time>
      </trkpt>
      <trkpt lat="44.51766" lon="6.84024">
        <ele>2542.777</ele>
        <time>2012-09-15T08:45:52Z</time>
      </trkpt>
      <trkpt lat="44.5177" lon="6.84025">
        <ele>2546.297</ele>
        <time>2012-09-15T08:46:00Z</time>
      </trkpt>
      <trkpt lat="44.51772" lon="6.84025">
        <ele>2547.545</ele>
        <time>2012-09-15T08:46:05Z</time>
      </trkpt>
      <trkpt lat="44.51775" lon="6.84031">
        <ele>2548.053</ele>
        <time>2012-09-15T08:46:13Z</time>
      </trkpt>
      <trkpt lat="44.51781" lon="6.84035">
        <ele>2549.151</ele>
        <time>2012-09-15T08:46:22Z</time>
      </trkpt>
      <trkpt lat="44.51785" lon="6.84037">
        <ele>2548.179</ele>
        <time>2012-09-15T08:46:30Z</time>
      </trkpt>
      <trkpt lat="44.51786" lon="6.84038">
        <ele>2547.707</ele>
        <time>2012-09-15T08:46:35Z</time>
      </trkpt>
      <trkpt lat="44.51789" lon="6.84041">
        <ele>2548.65</ele>
        <time>2012-09-15T08:46:43Z</time>
      </trkpt>
      <trkpt lat="44.51792" lon="6.84044">
        <ele>2548.56</ele>
        <time>2012-09-15T08:46:52Z</time>
      </trkpt>
      <trkpt lat="44.51795" lon="6.84045">
        <ele>2548.692</ele>
        <time>2012-09-15T08:47:04Z</time>
      </trkpt>
      <trkpt lat="44.518" lon="6.84047">
        <ele>2550.462</ele>
        <time>2012-09-15T08:47:12Z</time>
      </trkpt>
      <trkpt lat="44.51805" lon="6.8405">
        <ele>2551.932</ele>
        <time>2012-09-15T08:47:21Z</time>
      </trkpt>
      <trkpt lat="44.51808" lon="6.84053">
        <ele>2554.434</ele>
        <time>2012-09-15T08:47:28Z</time>
      </trkpt>
      <trkpt lat="44.51812" lon="6.84058">
        <ele>2557.205</ele>
        <time>2012-09-15T08:47:36Z</time>
      </trkpt>
      <trkpt lat="44.51815" lon="6.84061">
        <ele>2560.124</ele>
        <time>2012-09-15T08:47:44Z</time>
      </trkpt>
      <trkpt lat="44.51817" lon="6.84063">
        <ele>2562.734</ele>
        <time>2012-09-15T08:47:52Z</time>
      </trkpt>
      <trkpt lat="44.51819" lon="6.84065">
        <ele>2564.824</ele>
        <time>2012-09-15T08:47:58Z</time>
      </trkpt>
      <trkpt lat="44.5182" lon="6.84067">
        <ele>2564.592</ele>
        <time>2012-09-15T08:48:04Z</time>
      </trkpt>
      <trkpt lat="44.51823" lon="6.84067">
        <ele>2564.501</ele>
        <time>2012-09-15T08:48:13Z</time>
      </trkpt>
      <trkpt lat="44.51825" lon="6.8407">
        <ele>2565.101</ele>
        <time>2012-09-15T08:48:20Z</time>
      </trkpt>
      <trkpt lat="44.51826" lon="6.84074">
        <ele>2564.801</ele>
        <time>2012-09-15T08:48:26Z</time>
      </trkpt>
      <trkpt lat="44.51829" lon="6.84076">
        <ele>2565.502</ele>
        <time>2012-09-15T08:48:34Z</time>
      </trkpt>
      <trkpt lat="44.5183" lon="6.8408">
        <ele>2565.671</ele>
        <time>2012-09-15T08:48:39Z</time>
      </trkpt>
      <trkpt lat="44.5183" lon="6.84079">
        <ele>2565.059</ele>
        <time>2012-09-15T08:48:50Z</time>
      </trkpt>
      <trkpt lat="44.51832" lon="6.84083">
        <ele>2564.81</ele>
        <time>2012-09-15T08:48:58Z</time>
      </trkpt>
      <trkpt lat="44.51834" lon="6.84085">
        <ele>2565.199</ele>
        <time>2012-09-15T08:49:05Z</time>
      </trkpt>
      <trkpt lat="44.51834" lon="6.84085">
        <ele>2565.29</ele>
        <time>2012-09-15T08:49:07Z</time>
      </trkpt>
      <trkpt lat="44.51839" lon="6.84089">
        <ele>2565.65</ele>
        <time>2012-09-15T08:49:13Z</time>
      </trkpt>
      <trkpt lat="44.51845" lon="6.84093">
        <ele>2566.552</ele>
        <time>2012-09-15T08:49:22Z</time>
      </trkpt>
      <trkpt lat="44.51848" lon="6.84094">
        <ele>2567.692</ele>
        <time>2012-09-15T08:49:29Z</time>
      </trkpt>
      <trkpt lat="44.51852" lon="6.84097">
        <ele>2568.922</ele>
        <time>2012-09-15T08:49:37Z</time>
      </trkpt>
      <trkpt lat="44.51856" lon="6.84099">
        <ele>2569.892</ele>
        <time>2012-09-15T08:49:44Z</time>
      </trkpt>
      <trkpt lat="44.51858" lon="6.84101">
        <ele>2570.971</ele>
        <time>2012-09-15T08:49:51Z</time>
      </trkpt>
      <trkpt lat="44.51861" lon="6.84101">
        <ele>2572.012</ele>
        <time>2012-09-15T08:49:58Z</time>
      </trkpt>
      <trkpt lat="44.51863" lon="6.84102">
        <ele>2573.073</ele>
        <time>2012-09-15T08:50:03Z</time>
      </trkpt>
      <trkpt lat="44.51867" lon="6.84105">
        <ele>2574.423</ele>
        <time>2012-09-15T08:50:10Z</time>
      </trkpt>
      <trkpt lat="44.51869" lon="6.84108">
        <ele>2575.262</ele>
        <time>2012-09-15T08:50:17Z</time>
      </trkpt>
      <trkpt lat="44.51872" lon="6.84111">
        <ele>2576.071</ele>
        <time>2012-09-15T08:50:25Z</time>
      </trkpt>
      <trkpt lat="44.51875" lon="6.8411">
        <ele>2577.093</ele>
        <time>2012-09-15T08:50:32Z</time>
      </trkpt>
      <trkpt lat="44.51877" lon="6.8411">
        <ele>2577.961</ele>
        <time>2012-09-15T08:50:38Z</time>
      </trkpt>
      <trkpt lat="44.51879" lon="6.84111">
        <ele>2578.591</ele>
        <time>2012-09-15T08:50:43Z</time>
      </trkpt>
      <trkpt lat="44.51881" lon="6.84112">
        <ele>2579.993</ele>
        <time>2012-09-15T08:50:49Z</time>
      </trkpt>
      <trkpt lat="44.51884" lon="6.84113">
        <ele>2581.172</ele>
        <time>2012-09-15T08:50:56Z</time>
      </trkpt>
      <trkpt lat="44.51885" lon="6.84117">
        <ele>2581.782</ele>
        <time>2012-09-15T08:51:02Z</time>
      </trkpt>
      <trkpt lat="44.51885" lon="6.84117">
        <ele>2581.982</ele>
        <time>2012-09-15T08:51:03Z</time>
      </trkpt>
      <trkpt lat="44.51889" lon="6.84123">
        <ele>2584.153</ele>
        <time>2012-09-15T08:51:12Z</time>
      </trkpt>
      <trkpt lat="44.51892" lon="6.84126">
        <ele>2585.432</ele>
        <time>2012-09-15T08:51:19Z</time>
      </trkpt>
      <trkpt lat="44.51896" lon="6.84127">
        <ele>2586.732</ele>
        <time>2012-09-15T08:51:28Z</time>
      </trkpt>
      <trkpt lat="44.519" lon="6.84124">
        <ele>2586.281</ele>
        <time>2012-09-15T08:51:35Z</time>
      </trkpt>
      <trkpt lat="44.51901" lon="6.84123">
        <ele>2586.801</ele>
        <time>2012-09-15T08:51:41Z</time>
      </trkpt>
      <trkpt lat="44.51903" lon="6.84121">
        <ele>2587.781</ele>
        <time>2012-09-15T08:51:47Z</time>
      </trkpt>
      <trkpt lat="44.51905" lon="6.8412">
        <ele>2588.812</ele>
        <time>2012-09-15T08:51:52Z</time>
      </trkpt>
      <trkpt lat="44.51907" lon="6.84119">
        <ele>2589.901</ele>
        <time>2012-09-15T08:51:59Z</time>
      </trkpt>
      <trkpt lat="44.51909" lon="6.84119">
        <ele>2590.712</ele>
        <time>2012-09-15T08:52:04Z</time>
      </trkpt>
      <trkpt lat="44.51911" lon="6.84121">
        <ele>2592.352</ele>
        <time>2012-09-15T08:52:11Z</time>
      </trkpt>
      <trkpt lat="44.51914" lon="6.84122">
        <ele>2594.513</ele>
        <time>2012-09-15T08:52:19Z</time>
      </trkpt>
      <trkpt lat="44.51917" lon="6.84125">
        <ele>2596.193</ele>
        <time>2012-09-15T08:52:28Z</time>
      </trkpt>
      <trkpt lat="44.51919" lon="6.84126">
        <ele>2597.102</ele>
        <time>2012-09-15T08:52:34Z</time>
      </trkpt>
      <trkpt lat="44.51922" lon="6.84126">
        <ele>2598.053</ele>
        <time>2012-09-15T08:52:41Z</time>
      </trkpt>
      <trkpt lat="44.51926" lon="6.84128">
        <ele>2599.202</ele>
        <time>2012-09-15T08:52:49Z</time>
      </trkpt>
      <trkpt lat="44.5193" lon="6.84127">
        <ele>2600.493</ele>
        <time>2012-09-15T08:52:55Z</time>
      </trkpt>
      <trkpt lat="44.51932" lon="6.84129">
        <ele>2602.959</ele>
        <time>2012-09-15T08:53:02Z</time>
      </trkpt>
      <trkpt lat="44.51935" lon="6.84129">
        <ele>2604.943</ele>
        <time>2012-09-15T08:53:09Z</time>
      </trkpt>
      <trkpt lat="44.51937" lon="6.8413">
        <ele>2607.284</ele>
        <time>2012-09-15T08:53:13Z</time>
      </trkpt>
      <trkpt lat="44.51942" lon="6.84132">
        <ele>2604.418</ele>
        <time>2012-09-15T08:53:21Z</time>
      </trkpt>
      <trkpt lat="44.5195" lon="6.84131">
        <ele>2599.626</ele>
        <time>2012-09-15T08:53:31Z</time>
      </trkpt>
      <trkpt lat="44.51955" lon="6.8413">
        <ele>2601.169</ele>
        <time>2012-09-15T08:53:38Z</time>
      </trkpt>
      <trkpt lat="44.51958" lon="6.84129">
        <ele>2601.16</ele>
        <time>2012-09-15T08:53:41Z</time>
      </trkpt>
      <trkpt lat="44.51961" lon="6.84129">
        <ele>2601.572</ele>
        <time>2012-09-15T08:53:44Z</time>
      </trkpt>
      <trkpt lat="44.51968" lon="6.84134">
        <ele>2602.743</ele>
        <time>2012-09-15T08:53:53Z</time>
      </trkpt>
      <trkpt lat="44.51971" lon="6.84136">
        <ele>2607.415</ele>
        <time>2012-09-15T08:54:00Z</time>
      </trkpt>
      <trkpt lat="44.51971" lon="6.84136">
        <ele>2607.834</ele>
        <time>2012-09-15T08:54:01Z</time>
      </trkpt>
      <trkpt lat="44.51976" lon="6.84139">
        <ele>2608.513</ele>
        <time>2012-09-15T08:54:07Z</time>
      </trkpt>
      <trkpt lat="44.51981" lon="6.84142">
        <ele>2610.353</ele>
        <time>2012-09-15T08:54:15Z</time>
      </trkpt>
      <trkpt lat="44.51986" lon="6.8414">
        <ele>2611.843</ele>
        <time>2012-09-15T08:54:24Z</time>
      </trkpt>
      <trkpt lat="44.5199" lon="6.8414">
        <ele>2608.98</ele>
        <time>2012-09-15T08:54:31Z</time>
      </trkpt>
      <trkpt lat="44.51995" lon="6.84132">
        <ele>2605.958</ele>
        <time>2012-09-15T08:54:40Z</time>
      </trkpt>
      <trkpt lat="44.51998" lon="6.84132">
        <ele>2607.371</ele>
        <time>2012-09-15T08:54:45Z</time>
      </trkpt>
      <trkpt lat="44.52" lon="6.84132">
        <ele>2608.898</ele>
        <time>2012-09-15T08:54:54Z</time>
      </trkpt>
      <trkpt lat="44.52001" lon="6.84132">
        <ele>2611.441</ele>
        <time>2012-09-15T08:55:05Z</time>
      </trkpt>
      <trkpt lat="44.52005" lon="6.84131">
        <ele>2615.003</ele>
        <time>2012-09-15T08:55:12Z</time>
      </trkpt>
      <trkpt lat="44.52005" lon="6.84128">
        <ele>2618.173</ele>
        <time>2012-09-15T08:55:19Z</time>
      </trkpt>
      <trkpt lat="44.52008" lon="6.8413">
        <ele>2620.784</ele>
        <time>2012-09-15T08:55:25Z</time>
      </trkpt>
      <trkpt lat="44.52015" lon="6.84129">
        <ele>2623.023</ele>
        <time>2012-09-15T08:55:35Z</time>
      </trkpt>
      <trkpt lat="44.52019" lon="6.84127">
        <ele>2622.07</ele>
        <time>2012-09-15T08:55:42Z</time>
      </trkpt>
      <trkpt lat="44.52024" lon="6.84124">
        <ele>2620.319</ele>
        <time>2012-09-15T08:55:50Z</time>
      </trkpt>
      <trkpt lat="44.52028" lon="6.84124">
        <ele>2621.02</ele>
        <time>2012-09-15T08:55:57Z</time>
      </trkpt>
      <trkpt lat="44.52032" lon="6.84125">
        <ele>2621.4</ele>
        <time>2012-09-15T08:56:05Z</time>
      </trkpt>
      <trkpt lat="44.52033" lon="6.84125">
        <ele>2621.52</ele>
        <time>2012-09-15T08:56:06Z</time>
      </trkpt>
      <trkpt lat="44.52037" lon="6.84127">
        <ele>2622.761</ele>
        <time>2012-09-15T08:56:13Z</time>
      </trkpt>
      <trkpt lat="44.52042" lon="6.84132">
        <ele>2624.084</ele>
        <time>2012-09-15T08:56:22Z</time>
      </trkpt>
      <trkpt lat="44.52045" lon="6.84137">
        <ele>2625.622</ele>
        <time>2012-09-15T08:56:30Z</time>
      </trkpt>
      <trkpt lat="44.52048" lon="6.84139">
        <ele>2625.323</ele>
        <time>2012-09-15T08:56:39Z</time>
      </trkpt>
      <trkpt lat="44.52048" lon="6.8414">
        <ele>2625.331</ele>
        <time>2012-09-15T08:56:40Z</time>
      </trkpt>
      <trkpt lat="44.5205" lon="6.84144">
        <ele>2625.422</ele>
        <time>2012-09-15T08:56:46Z</time>
      </trkpt>
      <trkpt lat="44.52052" lon="6.84146">
        <ele>2626.692</ele>
        <time>2012-09-15T08:56:52Z</time>
      </trkpt>
      <trkpt lat="44.52056" lon="6.84148">
        <ele>2628.543</ele>
        <time>2012-09-15T08:56:59Z</time>
      </trkpt>
      <trkpt lat="44.5206" lon="6.84151">
        <ele>2629.452</ele>
        <time>2012-09-15T08:57:09Z</time>
      </trkpt>
      <trkpt lat="44.52065" lon="6.84155">
        <ele>2631.282</ele>
        <time>2012-09-15T08:57:17Z</time>
      </trkpt>
      <trkpt lat="44.52069" lon="6.84156">
        <ele>2631.452</ele>
        <time>2012-09-15T08:57:25Z</time>
      </trkpt>
      <trkpt lat="44.52076" lon="6.8416">
        <ele>2631.841</ele>
        <time>2012-09-15T08:57:36Z</time>
      </trkpt>
      <trkpt lat="44.52081" lon="6.8416">
        <ele>2632.14</ele>
        <time>2012-09-15T08:57:45Z</time>
      </trkpt>
      <trkpt lat="44.52085" lon="6.84163">
        <ele>2632.512</ele>
        <time>2012-09-15T08:57:55Z</time>
      </trkpt>
      <trkpt lat="44.52088" lon="6.84166">
        <ele>2633.112</ele>
        <time>2012-09-15T08:58:02Z</time>
      </trkpt>
      <trkpt lat="44.52092" lon="6.84169">
        <ele>2634.083</ele>
        <time>2012-09-15T08:58:11Z</time>
      </trkpt>
      <trkpt lat="44.52095" lon="6.84169">
        <ele>2634.811</ele>
        <time>2012-09-15T08:58:19Z</time>
      </trkpt>
      <trkpt lat="44.52099" lon="6.84172">
        <ele>2635.862</ele>
        <time>2012-09-15T08:58:28Z</time>
      </trkpt>
      <trkpt lat="44.52101" lon="6.84169">
        <ele>2635.351</ele>
        <time>2012-09-15T08:58:34Z</time>
      </trkpt>
      <trkpt lat="44.52104" lon="6.84171">
        <ele>2636.642</ele>
        <time>2012-09-15T08:58:41Z</time>
      </trkpt>
      <trkpt lat="44.52109" lon="6.84175">
        <ele>2638.235</ele>
        <time>2012-09-15T08:58:50Z</time>
      </trkpt>
      <trkpt lat="44.52114" lon="6.84176">
        <ele>2639.842</ele>
        <time>2012-09-15T08:58:58Z</time>
      </trkpt>
      <trkpt lat="44.52117" lon="6.84175">
        <ele>2639.55</ele>
        <time>2012-09-15T08:59:05Z</time>
      </trkpt>
      <trkpt lat="44.52118" lon="6.84174">
        <ele>2640.824</ele>
        <time>2012-09-15T08:59:11Z</time>
      </trkpt>
      <trkpt lat="44.5212" lon="6.84175">
        <ele>2644.575</ele>
        <time>2012-09-15T08:59:18Z</time>
      </trkpt>
      <trkpt lat="44.52122" lon="6.84176">
        <ele>2647.275</ele>
        <time>2012-09-15T08:59:26Z</time>
      </trkpt>
      <trkpt lat="44.52125" lon="6.84176">
        <ele>2648.77</ele>
        <time>2012-09-15T08:59:32Z</time>
      </trkpt>
      <trkpt lat="44.5213" lon="6.84178">
        <ele>2650.593</ele>
        <time>2012-09-15T08:59:40Z</time>
      </trkpt>
      <trkpt lat="44.52134" lon="6.84182">
        <ele>2652.466</ele>
        <time>2012-09-15T08:59:50Z</time>
      </trkpt>
      <trkpt lat="44.52135" lon="6.84186">
        <ele>2653.253</ele>
        <time>2012-09-15T08:59:57Z</time>
      </trkpt>
      <trkpt lat="44.52138" lon="6.84187">
        <ele>2654.343</ele>
        <time>2012-09-15T09:00:04Z</time>
      </trkpt>
      <trkpt lat="44.52141" lon="6.8419">
        <ele>2656.403</ele>
        <time>2012-09-15T09:00:13Z</time>
      </trkpt>
      <trkpt lat="44.52145" lon="6.8419">
        <ele>2658.585</ele>
        <time>2012-09-15T09:00:20Z</time>
      </trkpt>
      <trkpt lat="44.52149" lon="6.84191">
        <ele>2659.111</ele>
        <time>2012-09-15T09:00:26Z</time>
      </trkpt>
      <trkpt lat="44.52153" lon="6.84193">
        <ele>2660.452</ele>
        <time>2012-09-15T09:00:35Z</time>
      </trkpt>
      <trkpt lat="44.52154" lon="6.84197">
        <ele>2660.498</ele>
        <time>2012-09-15T09:00:42Z</time>
      </trkpt>
      <trkpt lat="44.52158" lon="6.84198">
        <ele>2661.028</ele>
        <time>2012-09-15T09:00:54Z</time>
      </trkpt>
      <trkpt lat="44.52164" lon="6.84204">
        <ele>2662.06</ele>
        <time>2012-09-15T09:01:01Z</time>
      </trkpt>
      <trkpt lat="44.5217" lon="6.84214">
        <ele>2665.652</ele>
        <time>2012-09-15T09:01:11Z</time>
      </trkpt>
      <trkpt lat="44.52177" lon="6.84215">
        <ele>2665.991</ele>
        <time>2012-09-15T09:01:18Z</time>
      </trkpt>
      <trkpt lat="44.52183" lon="6.84217">
        <ele>2665.773</ele>
        <time>2012-09-15T09:01:26Z</time>
      </trkpt>
      <trkpt lat="44.52186" lon="6.84218">
        <ele>2666</ele>
        <time>2012-09-15T09:01:32Z</time>
      </trkpt>
      <trkpt lat="44.52188" lon="6.8422">
        <ele>2664.792</ele>
        <time>2012-09-15T09:01:39Z</time>
      </trkpt>
      <trkpt lat="44.52187" lon="6.84219">
        <ele>2666.748</ele>
        <time>2012-09-15T09:03:44Z</time>
      </trkpt>
      <trkpt lat="44.52189" lon="6.84226">
        <ele>2669.032</ele>
        <time>2012-09-15T09:03:50Z</time>
      </trkpt>
      <trkpt lat="44.52198" lon="6.84239">
        <ele>2671.055</ele>
        <time>2012-09-15T09:03:56Z</time>
      </trkpt>
      <trkpt lat="44.52207" lon="6.84252">
        <ele>2672.716</ele>
        <time>2012-09-15T09:04:01Z</time>
      </trkpt>
      <trkpt lat="44.52217" lon="6.84264">
        <ele>2674.365</ele>
        <time>2012-09-15T09:04:06Z</time>
      </trkpt>
      <trkpt lat="44.52226" lon="6.84268">
        <ele>2672.674</ele>
        <time>2012-09-15T09:04:11Z</time>
      </trkpt>
      <trkpt lat="44.52239" lon="6.84273">
        <ele>2668.22</ele>
        <time>2012-09-15T09:04:19Z</time>
      </trkpt>
      <trkpt lat="44.52253" lon="6.84279">
        <ele>2666.35</ele>
        <time>2012-09-15T09:04:29Z</time>
      </trkpt>
      <trkpt lat="44.52263" lon="6.84284">
        <ele>2667.302</ele>
        <time>2012-09-15T09:04:37Z</time>
      </trkpt>
      <trkpt lat="44.52275" lon="6.84288">
        <ele>2668.343</ele>
        <time>2012-09-15T09:04:47Z</time>
      </trkpt>
      <trkpt lat="44.52289" lon="6.84291">
        <ele>2668.771</ele>
        <time>2012-09-15T09:04:57Z</time>
      </trkpt>
      <trkpt lat="44.52296" lon="6.84296">
        <ele>2672.816</ele>
        <time>2012-09-15T09:05:05Z</time>
      </trkpt>
      <trkpt lat="44.52295" lon="6.84298">
        <ele>2676.569</ele>
        <time>2012-09-15T09:05:07Z</time>
      </trkpt>
      <trkpt lat="44.523" lon="6.84305">
        <ele>2681.71</ele>
        <time>2012-09-15T09:05:14Z</time>
      </trkpt>
      <trkpt lat="44.52301" lon="6.84306">
        <ele>2682.645</ele>
        <time>2012-09-15T09:05:20Z</time>
      </trkpt>
      <trkpt lat="44.52305" lon="6.84309">
        <ele>2683.678</ele>
        <time>2012-09-15T09:05:25Z</time>
      </trkpt>
      <trkpt lat="44.52313" lon="6.84311">
        <ele>2680.889</ele>
        <time>2012-09-15T09:05:35Z</time>
      </trkpt>
      <trkpt lat="44.52319" lon="6.84314">
        <ele>2681.02</ele>
        <time>2012-09-15T09:05:44Z</time>
      </trkpt>
      <trkpt lat="44.52322" lon="6.84316">
        <ele>2683.603</ele>
        <time>2012-09-15T09:05:51Z</time>
      </trkpt>
      <trkpt lat="44.52332" lon="6.84316">
        <ele>2683.712</ele>
        <time>2012-09-15T09:06:00Z</time>
      </trkpt>
      <trkpt lat="44.52339" lon="6.84315">
        <ele>2682.198</ele>
        <time>2012-09-15T09:06:06Z</time>
      </trkpt>
      <trkpt lat="44.52344" lon="6.84314">
        <ele>2683.212</ele>
        <time>2012-09-15T09:06:13Z</time>
      </trkpt>
      <trkpt lat="44.52345" lon="6.84314">
        <ele>2683.181</ele>
        <time>2012-09-15T09:06:15Z</time>
      </trkpt>
      <trkpt lat="44.5235" lon="6.84314">
        <ele>2683.672</ele>
        <time>2012-09-15T09:06:19Z</time>
      </trkpt>
      <trkpt lat="44.52353" lon="6.84314">
        <ele>2683.584</ele>
        <time>2012-09-15T09:06:27Z</time>
      </trkpt>
      <trkpt lat="44.52358" lon="6.84315">
        <ele>2684.021</ele>
        <time>2012-09-15T09:06:38Z</time>
      </trkpt>
      <trkpt lat="44.52365" lon="6.84321">
        <ele>2687.434</ele>
        <time>2012-09-15T09:06:47Z</time>
      </trkpt>
      <trkpt lat="44.5237" lon="6.84324">
        <ele>2690.744</ele>
        <time>2012-09-15T09:06:54Z</time>
      </trkpt>
      <trkpt lat="44.52372" lon="6.84324">
        <ele>2690.85</ele>
        <time>2012-09-15T09:07:25Z</time>
      </trkpt>
      <trkpt lat="44.52382" lon="6.84324">
        <ele>2690.901</ele>
        <time>2012-09-15T09:07:31Z</time>
      </trkpt>
      <trkpt lat="44.52394" lon="6.84321">
        <ele>2691.907</ele>
        <time>2012-09-15T09:07:37Z</time>
      </trkpt>
      <trkpt lat="44.52397" lon="6.84324">
        <ele>2693.494</ele>
        <time>2012-09-15T09:07:42Z</time>
      </trkpt>
      <trkpt lat="44.52397" lon="6.84327">
        <ele>2703.322</ele>
        <time>2012-09-15T09:08:08Z</time>
      </trkpt>
      <trkpt lat="44.52398" lon="6.84328">
        <ele>2702.477</ele>
        <time>2012-09-15T09:08:10Z</time>
      </trkpt>
      <trkpt lat="44.524" lon="6.8433">
        <ele>2701.613</ele>
        <time>2012-09-15T09:08:14Z</time>
      </trkpt>
      <trkpt lat="44.52406" lon="6.84336">
        <ele>2701.49</ele>
        <time>2012-09-15T09:08:21Z</time>
      </trkpt>
      <trkpt lat="44.52406" lon="6.84336">
        <ele>2701.28</ele>
        <time>2012-09-15T09:08:22Z</time>
      </trkpt>
      <trkpt lat="44.52407" lon="6.84342">
        <ele>2700.099</ele>
        <time>2012-09-15T09:08:29Z</time>
      </trkpt>
      <trkpt lat="44.52408" lon="6.84344">
        <ele>2699.407</ele>
        <time>2012-09-15T09:08:35Z</time>
      </trkpt>
      <trkpt lat="44.52411" lon="6.84345">
        <ele>2699.399</ele>
        <time>2012-09-15T09:08:42Z</time>
      </trkpt>
      <trkpt lat="44.52412" lon="6.84346">
        <ele>2697.758</ele>
        <time>2012-09-15T09:08:53Z</time>
      </trkpt>
      <trkpt lat="44.52413" lon="6.84348">
        <ele>2696.927</ele>
        <time>2012-09-15T09:08:57Z</time>
      </trkpt>
      <trkpt lat="44.52415" lon="6.84353">
        <ele>2696.428</ele>
        <time>2012-09-15T09:09:02Z</time>
      </trkpt>
      <trkpt lat="44.52416" lon="6.84355">
        <ele>2696.445</ele>
        <time>2012-09-15T09:09:04Z</time>
      </trkpt>
      <trkpt lat="44.5242" lon="6.84355">
        <ele>2696.24</ele>
        <time>2012-09-15T09:09:08Z</time>
      </trkpt>
      <trkpt lat="44.52423" lon="6.84361">
        <ele>2696.632</ele>
        <time>2012-09-15T09:09:14Z</time>
      </trkpt>
      <trkpt lat="44.52427" lon="6.84363">
        <ele>2700.103</ele>
        <time>2012-09-15T09:09:21Z</time>
      </trkpt>
      <trkpt lat="44.52429" lon="6.84365">
        <ele>2702.385</ele>
        <time>2012-09-15T09:09:28Z</time>
      </trkpt>
      <trkpt lat="44.52432" lon="6.84368">
        <ele>2706.658</ele>
        <time>2012-09-15T09:09:34Z</time>
      </trkpt>
      <trkpt lat="44.52435" lon="6.84371">
        <ele>2706.644</ele>
        <time>2012-09-15T09:09:40Z</time>
      </trkpt>
      <trkpt lat="44.52437" lon="6.84376">
        <ele>2706.283</ele>
        <time>2012-09-15T09:09:45Z</time>
      </trkpt>
      <trkpt lat="44.52441" lon="6.84374">
        <ele>2705.563</ele>
        <time>2012-09-15T09:09:52Z</time>
      </trkpt>
      <trkpt lat="44.52443" lon="6.84376">
        <ele>2705.502</ele>
        <time>2012-09-15T09:09:56Z</time>
      </trkpt>
      <trkpt lat="44.52445" lon="6.8438">
        <ele>2705.883</ele>
        <time>2012-09-15T09:10:01Z</time>
      </trkpt>
      <trkpt lat="44.5245" lon="6.84378">
        <ele>2706.235</ele>
        <time>2012-09-15T09:10:09Z</time>
      </trkpt>
      <trkpt lat="44.52452" lon="6.84372">
        <ele>2706.002</ele>
        <time>2012-09-15T09:10:19Z</time>
      </trkpt>
      <trkpt lat="44.52454" lon="6.84375">
        <ele>2706.146</ele>
        <time>2012-09-15T09:10:26Z</time>
      </trkpt>
      <trkpt lat="44.52456" lon="6.84376">
        <ele>2706.423</ele>
        <time>2012-09-15T09:10:30Z</time>
      </trkpt>
      <trkpt lat="44.52458" lon="6.8437">
        <ele>2707.233</ele>
        <time>2012-09-15T09:10:37Z</time>
      </trkpt>
      <trkpt lat="44.52462" lon="6.84373">
        <ele>2708.844</ele>
        <time>2012-09-15T09:10:47Z</time>
      </trkpt>
      <trkpt lat="44.52466" lon="6.8437">
        <ele>2710.407</ele>
        <time>2012-09-15T09:10:57Z</time>
      </trkpt>
      <trkpt lat="44.52468" lon="6.84367">
        <ele>2710.993</ele>
        <time>2012-09-15T09:11:05Z</time>
      </trkpt>
      <trkpt lat="44.52472" lon="6.84361">
        <ele>2712.153</ele>
        <time>2012-09-15T09:11:15Z</time>
      </trkpt>
      <trkpt lat="44.52474" lon="6.84358">
        <ele>2712.963</ele>
        <time>2012-09-15T09:11:22Z</time>
      </trkpt>
      <trkpt lat="44.52477" lon="6.84354">
        <ele>2714.633</ele>
        <time>2012-09-15T09:11:31Z</time>
      </trkpt>
      <trkpt lat="44.5248" lon="6.84356">
        <ele>2717.697</ele>
        <time>2012-09-15T09:11:37Z</time>
      </trkpt>
      <trkpt lat="44.52483" lon="6.84359">
        <ele>2719.876</ele>
        <time>2012-09-15T09:11:45Z</time>
      </trkpt>
      <trkpt lat="44.52485" lon="6.84357">
        <ele>2720.294</ele>
        <time>2012-09-15T09:11:51Z</time>
      </trkpt>
      <trkpt lat="44.52488" lon="6.84358">
        <ele>2721.014</ele>
        <time>2012-09-15T09:11:57Z</time>
      </trkpt>
      <trkpt lat="44.5249" lon="6.84358">
        <ele>2721.614</ele>
        <time>2012-09-15T09:12:02Z</time>
      </trkpt>
      <trkpt lat="44.52493" lon="6.84361">
        <ele>2722.834</ele>
        <time>2012-09-15T09:12:09Z</time>
      </trkpt>
      <trkpt lat="44.52495" lon="6.84358">
        <ele>2723.724</ele>
        <time>2012-09-15T09:12:16Z</time>
      </trkpt>
      <trkpt lat="44.52498" lon="6.84353">
        <ele>2724.523</ele>
        <time>2012-09-15T09:12:25Z</time>
      </trkpt>
      <trkpt lat="44.52504" lon="6.84351">
        <ele>2725.833</ele>
        <time>2012-09-15T09:12:35Z</time>
      </trkpt>
      <trkpt lat="44.52507" lon="6.84349">
        <ele>2726.904</ele>
        <time>2012-09-15T09:12:43Z</time>
      </trkpt>
      <trkpt lat="44.52509" lon="6.84347">
        <ele>2728.455</ele>
        <time>2012-09-15T09:12:49Z</time>
      </trkpt>
      <trkpt lat="44.52512" lon="6.84347">
        <ele>2733.417</ele>
        <time>2012-09-15T09:12:57Z</time>
      </trkpt>
      <trkpt lat="44.52515" lon="6.84345">
        <ele>2734.855</ele>
        <time>2012-09-15T09:13:04Z</time>
      </trkpt>
      <trkpt lat="44.52516" lon="6.84339">
        <ele>2735.215</ele>
        <time>2012-09-15T09:13:11Z</time>
      </trkpt>
      <trkpt lat="44.52519" lon="6.84341">
        <ele>2736.174</ele>
        <time>2012-09-15T09:13:17Z</time>
      </trkpt>
      <trkpt lat="44.52523" lon="6.84343">
        <ele>2736.051</ele>
        <time>2012-09-15T09:13:23Z</time>
      </trkpt>
      <trkpt lat="44.52526" lon="6.84347">
        <ele>2736.233</ele>
        <time>2012-09-15T09:13:31Z</time>
      </trkpt>
      <trkpt lat="44.52528" lon="6.84347">
        <ele>2737.173</ele>
        <time>2012-09-15T09:13:37Z</time>
      </trkpt>
      <trkpt lat="44.52531" lon="6.84351">
        <ele>2737.593</ele>
        <time>2012-09-15T09:13:45Z</time>
      </trkpt>
      <trkpt lat="44.52533" lon="6.8435">
        <ele>2737.824</ele>
        <time>2012-09-15T09:13:51Z</time>
      </trkpt>
      <trkpt lat="44.52537" lon="6.84355">
        <ele>2741.808</ele>
        <time>2012-09-15T09:14:00Z</time>
      </trkpt>
      <trkpt lat="44.52538" lon="6.84357">
        <ele>2743.73</ele>
        <time>2012-09-15T09:14:03Z</time>
      </trkpt>
      <trkpt lat="44.52543" lon="6.84357">
        <ele>2747.249</ele>
        <time>2012-09-15T09:14:11Z</time>
      </trkpt>
      <trkpt lat="44.52548" lon="6.84357">
        <ele>2748.904</ele>
        <time>2012-09-15T09:14:19Z</time>
      </trkpt>
      <trkpt lat="44.52551" lon="6.84357">
        <ele>2750.176</ele>
        <time>2012-09-15T09:14:32Z</time>
      </trkpt>
      <trkpt lat="44.52558" lon="6.84359">
        <ele>2752.154</ele>
        <time>2012-09-15T09:14:41Z</time>
      </trkpt>
      <trkpt lat="44.52561" lon="6.8436">
        <ele>2756.29</ele>
        <time>2012-09-15T09:14:48Z</time>
      </trkpt>
      <trkpt lat="44.52562" lon="6.84362">
        <ele>2758.258</ele>
        <time>2012-09-15T09:14:53Z</time>
      </trkpt>
      <trkpt lat="44.52565" lon="6.84364">
        <ele>2761.085</ele>
        <time>2012-09-15T09:15:01Z</time>
      </trkpt>
      <trkpt lat="44.52569" lon="6.84366">
        <ele>2763.778</ele>
        <time>2012-09-15T09:15:06Z</time>
      </trkpt>
      <trkpt lat="44.5258" lon="6.84366">
        <ele>2765.216</ele>
        <time>2012-09-15T09:15:16Z</time>
      </trkpt>
      <trkpt lat="44.52585" lon="6.84365">
        <ele>2764.655</ele>
        <time>2012-09-15T09:15:20Z</time>
      </trkpt>
      <trkpt lat="44.52588" lon="6.84359">
        <ele>2764.835</ele>
        <time>2012-09-15T09:15:27Z</time>
      </trkpt>
      <trkpt lat="44.5259" lon="6.84355">
        <ele>2766.024</ele>
        <time>2012-09-15T09:15:36Z</time>
      </trkpt>
      <trkpt lat="44.52595" lon="6.8436">
        <ele>2755.282</ele>
        <time>2012-09-15T09:30:29Z</time>
      </trkpt>
      <trkpt lat="44.52597" lon="6.84369">
        <ele>2754.756</ele>
        <time>2012-09-15T09:30:33Z</time>
      </trkpt>
      <trkpt lat="44.52606" lon="6.84379">
        <ele>2752.225</ele>
        <time>2012-09-15T09:30:39Z</time>
      </trkpt>
      <trkpt lat="44.52606" lon="6.8438">
        <ele>2750.857</ele>
        <time>2012-09-15T09:30:44Z</time>
      </trkpt>
      <trkpt lat="44.52607" lon="6.84381">
        <ele>2751.742</ele>
        <time>2012-09-15T09:30:54Z</time>
      </trkpt>
      <trkpt lat="44.52612" lon="6.84396">
        <ele>2749.185</ele>
        <time>2012-09-15T09:31:00Z</time>
      </trkpt>
      <trkpt lat="44.52615" lon="6.84399">
        <ele>2748.784</ele>
        <time>2012-09-15T09:31:01Z</time>
      </trkpt>
      <trkpt lat="44.52627" lon="6.84408">
        <ele>2744.066</ele>
        <time>2012-09-15T09:31:07Z</time>
      </trkpt>
      <trkpt lat="44.52628" lon="6.84411">
        <ele>2743.466</ele>
        <time>2012-09-15T09:31:08Z</time>
      </trkpt>
      <trkpt lat="44.52638" lon="6.84413">
        <ele>2741.296</ele>
        <time>2012-09-15T09:31:12Z</time>
      </trkpt>
      <trkpt lat="44.52641" lon="6.8441">
        <ele>2740.857</ele>
        <time>2012-09-15T09:31:13Z</time>
      </trkpt>
      <trkpt lat="44.52651" lon="6.84407">
        <ele>2740.174</ele>
        <time>2012-09-15T09:31:18Z</time>
      </trkpt>
      <trkpt lat="44.52667" lon="6.8441">
        <ele>2738.893</ele>
        <time>2012-09-15T09:31:22Z</time>
      </trkpt>
      <trkpt lat="44.52679" lon="6.84412">
        <ele>2740.369</ele>
        <time>2012-09-15T09:31:25Z</time>
      </trkpt>
      <trkpt lat="44.5269" lon="6.84402">
        <ele>2742.575</ele>
        <time>2012-09-15T09:31:31Z</time>
      </trkpt>
      <trkpt lat="44.52702" lon="6.84398">
        <ele>2745.087</ele>
        <time>2012-09-15T09:31:37Z</time>
      </trkpt>
      <trkpt lat="44.5272" lon="6.84397">
        <ele>2746.146</ele>
        <time>2012-09-15T09:31:44Z</time>
      </trkpt>
      <trkpt lat="44.52727" lon="6.84398">
        <ele>2747.428</ele>
        <time>2012-09-15T09:31:48Z</time>
      </trkpt>
      <trkpt lat="44.5273" lon="6.84398">
        <ele>2747.787</ele>
        <time>2012-09-15T09:31:50Z</time>
      </trkpt>
      <trkpt lat="44.52739" lon="6.84399">
        <ele>2750.269</ele>
        <time>2012-09-15T09:31:56Z</time>
      </trkpt>
      <trkpt lat="44.52746" lon="6.84402">
        <ele>2749.917</ele>
        <time>2012-09-15T09:32:01Z</time>
      </trkpt>
      <trkpt lat="44.52748" lon="6.84401">
        <ele>2752.466</ele>
        <time>2012-09-15T09:32:08Z</time>
      </trkpt>
      <trkpt lat="44.52751" lon="6.84402">
        <ele>2747.992</ele>
        <time>2012-09-15T09:33:23Z</time>
      </trkpt>
      <trkpt lat="44.52754" lon="6.84404">
        <ele>2748.001</ele>
        <time>2012-09-15T09:33:25Z</time>
      </trkpt>
      <trkpt lat="44.52763" lon="6.84403">
        <ele>2747.38</ele>
        <time>2012-09-15T09:33:31Z</time>
      </trkpt>
      <trkpt lat="44.52774" lon="6.84407">
        <ele>2748.154</ele>
        <time>2012-09-15T09:33:37Z</time>
      </trkpt>
      <trkpt lat="44.52784" lon="6.84411">
        <ele>2749.384</ele>
        <time>2012-09-15T09:33:44Z</time>
      </trkpt>
      <trkpt lat="44.52797" lon="6.84414">
        <ele>2754.217</ele>
        <time>2012-09-15T09:33:53Z</time>
      </trkpt>
      <trkpt lat="44.52807" lon="6.8441">
        <ele>2756.926</ele>
        <time>2012-09-15T09:34:00Z</time>
      </trkpt>
      <trkpt lat="44.52818" lon="6.84402">
        <ele>2759.425</ele>
        <time>2012-09-15T09:34:09Z</time>
      </trkpt>
      <trkpt lat="44.52827" lon="6.84403">
        <ele>2760.105</ele>
        <time>2012-09-15T09:34:16Z</time>
      </trkpt>
      <trkpt lat="44.52838" lon="6.84403">
        <ele>2760.295</ele>
        <time>2012-09-15T09:34:25Z</time>
      </trkpt>
      <trkpt lat="44.52844" lon="6.84403">
        <ele>2760.725</ele>
        <time>2012-09-15T09:34:31Z</time>
      </trkpt>
      <trkpt lat="44.52845" lon="6.84403">
        <ele>2760.763</ele>
        <time>2012-09-15T09:34:38Z</time>
      </trkpt>
      <trkpt lat="44.52844" lon="6.84402">
        <ele>2759.612</ele>
        <time>2012-09-15T09:34:41Z</time>
      </trkpt>
      <trkpt lat="44.52851" lon="6.844">
        <ele>2761.135</ele>
        <time>2012-09-15T09:34:50Z</time>
      </trkpt>
      <trkpt lat="44.52851" lon="6.84399">
        <ele>2761.342</ele>
        <time>2012-09-15T09:34:57Z</time>
      </trkpt>
      <trkpt lat="44.5285" lon="6.84406">
        <ele>2767.234</ele>
        <time>2012-09-15T09:35:25Z</time>
      </trkpt>
      <trkpt lat="44.52855" lon="6.84402">
        <ele>2767.164</ele>
        <time>2012-09-15T09:35:31Z</time>
      </trkpt>
      <trkpt lat="44.52865" lon="6.84401">
        <ele>2767.392</ele>
        <time>2012-09-15T09:35:40Z</time>
      </trkpt>
      <trkpt lat="44.52876" lon="6.84403">
        <ele>2768.908</ele>
        <time>2012-09-15T09:35:50Z</time>
      </trkpt>
      <trkpt lat="44.52883" lon="6.84409">
        <ele>2772.828</ele>
        <time>2012-09-15T09:35:59Z</time>
      </trkpt>
      <trkpt lat="44.52892" lon="6.8441">
        <ele>2773.885</ele>
        <time>2012-09-15T09:36:07Z</time>
      </trkpt>
      <trkpt lat="44.52904" lon="6.84411">
        <ele>2772.512</ele>
        <time>2012-09-15T09:36:18Z</time>
      </trkpt>
      <trkpt lat="44.52905" lon="6.8441">
        <ele>2771.492</ele>
        <time>2012-09-15T09:36:25Z</time>
      </trkpt>
      <trkpt lat="44.52907" lon="6.8441">
        <ele>2765.49</ele>
        <time>2012-09-15T09:37:42Z</time>
      </trkpt>
      <trkpt lat="44.52909" lon="6.84418">
        <ele>2766.141</ele>
        <time>2012-09-15T09:37:47Z</time>
      </trkpt>
      <trkpt lat="44.52912" lon="6.84426">
        <ele>2768.154</ele>
        <time>2012-09-15T09:37:55Z</time>
      </trkpt>
      <trkpt lat="44.52912" lon="6.84427">
        <ele>2770.074</ele>
        <time>2012-09-15T09:38:03Z</time>
      </trkpt>
      <trkpt lat="44.52913" lon="6.8443">
        <ele>2770.885</ele>
        <time>2012-09-15T09:38:06Z</time>
      </trkpt>
      <trkpt lat="44.52915" lon="6.84438">
        <ele>2769.824</ele>
        <time>2012-09-15T09:38:13Z</time>
      </trkpt>
      <trkpt lat="44.52925" lon="6.84444">
        <ele>2775.018</ele>
        <time>2012-09-15T09:38:24Z</time>
      </trkpt>
      <trkpt lat="44.52926" lon="6.84449">
        <ele>2777.498</ele>
        <time>2012-09-15T09:38:32Z</time>
      </trkpt>
      <trkpt lat="44.52927" lon="6.84454">
        <ele>2780.619</ele>
        <time>2012-09-15T09:38:39Z</time>
      </trkpt>
      <trkpt lat="44.52929" lon="6.84461">
        <ele>2785.578</ele>
        <time>2012-09-15T09:38:48Z</time>
      </trkpt>
      <trkpt lat="44.52931" lon="6.84461">
        <ele>2782.203</ele>
        <time>2012-09-15T09:39:22Z</time>
      </trkpt>
      <trkpt lat="44.52936" lon="6.8447">
        <ele>2782.312</ele>
        <time>2012-09-15T09:39:28Z</time>
      </trkpt>
      <trkpt lat="44.5294" lon="6.84476">
        <ele>2782.1</ele>
        <time>2012-09-15T09:39:30Z</time>
      </trkpt>
      <trkpt lat="44.52955" lon="6.84496">
        <ele>2781.325</ele>
        <time>2012-09-15T09:39:36Z</time>
      </trkpt>
      <trkpt lat="44.5297" lon="6.84509">
        <ele>2781.045</ele>
        <time>2012-09-15T09:39:40Z</time>
      </trkpt>
      <trkpt lat="44.52986" lon="6.84521">
        <ele>2780.999</ele>
        <time>2012-09-15T09:39:44Z</time>
      </trkpt>
      <trkpt lat="44.52998" lon="6.84531">
        <ele>2780.198</ele>
        <time>2012-09-15T09:39:49Z</time>
      </trkpt>
      <trkpt lat="44.53011" lon="6.84537">
        <ele>2781.764</ele>
        <time>2012-09-15T09:39:54Z</time>
      </trkpt>
      <trkpt lat="44.53022" lon="6.84546">
        <ele>2784.678</ele>
        <time>2012-09-15T09:40:00Z</time>
      </trkpt>
      <trkpt lat="44.53026" lon="6.84548">
        <ele>2784.967</ele>
        <time>2012-09-15T09:40:02Z</time>
      </trkpt>
      <trkpt lat="44.53036" lon="6.8456">
        <ele>2785.325</ele>
        <time>2012-09-15T09:40:10Z</time>
      </trkpt>
      <trkpt lat="44.53039" lon="6.84573">
        <ele>2785.485</ele>
        <time>2012-09-15T09:40:16Z</time>
      </trkpt>
      <trkpt lat="44.53048" lon="6.84583">
        <ele>2788.378</ele>
        <time>2012-09-15T09:40:23Z</time>
      </trkpt>
      <trkpt lat="44.53048" lon="6.84586">
        <ele>2789.255</ele>
        <time>2012-09-15T09:40:30Z</time>
      </trkpt>
      <trkpt lat="44.53046" lon="6.84588">
        <ele>2788.855</ele>
        <time>2012-09-15T09:40:51Z</time>
      </trkpt>
      <trkpt lat="44.53047" lon="6.84599">
        <ele>2788.346</ele>
        <time>2012-09-15T09:41:00Z</time>
      </trkpt>
      <trkpt lat="44.53048" lon="6.84604">
        <ele>2789.046</ele>
        <time>2012-09-15T09:41:07Z</time>
      </trkpt>
      <trkpt lat="44.53049" lon="6.84606">
        <ele>2789.716</ele>
        <time>2012-09-15T09:41:13Z</time>
      </trkpt>
      <trkpt lat="44.53053" lon="6.8461">
        <ele>2791.127</ele>
        <time>2012-09-15T09:41:20Z</time>
      </trkpt>
      <trkpt lat="44.53058" lon="6.84614">
        <ele>2792.336</ele>
        <time>2012-09-15T09:41:28Z</time>
      </trkpt>
      <trkpt lat="44.53062" lon="6.84621">
        <ele>2793.234</ele>
        <time>2012-09-15T09:41:34Z</time>
      </trkpt>
      <trkpt lat="44.53066" lon="6.84623">
        <ele>2793.305</ele>
        <time>2012-09-15T09:41:39Z</time>
      </trkpt>
      <trkpt lat="44.53072" lon="6.84625">
        <ele>2793.213</ele>
        <time>2012-09-15T09:41:46Z</time>
      </trkpt>
      <trkpt lat="44.53075" lon="6.84626">
        <ele>2793.282</ele>
        <time>2012-09-15T09:41:50Z</time>
      </trkpt>
      <trkpt lat="44.53076" lon="6.84634">
        <ele>2794.085</ele>
        <time>2012-09-15T09:41:57Z</time>
      </trkpt>
      <trkpt lat="44.53079" lon="6.84636">
        <ele>2793.281</ele>
        <time>2012-09-15T09:42:04Z</time>
      </trkpt>
      <trkpt lat="44.53084" lon="6.84644">
        <ele>2792.532</ele>
        <time>2012-09-15T09:42:11Z</time>
      </trkpt>
      <trkpt lat="44.53084" lon="6.84645">
        <ele>2792.512</ele>
        <time>2012-09-15T09:42:12Z</time>
      </trkpt>
      <trkpt lat="44.53088" lon="6.84651">
        <ele>2793.936</ele>
        <time>2012-09-15T09:42:21Z</time>
      </trkpt>
      <trkpt lat="44.53091" lon="6.84657">
        <ele>2795.508</ele>
        <time>2012-09-15T09:42:27Z</time>
      </trkpt>
      <trkpt lat="44.53092" lon="6.84663">
        <ele>2797.09</ele>
        <time>2012-09-15T09:42:32Z</time>
      </trkpt>
      <trkpt lat="44.53098" lon="6.8467">
        <ele>2798.987</ele>
        <time>2012-09-15T09:42:40Z</time>
      </trkpt>
      <trkpt lat="44.531" lon="6.84672">
        <ele>2798.545</ele>
        <time>2012-09-15T09:42:43Z</time>
      </trkpt>
      <trkpt lat="44.53102" lon="6.84679">
        <ele>2797.875</ele>
        <time>2012-09-15T09:42:51Z</time>
      </trkpt>
      <trkpt lat="44.53106" lon="6.84688">
        <ele>2799.466</ele>
        <time>2012-09-15T09:43:00Z</time>
      </trkpt>
      <trkpt lat="44.53107" lon="6.84693">
        <ele>2800.396</ele>
        <time>2012-09-15T09:43:08Z</time>
      </trkpt>
      <trkpt lat="44.53108" lon="6.84695">
        <ele>2799.903</ele>
        <time>2012-09-15T09:43:14Z</time>
      </trkpt>
      <trkpt lat="44.53108" lon="6.847">
        <ele>2799.166</ele>
        <time>2012-09-15T09:43:24Z</time>
      </trkpt>
      <trkpt lat="44.53109" lon="6.84703">
        <ele>2799.016</ele>
        <time>2012-09-15T09:43:27Z</time>
      </trkpt>
      <trkpt lat="44.53112" lon="6.84705">
        <ele>2798.836</ele>
        <time>2012-09-15T09:43:32Z</time>
      </trkpt>
      <trkpt lat="44.53119" lon="6.84711">
        <ele>2800.536</ele>
        <time>2012-09-15T09:43:39Z</time>
      </trkpt>
      <trkpt lat="44.53122" lon="6.84714">
        <ele>2801.916</ele>
        <time>2012-09-15T09:43:45Z</time>
      </trkpt>
      <trkpt lat="44.53125" lon="6.84717">
        <ele>2803.616</ele>
        <time>2012-09-15T09:43:53Z</time>
      </trkpt>
      <trkpt lat="44.53126" lon="6.84722">
        <ele>2804.967</ele>
        <time>2012-09-15T09:44:01Z</time>
      </trkpt>
      <trkpt lat="44.53128" lon="6.84724">
        <ele>2806.328</ele>
        <time>2012-09-15T09:44:07Z</time>
      </trkpt>
      <trkpt lat="44.53129" lon="6.84727">
        <ele>2807.157</ele>
        <time>2012-09-15T09:44:12Z</time>
      </trkpt>
      <trkpt lat="44.53129" lon="6.84728">
        <ele>2807.337</ele>
        <time>2012-09-15T09:44:13Z</time>
      </trkpt>
      <trkpt lat="44.53131" lon="6.8473">
        <ele>2807.998</ele>
        <time>2012-09-15T09:44:16Z</time>
      </trkpt>
      <trkpt lat="44.53141" lon="6.84733">
        <ele>2809.206</ele>
        <time>2012-09-15T09:44:26Z</time>
      </trkpt>
      <trkpt lat="44.53147" lon="6.84733">
        <ele>2809.463</ele>
        <time>2012-09-15T09:44:33Z</time>
      </trkpt>
      <trkpt lat="44.53152" lon="6.84735">
        <ele>2809.301</ele>
        <time>2012-09-15T09:44:40Z</time>
      </trkpt>
      <trkpt lat="44.53152" lon="6.84733">
        <ele>2809.922</ele>
        <time>2012-09-15T09:44:52Z</time>
      </trkpt>
      <trkpt lat="44.53163" lon="6.84736">
        <ele>2810.677</ele>
        <time>2012-09-15T09:45:11Z</time>
      </trkpt>
      <trkpt lat="44.53166" lon="6.84736">
        <ele>2810.981</ele>
        <time>2012-09-15T09:45:12Z</time>
      </trkpt>
      <trkpt lat="44.53178" lon="6.84744">
        <ele>2810.289</ele>
        <time>2012-09-15T09:45:20Z</time>
      </trkpt>
      <trkpt lat="44.53182" lon="6.84751">
        <ele>2808.407</ele>
        <time>2012-09-15T09:45:25Z</time>
      </trkpt>
      <trkpt lat="44.53182" lon="6.84753">
        <ele>2808.671</ele>
        <time>2012-09-15T09:45:30Z</time>
      </trkpt>
      <trkpt lat="44.53186" lon="6.8476">
        <ele>2808.131</ele>
        <time>2012-09-15T09:45:35Z</time>
      </trkpt>
      <trkpt lat="44.5319" lon="6.84764">
        <ele>2806.751</ele>
        <time>2012-09-15T09:45:42Z</time>
      </trkpt>
      <trkpt lat="44.53194" lon="6.84767">
        <ele>2808.759</ele>
        <time>2012-09-15T09:45:49Z</time>
      </trkpt>
      <trkpt lat="44.53194" lon="6.84768">
        <ele>2808.958</ele>
        <time>2012-09-15T09:45:50Z</time>
      </trkpt>
      <trkpt lat="44.53199" lon="6.84768">
        <ele>2811.117</ele>
        <time>2012-09-15T09:45:56Z</time>
      </trkpt>
      <trkpt lat="44.53206" lon="6.84775">
        <ele>2810.441</ele>
        <time>2012-09-15T09:46:05Z</time>
      </trkpt>
      <trkpt lat="44.53208" lon="6.84774">
        <ele>2809.91</ele>
        <time>2012-09-15T09:46:07Z</time>
      </trkpt>
      <trkpt lat="44.53211" lon="6.84777">
        <ele>2809.923</ele>
        <time>2012-09-15T09:46:11Z</time>
      </trkpt>
      <trkpt lat="44.53217" lon="6.84781">
        <ele>2810.835</ele>
        <time>2012-09-15T09:46:19Z</time>
      </trkpt>
      <trkpt lat="44.5322" lon="6.84783">
        <ele>2811.326</ele>
        <time>2012-09-15T09:46:25Z</time>
      </trkpt>
      <trkpt lat="44.53228" lon="6.84784">
        <ele>2814.094</ele>
        <time>2012-09-15T09:46:33Z</time>
      </trkpt>
      <trkpt lat="44.53229" lon="6.84784">
        <ele>2814.174</ele>
        <time>2012-09-15T09:46:34Z</time>
      </trkpt>
      <trkpt lat="44.53236" lon="6.84786">
        <ele>2816.366</ele>
        <time>2012-09-15T09:46:42Z</time>
      </trkpt>
      <trkpt lat="44.53239" lon="6.84785">
        <ele>2815.923</ele>
        <time>2012-09-15T09:46:46Z</time>
      </trkpt>
      <trkpt lat="44.53244" lon="6.84781">
        <ele>2814.031</ele>
        <time>2012-09-15T09:46:52Z</time>
      </trkpt>
      <trkpt lat="44.53251" lon="6.84782">
        <ele>2813.423</ele>
        <time>2012-09-15T09:47:00Z</time>
      </trkpt>
      <trkpt lat="44.53256" lon="6.84781">
        <ele>2813.304</ele>
        <time>2012-09-15T09:47:06Z</time>
      </trkpt>
      <trkpt lat="44.53261" lon="6.84782">
        <ele>2813.573</ele>
        <time>2012-09-15T09:47:13Z</time>
      </trkpt>
      <trkpt lat="44.53264" lon="6.84781">
        <ele>2813.601</ele>
        <time>2012-09-15T09:47:17Z</time>
      </trkpt>
      <trkpt lat="44.53264" lon="6.84785">
        <ele>2811.25</ele>
        <time>2012-09-15T09:47:23Z</time>
      </trkpt>
      <trkpt lat="44.53265" lon="6.84786">
        <ele>2810.579</ele>
        <time>2012-09-15T09:47:25Z</time>
      </trkpt>
      <trkpt lat="44.53271" lon="6.84788">
        <ele>2811.133</ele>
        <time>2012-09-15T09:47:32Z</time>
      </trkpt>
      <trkpt lat="44.53274" lon="6.84785">
        <ele>2811.802</ele>
        <time>2012-09-15T09:47:38Z</time>
      </trkpt>
      <trkpt lat="44.5328" lon="6.84779">
        <ele>2810.321</ele>
        <time>2012-09-15T09:47:47Z</time>
      </trkpt>
      <trkpt lat="44.53273" lon="6.84783">
        <ele>2808.522</ele>
        <time>2012-09-15T09:48:33Z</time>
      </trkpt>
      <trkpt lat="44.53281" lon="6.84782">
        <ele>2808.448</ele>
        <time>2012-09-15T09:48:40Z</time>
      </trkpt>
      <trkpt lat="44.53287" lon="6.84782">
        <ele>2807.448</ele>
        <time>2012-09-15T09:48:47Z</time>
      </trkpt>
      <trkpt lat="44.53298" lon="6.84781">
        <ele>2803.829</ele>
        <time>2012-09-15T09:48:53Z</time>
      </trkpt>
      <trkpt lat="44.53307" lon="6.84781">
        <ele>2800.616</ele>
        <time>2012-09-15T09:48:59Z</time>
      </trkpt>
      <trkpt lat="44.53317" lon="6.84781">
        <ele>2798.654</ele>
        <time>2012-09-15T09:49:04Z</time>
      </trkpt>
      <trkpt lat="44.53321" lon="6.8478">
        <ele>2797.703</ele>
        <time>2012-09-15T09:49:06Z</time>
      </trkpt>
      <trkpt lat="44.5333" lon="6.84782">
        <ele>2795.092</ele>
        <time>2012-09-15T09:49:11Z</time>
      </trkpt>
      <trkpt lat="44.53346" lon="6.84783">
        <ele>2790.278</ele>
        <time>2012-09-15T09:49:19Z</time>
      </trkpt>
      <trkpt lat="44.53356" lon="6.84782">
        <ele>2787.912</ele>
        <time>2012-09-15T09:49:23Z</time>
      </trkpt>
      <trkpt lat="44.53357" lon="6.84778">
        <ele>2787.148</ele>
        <time>2012-09-15T09:49:27Z</time>
      </trkpt>
      <trkpt lat="44.53356" lon="6.84778">
        <ele>2786.79</ele>
        <time>2012-09-15T09:49:29Z</time>
      </trkpt>
      <trkpt lat="44.53354" lon="6.84772">
        <ele>2785.862</ele>
        <time>2012-09-15T09:49:35Z</time>
      </trkpt>
      <trkpt lat="44.53356" lon="6.84761">
        <ele>2785.584</ele>
        <time>2012-09-15T09:49:40Z</time>
      </trkpt>
      <trkpt lat="44.53362" lon="6.84744">
        <ele>2784.092</ele>
        <time>2012-09-15T09:49:46Z</time>
      </trkpt>
      <trkpt lat="44.53361" lon="6.84729">
        <ele>2784.544</ele>
        <time>2012-09-15T09:49:52Z</time>
      </trkpt>
      <trkpt lat="44.53359" lon="6.84726">
        <ele>2784.992</ele>
        <time>2012-09-15T09:49:57Z</time>
      </trkpt>
      <trkpt lat="44.5336" lon="6.84725">
        <ele>2785.515</ele>
        <time>2012-09-15T09:49:59Z</time>
      </trkpt>
      <trkpt lat="44.53366" lon="6.84727">
        <ele>2786.147</ele>
        <time>2012-09-15T09:50:04Z</time>
      </trkpt>
      <trkpt lat="44.53369" lon="6.84725">
        <ele>2787.448</ele>
        <time>2012-09-15T09:50:09Z</time>
      </trkpt>
      <trkpt lat="44.53371" lon="6.84723">
        <ele>2786.522</ele>
        <time>2012-09-15T09:50:17Z</time>
      </trkpt>
      <trkpt lat="44.53369" lon="6.84725">
        <ele>2784.733</ele>
        <time>2012-09-15T09:54:05Z</time>
      </trkpt>
      <trkpt lat="44.5337" lon="6.84725">
        <ele>2784.753</ele>
        <time>2012-09-15T09:54:10Z</time>
      </trkpt>
      <trkpt lat="44.53372" lon="6.8472">
        <ele>2785.885</ele>
        <time>2012-09-15T09:54:16Z</time>
      </trkpt>
      <trkpt lat="44.5337" lon="6.84714">
        <ele>2786.915</ele>
        <time>2012-09-15T09:54:22Z</time>
      </trkpt>
      <trkpt lat="44.53369" lon="6.84706">
        <ele>2789.337</ele>
        <time>2012-09-15T09:54:30Z</time>
      </trkpt>
      <trkpt lat="44.53367" lon="6.84703">
        <ele>2789.244</ele>
        <time>2012-09-15T09:54:35Z</time>
      </trkpt>
      <trkpt lat="44.53365" lon="6.84702">
        <ele>2790.663</ele>
        <time>2012-09-15T09:55:00Z</time>
      </trkpt>
      <trkpt lat="44.53365" lon="6.847">
        <ele>2789.991</ele>
        <time>2012-09-15T09:55:02Z</time>
      </trkpt>
      <trkpt lat="44.53354" lon="6.84687">
        <ele>2789.642</ele>
        <time>2012-09-15T09:55:09Z</time>
      </trkpt>
      <trkpt lat="44.53344" lon="6.84667">
        <ele>2788.209</ele>
        <time>2012-09-15T09:55:15Z</time>
      </trkpt>
      <trkpt lat="44.53337" lon="6.84657">
        <ele>2786.655</ele>
        <time>2012-09-15T09:55:20Z</time>
      </trkpt>
      <trkpt lat="44.53335" lon="6.84639">
        <ele>2786.228</ele>
        <time>2012-09-15T09:55:24Z</time>
      </trkpt>
      <trkpt lat="44.53334" lon="6.84624">
        <ele>2783.898</ele>
        <time>2012-09-15T09:55:27Z</time>
      </trkpt>
      <trkpt lat="44.53332" lon="6.84606">
        <ele>2780.337</ele>
        <time>2012-09-15T09:55:31Z</time>
      </trkpt>
      <trkpt lat="44.53331" lon="6.84604">
        <ele>2779.325</ele>
        <time>2012-09-15T09:55:32Z</time>
      </trkpt>
      <trkpt lat="44.53331" lon="6.846">
        <ele>2778.008</ele>
        <time>2012-09-15T09:55:37Z</time>
      </trkpt>
      <trkpt lat="44.5333" lon="6.846">
        <ele>2779.715</ele>
        <time>2012-09-15T09:55:46Z</time>
      </trkpt>
      <trkpt lat="44.53329" lon="6.84596">
        <ele>2780.961</ele>
        <time>2012-09-15T09:55:58Z</time>
      </trkpt>
      <trkpt lat="44.53329" lon="6.84592">
        <ele>2781.05</ele>
        <time>2012-09-15T09:56:02Z</time>
      </trkpt>
      <trkpt lat="44.53329" lon="6.84592">
        <ele>2780.99</ele>
        <time>2012-09-15T09:56:03Z</time>
      </trkpt>
      <trkpt lat="44.53327" lon="6.84592">
        <ele>2780.758</ele>
        <time>2012-09-15T09:56:05Z</time>
      </trkpt>
      <trkpt lat="44.53327" lon="6.84589">
        <ele>2779.358</ele>
        <time>2012-09-15T09:56:10Z</time>
      </trkpt>
      <trkpt lat="44.53328" lon="6.84574">
        <ele>2777.978</ele>
        <time>2012-09-15T09:56:14Z</time>
      </trkpt>
      <trkpt lat="44.5332" lon="6.8455">
        <ele>2775.514</ele>
        <time>2012-09-15T09:56:18Z</time>
      </trkpt>
      <trkpt lat="44.53313" lon="6.84532">
        <ele>2773.663</ele>
        <time>2012-09-15T09:56:21Z</time>
      </trkpt>
      <trkpt lat="44.53306" lon="6.84504">
        <ele>2769.833</ele>
        <time>2012-09-15T09:56:28Z</time>
      </trkpt>
      <trkpt lat="44.53304" lon="6.84484">
        <ele>2766.209</ele>
        <time>2012-09-15T09:56:32Z</time>
      </trkpt>
      <trkpt lat="44.53303" lon="6.84473">
        <ele>2764.117</ele>
        <time>2012-09-15T09:56:34Z</time>
      </trkpt>
      <trkpt lat="44.533" lon="6.84441">
        <ele>2759.687</ele>
        <time>2012-09-15T09:56:40Z</time>
      </trkpt>
      <trkpt lat="44.53299" lon="6.84435">
        <ele>2759.169</ele>
        <time>2012-09-15T09:56:41Z</time>
      </trkpt>
      <trkpt lat="44.53304" lon="6.84412">
        <ele>2758.37</ele>
        <time>2012-09-15T09:56:45Z</time>
      </trkpt>
      <trkpt lat="44.53306" lon="6.844">
        <ele>2758.762</ele>
        <time>2012-09-15T09:56:48Z</time>
      </trkpt>
      <trkpt lat="44.53309" lon="6.84387">
        <ele>2757.75</ele>
        <time>2012-09-15T09:56:54Z</time>
      </trkpt>
      <trkpt lat="44.53314" lon="6.84383">
        <ele>2756.465</ele>
        <time>2012-09-15T09:57:54Z</time>
      </trkpt>
      <trkpt lat="44.53316" lon="6.84376">
        <ele>2754.518</ele>
        <time>2012-09-15T09:57:56Z</time>
      </trkpt>
      <trkpt lat="44.53324" lon="6.8436">
        <ele>2751.783</ele>
        <time>2012-09-15T09:58:00Z</time>
      </trkpt>
      <trkpt lat="44.53325" lon="6.84356">
        <ele>2751.324</ele>
        <time>2012-09-15T09:58:01Z</time>
      </trkpt>
      <trkpt lat="44.53338" lon="6.84338">
        <ele>2747.198</ele>
        <time>2012-09-15T09:58:07Z</time>
      </trkpt>
      <trkpt lat="44.53346" lon="6.84321">
        <ele>2742.724</ele>
        <time>2012-09-15T09:58:12Z</time>
      </trkpt>
      <trkpt lat="44.53356" lon="6.84304">
        <ele>2738.376</ele>
        <time>2012-09-15T09:58:17Z</time>
      </trkpt>
      <trkpt lat="44.53363" lon="6.84305">
        <ele>2736.603</ele>
        <time>2012-09-15T09:58:21Z</time>
      </trkpt>
      <trkpt lat="44.53369" lon="6.84311">
        <ele>2735.662</ele>
        <time>2012-09-15T09:58:23Z</time>
      </trkpt>
      <trkpt lat="44.53393" lon="6.84316">
        <ele>2733.833</ele>
        <time>2012-09-15T09:58:29Z</time>
      </trkpt>
      <trkpt lat="44.53396" lon="6.84316">
        <ele>2733.302</ele>
        <time>2012-09-15T09:58:30Z</time>
      </trkpt>
      <trkpt lat="44.53409" lon="6.84299">
        <ele>2731.104</ele>
        <time>2012-09-15T09:58:35Z</time>
      </trkpt>
      <trkpt lat="44.53421" lon="6.84286">
        <ele>2728.576</ele>
        <time>2012-09-15T09:58:39Z</time>
      </trkpt>
      <trkpt lat="44.53425" lon="6.84283">
        <ele>2727.897</ele>
        <time>2012-09-15T09:58:40Z</time>
      </trkpt>
      <trkpt lat="44.53432" lon="6.8426">
        <ele>2723.986</ele>
        <time>2012-09-15T09:58:45Z</time>
      </trkpt>
      <trkpt lat="44.53438" lon="6.84237">
        <ele>2721.833</ele>
        <time>2012-09-15T09:58:50Z</time>
      </trkpt>
      <trkpt lat="44.53441" lon="6.84225">
        <ele>2720.724</ele>
        <time>2012-09-15T09:58:53Z</time>
      </trkpt>
      <trkpt lat="44.53449" lon="6.8421">
        <ele>2720.278</ele>
        <time>2012-09-15T09:58:57Z</time>
      </trkpt>
      <trkpt lat="44.53464" lon="6.842">
        <ele>2719.296</ele>
        <time>2012-09-15T09:59:02Z</time>
      </trkpt>
      <trkpt lat="44.53474" lon="6.84181">
        <ele>2716.349</ele>
        <time>2012-09-15T09:59:07Z</time>
      </trkpt>
      <trkpt lat="44.53475" lon="6.84177">
        <ele>2715.739</ele>
        <time>2012-09-15T09:59:08Z</time>
      </trkpt>
      <trkpt lat="44.53473" lon="6.84155">
        <ele>2714.033</ele>
        <time>2012-09-15T09:59:13Z</time>
      </trkpt>
      <trkpt lat="44.53476" lon="6.84145">
        <ele>2713.928</ele>
        <time>2012-09-15T09:59:16Z</time>
      </trkpt>
      <trkpt lat="44.53478" lon="6.8414">
        <ele>2713.459</ele>
        <time>2012-09-15T09:59:22Z</time>
      </trkpt>
      <trkpt lat="44.53478" lon="6.8414">
        <ele>2713.54</ele>
        <time>2012-09-15T09:59:24Z</time>
      </trkpt>
      <trkpt lat="44.53474" lon="6.84132">
        <ele>2713.49</ele>
        <time>2012-09-15T09:59:31Z</time>
      </trkpt>
      <trkpt lat="44.53472" lon="6.84133">
        <ele>2713.37</ele>
        <time>2012-09-15T09:59:36Z</time>
      </trkpt>
      <trkpt lat="44.53469" lon="6.84133">
        <ele>2713.281</ele>
        <time>2012-09-15T09:59:42Z</time>
      </trkpt>
      <trkpt lat="44.53465" lon="6.84129">
        <ele>2713.96</ele>
        <time>2012-09-15T09:59:46Z</time>
      </trkpt>
      <trkpt lat="44.53459" lon="6.84128">
        <ele>2713.119</ele>
        <time>2012-09-15T09:59:53Z</time>
      </trkpt>
      <trkpt lat="44.53453" lon="6.84122">
        <ele>2712.918</ele>
        <time>2012-09-15T09:59:57Z</time>
      </trkpt>
      <trkpt lat="44.53439" lon="6.84113">
        <ele>2709.779</ele>
        <time>2012-09-15T10:00:02Z</time>
      </trkpt>
      <trkpt lat="44.53428" lon="6.84102">
        <ele>2707.02</ele>
        <time>2012-09-15T10:00:06Z</time>
      </trkpt>
      <trkpt lat="44.53423" lon="6.84088">
        <ele>2704.39</ele>
        <time>2012-09-15T10:00:10Z</time>
      </trkpt>
      <trkpt lat="44.53427" lon="6.84068">
        <ele>2699.478</ele>
        <time>2012-09-15T10:00:17Z</time>
      </trkpt>
      <trkpt lat="44.5343" lon="6.84054">
        <ele>2695.749</ele>
        <time>2012-09-15T10:00:22Z</time>
      </trkpt>
      <trkpt lat="44.53437" lon="6.84042">
        <ele>2693.938</ele>
        <time>2012-09-15T10:00:27Z</time>
      </trkpt>
      <trkpt lat="44.53442" lon="6.8403">
        <ele>2693.83</ele>
        <time>2012-09-15T10:00:32Z</time>
      </trkpt>
      <trkpt lat="44.53438" lon="6.84016">
        <ele>2692.013</ele>
        <time>2012-09-15T10:00:36Z</time>
      </trkpt>
      <trkpt lat="44.53434" lon="6.83995">
        <ele>2691.628</ele>
        <time>2012-09-15T10:00:42Z</time>
      </trkpt>
      <trkpt lat="44.5343" lon="6.8398">
        <ele>2692.412</ele>
        <time>2012-09-15T10:00:47Z</time>
      </trkpt>
      <trkpt lat="44.53423" lon="6.83961">
        <ele>2694.122</ele>
        <time>2012-09-15T10:00:54Z</time>
      </trkpt>
      <trkpt lat="44.53414" lon="6.83951">
        <ele>2696.699</ele>
        <time>2012-09-15T10:01:00Z</time>
      </trkpt>
      <trkpt lat="44.53413" lon="6.83947">
        <ele>2696.937</ele>
        <time>2012-09-15T10:01:02Z</time>
      </trkpt>
      <trkpt lat="44.53413" lon="6.83929">
        <ele>2696.711</ele>
        <time>2012-09-15T10:01:10Z</time>
      </trkpt>
      <trkpt lat="44.53416" lon="6.83915">
        <ele>2695.251</ele>
        <time>2012-09-15T10:01:16Z</time>
      </trkpt>
      <trkpt lat="44.53417" lon="6.83903">
        <ele>2694.984</ele>
        <time>2012-09-15T10:01:22Z</time>
      </trkpt>
      <trkpt lat="44.53416" lon="6.8389">
        <ele>2695.004</ele>
        <time>2012-09-15T10:01:28Z</time>
      </trkpt>
      <trkpt lat="44.53418" lon="6.83877">
        <ele>2693.969</ele>
        <time>2012-09-15T10:01:33Z</time>
      </trkpt>
      <trkpt lat="44.53425" lon="6.83856">
        <ele>2691.55</ele>
        <time>2012-09-15T10:01:41Z</time>
      </trkpt>
      <trkpt lat="44.53429" lon="6.83844">
        <ele>2690.071</ele>
        <time>2012-09-15T10:01:47Z</time>
      </trkpt>
      <trkpt lat="44.5343" lon="6.8384">
        <ele>2690.303</ele>
        <time>2012-09-15T10:01:48Z</time>
      </trkpt>
      <trkpt lat="44.53435" lon="6.83834">
        <ele>2689.842</ele>
        <time>2012-09-15T10:01:52Z</time>
      </trkpt>
      <trkpt lat="44.53436" lon="6.83833">
        <ele>2688.971</ele>
        <time>2012-09-15T10:01:57Z</time>
      </trkpt>
      <trkpt lat="44.53439" lon="6.83829">
        <ele>2689.986</ele>
        <time>2012-09-15T10:02:16Z</time>
      </trkpt>
      <trkpt lat="44.5344" lon="6.83828">
        <ele>2691.452</ele>
        <time>2012-09-15T10:02:23Z</time>
      </trkpt>
      <trkpt lat="44.53438" lon="6.83829">
        <ele>2696.542</ele>
        <time>2012-09-15T10:03:41Z</time>
      </trkpt>
      <trkpt lat="44.53438" lon="6.83829">
        <ele>2696.744</ele>
        <time>2012-09-15T10:03:42Z</time>
      </trkpt>
      <trkpt lat="44.53439" lon="6.83824">
        <ele>2698.75</ele>
        <time>2012-09-15T10:03:46Z</time>
      </trkpt>
      <trkpt lat="44.53436" lon="6.83815">
        <ele>2702.54</ele>
        <time>2012-09-15T10:03:54Z</time>
      </trkpt>
      <trkpt lat="44.53436" lon="6.83811">
        <ele>2704.057</ele>
        <time>2012-09-15T10:03:59Z</time>
      </trkpt>
      <trkpt lat="44.53435" lon="6.83799">
        <ele>2706.707</ele>
        <time>2012-09-15T10:04:11Z</time>
      </trkpt>
      <trkpt lat="44.53435" lon="6.83789">
        <ele>2708.255</ele>
        <time>2012-09-15T10:04:20Z</time>
      </trkpt>
      <trkpt lat="44.53433" lon="6.83775">
        <ele>2710.817</ele>
        <time>2012-09-15T10:04:29Z</time>
      </trkpt>
      <trkpt lat="44.53431" lon="6.83762">
        <ele>2712.466</ele>
        <time>2012-09-15T10:04:37Z</time>
      </trkpt>
      <trkpt lat="44.5343" lon="6.83745">
        <ele>2712.254</ele>
        <time>2012-09-15T10:04:48Z</time>
      </trkpt>
      <trkpt lat="44.5343" lon="6.83735">
        <ele>2712.334</ele>
        <time>2012-09-15T10:04:57Z</time>
      </trkpt>
      <trkpt lat="44.5343" lon="6.83733">
        <ele>2712.083</ele>
        <time>2012-09-15T10:05:02Z</time>
      </trkpt>
      <trkpt lat="44.53429" lon="6.83725">
        <ele>2714.935</ele>
        <time>2012-09-15T10:05:11Z</time>
      </trkpt>
      <trkpt lat="44.53428" lon="6.83712">
        <ele>2715.515</ele>
        <time>2012-09-15T10:05:22Z</time>
      </trkpt>
      <trkpt lat="44.53428" lon="6.83708">
        <ele>2716.434</ele>
        <time>2012-09-15T10:05:26Z</time>
      </trkpt>
      <trkpt lat="44.5343" lon="6.83701">
        <ele>2716.841</ele>
        <time>2012-09-15T10:05:32Z</time>
      </trkpt>
      <trkpt lat="44.5343" lon="6.83697">
        <ele>2716.231</ele>
        <time>2012-09-15T10:05:37Z</time>
      </trkpt>
      <trkpt lat="44.53429" lon="6.83694">
        <ele>2717.045</ele>
        <time>2012-09-15T10:05:45Z</time>
      </trkpt>
      <trkpt lat="44.5343" lon="6.83689">
        <ele>2718.348</ele>
        <time>2012-09-15T10:05:51Z</time>
      </trkpt>
      <trkpt lat="44.5343" lon="6.83687">
        <ele>2720.1</ele>
        <time>2012-09-15T10:05:56Z</time>
      </trkpt>
      <trkpt lat="44.53432" lon="6.83683">
        <ele>2722.76</ele>
        <time>2012-09-15T10:06:02Z</time>
      </trkpt>
      <trkpt lat="44.53433" lon="6.8368">
        <ele>2725.687</ele>
        <time>2012-09-15T10:06:11Z</time>
      </trkpt>
      <trkpt lat="44.53436" lon="6.83678">
        <ele>2727.376</ele>
        <time>2012-09-15T10:06:19Z</time>
      </trkpt>
      <trkpt lat="44.53439" lon="6.83678">
        <ele>2729.437</ele>
        <time>2012-09-15T10:06:28Z</time>
      </trkpt>
      <trkpt lat="44.53441" lon="6.83679">
        <ele>2730.376</ele>
        <time>2012-09-15T10:06:34Z</time>
      </trkpt>
      <trkpt lat="44.53443" lon="6.8368">
        <ele>2731.257</ele>
        <time>2012-09-15T10:06:40Z</time>
      </trkpt>
      <trkpt lat="44.53445" lon="6.83679">
        <ele>2731.124</ele>
        <time>2012-09-15T10:06:46Z</time>
      </trkpt>
      <trkpt lat="44.53449" lon="6.83678">
        <ele>2732.576</ele>
        <time>2012-09-15T10:06:55Z</time>
      </trkpt>
      <trkpt lat="44.53451" lon="6.83678">
        <ele>2733.377</ele>
        <time>2012-09-15T10:06:58Z</time>
      </trkpt>
      <trkpt lat="44.53458" lon="6.83679">
        <ele>2732.67</ele>
        <time>2012-09-15T10:07:05Z</time>
      </trkpt>
      <trkpt lat="44.53464" lon="6.83681">
        <ele>2733.307</ele>
        <time>2012-09-15T10:07:12Z</time>
      </trkpt>
      <trkpt lat="44.5347" lon="6.83682">
        <ele>2734.706</ele>
        <time>2012-09-15T10:07:20Z</time>
      </trkpt>
      <trkpt lat="44.53474" lon="6.83682">
        <ele>2735.865</ele>
        <time>2012-09-15T10:07:28Z</time>
      </trkpt>
      <trkpt lat="44.53479" lon="6.8368">
        <ele>2737.356</ele>
        <time>2012-09-15T10:07:37Z</time>
      </trkpt>
      <trkpt lat="44.53482" lon="6.83681">
        <ele>2738.656</ele>
        <time>2012-09-15T10:07:43Z</time>
      </trkpt>
      <trkpt lat="44.53487" lon="6.83684">
        <ele>2739.997</ele>
        <time>2012-09-15T10:07:52Z</time>
      </trkpt>
      <trkpt lat="44.53491" lon="6.83686">
        <ele>2741.138</ele>
        <time>2012-09-15T10:08:01Z</time>
      </trkpt>
      <trkpt lat="44.53493" lon="6.83686">
        <ele>2742.147</ele>
        <time>2012-09-15T10:08:06Z</time>
      </trkpt>
      <trkpt lat="44.53497" lon="6.83691">
        <ele>2743.326</ele>
        <time>2012-09-15T10:08:14Z</time>
      </trkpt>
      <trkpt lat="44.53502" lon="6.83692">
        <ele>2743.884</ele>
        <time>2012-09-15T10:08:21Z</time>
      </trkpt>
      <trkpt lat="44.53505" lon="6.83692">
        <ele>2744.154</ele>
        <time>2012-09-15T10:08:26Z</time>
      </trkpt>
      <trkpt lat="44.53511" lon="6.83692">
        <ele>2744.295</ele>
        <time>2012-09-15T10:08:35Z</time>
      </trkpt>
      <trkpt lat="44.53519" lon="6.83691">
        <ele>2745.446</ele>
        <time>2012-09-15T10:08:46Z</time>
      </trkpt>
      <trkpt lat="44.53524" lon="6.83692">
        <ele>2746.236</ele>
        <time>2012-09-15T10:08:52Z</time>
      </trkpt>
      <trkpt lat="44.5353" lon="6.83691">
        <ele>2748.787</ele>
        <time>2012-09-15T10:09:02Z</time>
      </trkpt>
      <trkpt lat="44.53535" lon="6.83692">
        <ele>2747.664</ele>
        <time>2012-09-15T10:09:08Z</time>
      </trkpt>
      <trkpt lat="44.53539" lon="6.83694">
        <ele>2746.873</ele>
        <time>2012-09-15T10:09:15Z</time>
      </trkpt>
      <trkpt lat="44.53543" lon="6.83697">
        <ele>2746.132</ele>
        <time>2012-09-15T10:09:21Z</time>
      </trkpt>
      <trkpt lat="44.53543" lon="6.83701">
        <ele>2750.319</ele>
        <time>2012-09-15T10:09:28Z</time>
      </trkpt>
      <trkpt lat="44.53551" lon="6.83702">
        <ele>2746.682</ele>
        <time>2012-09-15T10:09:35Z</time>
      </trkpt>
      <trkpt lat="44.53557" lon="6.83701">
        <ele>2744.148</ele>
        <time>2012-09-15T10:09:42Z</time>
      </trkpt>
      <trkpt lat="44.53559" lon="6.83701">
        <ele>2743.941</ele>
        <time>2012-09-15T10:09:47Z</time>
      </trkpt>
      <trkpt lat="44.5356" lon="6.83701">
        <ele>2745.955</ele>
        <time>2012-09-15T10:09:52Z</time>
      </trkpt>
      <trkpt lat="44.5356" lon="6.83701">
        <ele>2751.669</ele>
        <time>2012-09-15T10:09:58Z</time>
      </trkpt>
      <trkpt lat="44.53563" lon="6.83702">
        <ele>2754.928</ele>
        <time>2012-09-15T10:10:05Z</time>
      </trkpt>
      <trkpt lat="44.53568" lon="6.83703">
        <ele>2758.857</ele>
        <time>2012-09-15T10:10:15Z</time>
      </trkpt>
      <trkpt lat="44.53571" lon="6.83704">
        <ele>2758.943</ele>
        <time>2012-09-15T10:10:22Z</time>
      </trkpt>
      <trkpt lat="44.53572" lon="6.83701">
        <ele>2759.157</ele>
        <time>2012-09-15T10:12:03Z</time>
      </trkpt>
      <trkpt lat="44.53575" lon="6.83699">
        <ele>2761.379</ele>
        <time>2012-09-15T10:12:08Z</time>
      </trkpt>
      <trkpt lat="44.53584" lon="6.83699">
        <ele>2766.119</ele>
        <time>2012-09-15T10:12:19Z</time>
      </trkpt>
      <trkpt lat="44.53588" lon="6.83699">
        <ele>2768.639</ele>
        <time>2012-09-15T10:12:26Z</time>
      </trkpt>
      <trkpt lat="44.53594" lon="6.837">
        <ele>2771.028</ele>
        <time>2012-09-15T10:12:35Z</time>
      </trkpt>
      <trkpt lat="44.53597" lon="6.837">
        <ele>2772.288</ele>
        <time>2012-09-15T10:12:41Z</time>
      </trkpt>
      <trkpt lat="44.536" lon="6.837">
        <ele>2773.357</ele>
        <time>2012-09-15T10:12:47Z</time>
      </trkpt>
      <trkpt lat="44.53604" lon="6.83701">
        <ele>2774.417</ele>
        <time>2012-09-15T10:12:54Z</time>
      </trkpt>
      <trkpt lat="44.53608" lon="6.83699">
        <ele>2775.297</ele>
        <time>2012-09-15T10:13:02Z</time>
      </trkpt>
      <trkpt lat="44.53611" lon="6.83698">
        <ele>2776.046</ele>
        <time>2012-09-15T10:13:09Z</time>
      </trkpt>
      <trkpt lat="44.53614" lon="6.83696">
        <ele>2776.666</ele>
        <time>2012-09-15T10:13:16Z</time>
      </trkpt>
      <trkpt lat="44.53617" lon="6.83694">
        <ele>2777.035</ele>
        <time>2012-09-15T10:13:22Z</time>
      </trkpt>
      <trkpt lat="44.53619" lon="6.83693">
        <ele>2777.696</ele>
        <time>2012-09-15T10:13:28Z</time>
      </trkpt>
      <trkpt lat="44.53624" lon="6.83692">
        <ele>2779.086</ele>
        <time>2012-09-15T10:13:37Z</time>
      </trkpt>
      <trkpt lat="44.53629" lon="6.8369">
        <ele>2779.805</ele>
        <time>2012-09-15T10:13:45Z</time>
      </trkpt>
      <trkpt lat="44.53631" lon="6.83689">
        <ele>2780.436</ele>
        <time>2012-09-15T10:13:51Z</time>
      </trkpt>
      <trkpt lat="44.53635" lon="6.8369">
        <ele>2781.356</ele>
        <time>2012-09-15T10:13:59Z</time>
      </trkpt>
      <trkpt lat="44.5364" lon="6.83692">
        <ele>2782.606</ele>
        <time>2012-09-15T10:14:08Z</time>
      </trkpt>
      <trkpt lat="44.53646" lon="6.83692">
        <ele>2783.625</ele>
        <time>2012-09-15T10:14:18Z</time>
      </trkpt>
      <trkpt lat="44.53653" lon="6.83693">
        <ele>2785.797</ele>
        <time>2012-09-15T10:14:29Z</time>
      </trkpt>
      <trkpt lat="44.53658" lon="6.83692">
        <ele>2787.206</ele>
        <time>2012-09-15T10:14:37Z</time>
      </trkpt>
      <trkpt lat="44.53661" lon="6.83692">
        <ele>2788.217</ele>
        <time>2012-09-15T10:14:44Z</time>
      </trkpt>
      <trkpt lat="44.53664" lon="6.83692">
        <ele>2788.685</ele>
        <time>2012-09-15T10:14:51Z</time>
      </trkpt>
      <trkpt lat="44.53667" lon="6.83693">
        <ele>2789.387</ele>
        <time>2012-09-15T10:14:58Z</time>
      </trkpt>
      <trkpt lat="44.53669" lon="6.83694">
        <ele>2789.836</ele>
        <time>2012-09-15T10:15:03Z</time>
      </trkpt>
      <trkpt lat="44.53674" lon="6.83696">
        <ele>2791.207</ele>
        <time>2012-09-15T10:15:12Z</time>
      </trkpt>
      <trkpt lat="44.53675" lon="6.83693">
        <ele>2792.146</ele>
        <time>2012-09-15T10:15:17Z</time>
      </trkpt>
      <trkpt lat="44.53677" lon="6.83692">
        <ele>2793.135</ele>
        <time>2012-09-15T10:15:24Z</time>
      </trkpt>
      <trkpt lat="44.53681" lon="6.83691">
        <ele>2794.136</ele>
        <time>2012-09-15T10:15:31Z</time>
      </trkpt>
      <trkpt lat="44.53685" lon="6.83691">
        <ele>2795.105</ele>
        <time>2012-09-15T10:15:39Z</time>
      </trkpt>
      <trkpt lat="44.53687" lon="6.83689">
        <ele>2796.036</ele>
        <time>2012-09-15T10:15:45Z</time>
      </trkpt>
      <trkpt lat="44.5369" lon="6.83688">
        <ele>2796.496</ele>
        <time>2012-09-15T10:15:52Z</time>
      </trkpt>
      <trkpt lat="44.53692" lon="6.83686">
        <ele>2797.347</ele>
        <time>2012-09-15T10:15:59Z</time>
      </trkpt>
      <trkpt lat="44.53696" lon="6.83684">
        <ele>2799.067</ele>
        <time>2012-09-15T10:16:09Z</time>
      </trkpt>
      <trkpt lat="44.53697" lon="6.83681">
        <ele>2799.846</ele>
        <time>2012-09-15T10:16:16Z</time>
      </trkpt>
      <trkpt lat="44.53699" lon="6.83677">
        <ele>2800.766</ele>
        <time>2012-09-15T10:16:25Z</time>
      </trkpt>
      <trkpt lat="44.53699" lon="6.83674">
        <ele>2802.017</ele>
        <time>2012-09-15T10:16:31Z</time>
      </trkpt>
      <trkpt lat="44.53701" lon="6.83673">
        <ele>2802.687</ele>
        <time>2012-09-15T10:16:36Z</time>
      </trkpt>
      <trkpt lat="44.53704" lon="6.83673">
        <ele>2803.856</ele>
        <time>2012-09-15T10:16:45Z</time>
      </trkpt>
      <trkpt lat="44.53706" lon="6.83671">
        <ele>2804.927</ele>
        <time>2012-09-15T10:16:51Z</time>
      </trkpt>
      <trkpt lat="44.53707" lon="6.83668">
        <ele>2805.988</ele>
        <time>2012-09-15T10:16:57Z</time>
      </trkpt>
      <trkpt lat="44.53709" lon="6.83668">
        <ele>2806.905</ele>
        <time>2012-09-15T10:17:07Z</time>
      </trkpt>
      <trkpt lat="44.5371" lon="6.83667">
        <ele>2807.655</ele>
        <time>2012-09-15T10:17:12Z</time>
      </trkpt>
      <trkpt lat="44.53715" lon="6.83668">
        <ele>2810.076</ele>
        <time>2012-09-15T10:17:25Z</time>
      </trkpt>
      <trkpt lat="44.53718" lon="6.83667">
        <ele>2811.217</ele>
        <time>2012-09-15T10:17:33Z</time>
      </trkpt>
      <trkpt lat="44.53719" lon="6.83665">
        <ele>2812.247</ele>
        <time>2012-09-15T10:17:40Z</time>
      </trkpt>
      <trkpt lat="44.53722" lon="6.83666">
        <ele>2813.586</ele>
        <time>2012-09-15T10:17:48Z</time>
      </trkpt>
      <trkpt lat="44.53723" lon="6.83668">
        <ele>2813.964</ele>
        <time>2012-09-15T10:17:56Z</time>
      </trkpt>
      <trkpt lat="44.53725" lon="6.83667">
        <ele>2814.557</ele>
        <time>2012-09-15T10:18:02Z</time>
      </trkpt>
      <trkpt lat="44.53726" lon="6.83663">
        <ele>2814.965</ele>
        <time>2012-09-15T10:18:09Z</time>
      </trkpt>
      <trkpt lat="44.53728" lon="6.83662">
        <ele>2815.655</ele>
        <time>2012-09-15T10:18:15Z</time>
      </trkpt>
      <trkpt lat="44.5373" lon="6.83662">
        <ele>2816.366</ele>
        <time>2012-09-15T10:18:21Z</time>
      </trkpt>
      <trkpt lat="44.53733" lon="6.83663">
        <ele>2817.526</ele>
        <time>2012-09-15T10:18:27Z</time>
      </trkpt>
      <trkpt lat="44.53736" lon="6.83661">
        <ele>2819.046</ele>
        <time>2012-09-15T10:18:35Z</time>
      </trkpt>
      <trkpt lat="44.53738" lon="6.8366">
        <ele>2820.267</ele>
        <time>2012-09-15T10:18:41Z</time>
      </trkpt>
      <trkpt lat="44.5374" lon="6.83658">
        <ele>2821.546</ele>
        <time>2012-09-15T10:18:47Z</time>
      </trkpt>
      <trkpt lat="44.53742" lon="6.83654">
        <ele>2823.196</ele>
        <time>2012-09-15T10:18:54Z</time>
      </trkpt>
      <trkpt lat="44.53745" lon="6.83654">
        <ele>2824.338</ele>
        <time>2012-09-15T10:18:59Z</time>
      </trkpt>
      <trkpt lat="44.53747" lon="6.8365">
        <ele>2825.746</ele>
        <time>2012-09-15T10:19:07Z</time>
      </trkpt>
      <trkpt lat="44.53751" lon="6.83648">
        <ele>2827.227</ele>
        <time>2012-09-15T10:19:15Z</time>
      </trkpt>
      <trkpt lat="44.53754" lon="6.83649">
        <ele>2828.578</ele>
        <time>2012-09-15T10:19:22Z</time>
      </trkpt>
      <trkpt lat="44.53759" lon="6.83647">
        <ele>2829.106</ele>
        <time>2012-09-15T10:19:30Z</time>
      </trkpt>
      <trkpt lat="44.53762" lon="6.83644">
        <ele>2830.968</ele>
        <time>2012-09-15T10:19:37Z</time>
      </trkpt>
      <trkpt lat="44.53767" lon="6.83644">
        <ele>2832.457</ele>
        <time>2012-09-15T10:19:46Z</time>
      </trkpt>
      <trkpt lat="44.5377" lon="6.83643">
        <ele>2833.953</ele>
        <time>2012-09-15T10:19:54Z</time>
      </trkpt>
      <trkpt lat="44.53774" lon="6.83642">
        <ele>2835.246</ele>
        <time>2012-09-15T10:20:03Z</time>
      </trkpt>
      <trkpt lat="44.53778" lon="6.83644">
        <ele>2836.066</ele>
        <time>2012-09-15T10:20:12Z</time>
      </trkpt>
      <trkpt lat="44.53784" lon="6.83646">
        <ele>2836.316</ele>
        <time>2012-09-15T10:20:22Z</time>
      </trkpt>
      <trkpt lat="44.53787" lon="6.83645">
        <ele>2837.177</ele>
        <time>2012-09-15T10:20:30Z</time>
      </trkpt>
      <trkpt lat="44.53792" lon="6.83644">
        <ele>2839.847</ele>
        <time>2012-09-15T10:20:43Z</time>
      </trkpt>
      <trkpt lat="44.53795" lon="6.83646">
        <ele>2840.425</ele>
        <time>2012-09-15T10:20:50Z</time>
      </trkpt>
      <trkpt lat="44.538" lon="6.83648">
        <ele>2841.196</ele>
        <time>2012-09-15T10:21:00Z</time>
      </trkpt>
      <trkpt lat="44.53803" lon="6.83648">
        <ele>2842.026</ele>
        <time>2012-09-15T10:21:07Z</time>
      </trkpt>
      <trkpt lat="44.53806" lon="6.83648">
        <ele>2843.347</ele>
        <time>2012-09-15T10:21:17Z</time>
      </trkpt>
      <trkpt lat="44.53808" lon="6.83648">
        <ele>2844.317</ele>
        <time>2012-09-15T10:21:24Z</time>
      </trkpt>
      <trkpt lat="44.53812" lon="6.83647">
        <ele>2846.257</ele>
        <time>2012-09-15T10:21:34Z</time>
      </trkpt>
      <trkpt lat="44.53815" lon="6.83646">
        <ele>2847.846</ele>
        <time>2012-09-15T10:21:44Z</time>
      </trkpt>
      <trkpt lat="44.53818" lon="6.83646">
        <ele>2848.616</ele>
        <time>2012-09-15T10:21:50Z</time>
      </trkpt>
      <trkpt lat="44.53822" lon="6.83645">
        <ele>2850.077</ele>
        <time>2012-09-15T10:21:59Z</time>
      </trkpt>
      <trkpt lat="44.53824" lon="6.83646">
        <ele>2850.496</ele>
        <time>2012-09-15T10:22:04Z</time>
      </trkpt>
      <trkpt lat="44.53827" lon="6.83646">
        <ele>2852.068</ele>
        <time>2012-09-15T10:22:10Z</time>
      </trkpt>
      <trkpt lat="44.53829" lon="6.83646">
        <ele>2854.308</ele>
        <time>2012-09-15T10:22:16Z</time>
      </trkpt>
      <trkpt lat="44.53833" lon="6.83646">
        <ele>2855.958</ele>
        <time>2012-09-15T10:22:23Z</time>
      </trkpt>
      <trkpt lat="44.53836" lon="6.83648">
        <ele>2856.024</ele>
        <time>2012-09-15T10:22:29Z</time>
      </trkpt>
      <trkpt lat="44.53837" lon="6.83653">
        <ele>2855.986</ele>
        <time>2012-09-15T10:22:35Z</time>
      </trkpt>
      <trkpt lat="44.53838" lon="6.83652">
        <ele>2856.326</ele>
        <time>2012-09-15T10:22:40Z</time>
      </trkpt>
      <trkpt lat="44.5384" lon="6.83651">
        <ele>2856.755</ele>
        <time>2012-09-15T10:22:47Z</time>
      </trkpt>
      <trkpt lat="44.53843" lon="6.83651">
        <ele>2857.516</ele>
        <time>2012-09-15T10:22:55Z</time>
      </trkpt>
      <trkpt lat="44.53845" lon="6.83651">
        <ele>2858.066</ele>
        <time>2012-09-15T10:23:00Z</time>
      </trkpt>
      <trkpt lat="44.53847" lon="6.83656">
        <ele>2859.006</ele>
        <time>2012-09-15T10:23:11Z</time>
      </trkpt>
      <trkpt lat="44.53848" lon="6.83655">
        <ele>2859.977</ele>
        <time>2012-09-15T10:23:17Z</time>
      </trkpt>
      <trkpt lat="44.53851" lon="6.83654">
        <ele>2861.495</ele>
        <time>2012-09-15T10:23:28Z</time>
      </trkpt>
      <trkpt lat="44.53852" lon="6.83653">
        <ele>2862.577</ele>
        <time>2012-09-15T10:23:34Z</time>
      </trkpt>
      <trkpt lat="44.53855" lon="6.83652">
        <ele>2864.536</ele>
        <time>2012-09-15T10:23:42Z</time>
      </trkpt>
      <trkpt lat="44.53858" lon="6.83651">
        <ele>2866.097</ele>
        <time>2012-09-15T10:23:47Z</time>
      </trkpt>
      <trkpt lat="44.53861" lon="6.8365">
        <ele>2867.948</ele>
        <time>2012-09-15T10:23:54Z</time>
      </trkpt>
      <trkpt lat="44.53863" lon="6.83651">
        <ele>2869.657</ele>
        <time>2012-09-15T10:24:02Z</time>
      </trkpt>
      <trkpt lat="44.53865" lon="6.83651">
        <ele>2871.208</ele>
        <time>2012-09-15T10:24:09Z</time>
      </trkpt>
      <trkpt lat="44.53867" lon="6.83649">
        <ele>2871.596</ele>
        <time>2012-09-15T10:24:15Z</time>
      </trkpt>
      <trkpt lat="44.53871" lon="6.83648">
        <ele>2872.576</ele>
        <time>2012-09-15T10:24:25Z</time>
      </trkpt>
      <trkpt lat="44.53874" lon="6.83647">
        <ele>2873.236</ele>
        <time>2012-09-15T10:24:31Z</time>
      </trkpt>
      <trkpt lat="44.53877" lon="6.83648">
        <ele>2872.996</ele>
        <time>2012-09-15T10:24:37Z</time>
      </trkpt>
      <trkpt lat="44.53878" lon="6.83649">
        <ele>2873.447</ele>
        <time>2012-09-15T10:24:43Z</time>
      </trkpt>
      <trkpt lat="44.53881" lon="6.8365">
        <ele>2874.716</ele>
        <time>2012-09-15T10:24:56Z</time>
      </trkpt>
      <trkpt lat="44.53883" lon="6.83652">
        <ele>2875.005</ele>
        <time>2012-09-15T10:25:04Z</time>
      </trkpt>
      <trkpt lat="44.53887" lon="6.83653">
        <ele>2876.717</ele>
        <time>2012-09-15T10:25:13Z</time>
      </trkpt>
      <trkpt lat="44.53889" lon="6.83654">
        <ele>2878.318</ele>
        <time>2012-09-15T10:25:19Z</time>
      </trkpt>
      <trkpt lat="44.53891" lon="6.83653">
        <ele>2879.246</ele>
        <time>2012-09-15T10:25:25Z</time>
      </trkpt>
      <trkpt lat="44.53895" lon="6.83651">
        <ele>2880.606</ele>
        <time>2012-09-15T10:25:32Z</time>
      </trkpt>
      <trkpt lat="44.53899" lon="6.83646">
        <ele>2882.307</ele>
        <time>2012-09-15T10:25:40Z</time>
      </trkpt>
      <trkpt lat="44.53898" lon="6.83642">
        <ele>2883.365</ele>
        <time>2012-09-15T10:25:46Z</time>
      </trkpt>
      <trkpt lat="44.539" lon="6.83638">
        <ele>2885.567</ele>
        <time>2012-09-15T10:25:55Z</time>
      </trkpt>
      <trkpt lat="44.53898" lon="6.8363">
        <ele>2887.797</ele>
        <time>2012-09-15T10:26:04Z</time>
      </trkpt>
      <trkpt lat="44.53896" lon="6.83627">
        <ele>2889.204</ele>
        <time>2012-09-15T10:26:12Z</time>
      </trkpt>
      <trkpt lat="44.53895" lon="6.83629">
        <ele>2888.683</ele>
        <time>2012-09-15T10:27:10Z</time>
      </trkpt>
      <trkpt lat="44.53891" lon="6.83619">
        <ele>2887.624</ele>
        <time>2012-09-15T10:27:19Z</time>
      </trkpt>
      <trkpt lat="44.53889" lon="6.83609">
        <ele>2890.327</ele>
        <time>2012-09-15T10:27:28Z</time>
      </trkpt>
      <trkpt lat="44.53892" lon="6.83609">
        <ele>2889.984</ele>
        <time>2012-09-15T10:27:34Z</time>
      </trkpt>
      <trkpt lat="44.53893" lon="6.83609">
        <ele>2889.462</ele>
        <time>2012-09-15T10:27:41Z</time>
      </trkpt>
      <trkpt lat="44.53894" lon="6.83607">
        <ele>2888.343</ele>
        <time>2012-09-15T10:27:52Z</time>
      </trkpt>
      <trkpt lat="44.53894" lon="6.83608">
        <ele>2888.522</ele>
        <time>2012-09-15T10:28:23Z</time>
      </trkpt>
      <trkpt lat="44.53898" lon="6.83614">
        <ele>2889.746</ele>
        <time>2012-09-15T10:28:31Z</time>
      </trkpt>
      <trkpt lat="44.53905" lon="6.83617">
        <ele>2892.336</ele>
        <time>2012-09-15T10:28:39Z</time>
      </trkpt>
      <trkpt lat="44.53909" lon="6.83621">
        <ele>2894.116</ele>
        <time>2012-09-15T10:28:47Z</time>
      </trkpt>
      <trkpt lat="44.53912" lon="6.83623">
        <ele>2895.573</ele>
        <time>2012-09-15T10:28:52Z</time>
      </trkpt>
      <trkpt lat="44.53919" lon="6.83625">
        <ele>2896.917</ele>
        <time>2012-09-15T10:29:02Z</time>
      </trkpt>
      <trkpt lat="44.53927" lon="6.83628">
        <ele>2898.867</ele>
        <time>2012-09-15T10:29:14Z</time>
      </trkpt>
      <trkpt lat="44.53931" lon="6.83631">
        <ele>2901.989</ele>
        <time>2012-09-15T10:29:22Z</time>
      </trkpt>
      <trkpt lat="44.53936" lon="6.83634">
        <ele>2904.708</ele>
        <time>2012-09-15T10:29:31Z</time>
      </trkpt>
      <trkpt lat="44.5394" lon="6.83633">
        <ele>2905.669</ele>
        <time>2012-09-15T10:29:38Z</time>
      </trkpt>
      <trkpt lat="44.53942" lon="6.83635">
        <ele>2906.548</ele>
        <time>2012-09-15T10:29:45Z</time>
      </trkpt>
      <trkpt lat="44.53945" lon="6.83639">
        <ele>2905.805</ele>
        <time>2012-09-15T10:29:54Z</time>
      </trkpt>
      <trkpt lat="44.53949" lon="6.83644">
        <ele>2906.257</ele>
        <time>2012-09-15T10:30:04Z</time>
      </trkpt>
      <trkpt lat="44.53952" lon="6.83643">
        <ele>2906.075</ele>
        <time>2012-09-15T10:30:11Z</time>
      </trkpt>
      <trkpt lat="44.53954" lon="6.83642">
        <ele>2914.16</ele>
        <time>2012-09-15T10:30:50Z</time>
      </trkpt>
      <trkpt lat="44.53957" lon="6.83651">
        <ele>2916.308</ele>
        <time>2012-09-15T10:31:01Z</time>
      </trkpt>
      <trkpt lat="44.53961" lon="6.83653">
        <ele>2918.008</ele>
        <time>2012-09-15T10:31:09Z</time>
      </trkpt>
      <trkpt lat="44.53965" lon="6.83657">
        <ele>2919.437</ele>
        <time>2012-09-15T10:31:17Z</time>
      </trkpt>
      <trkpt lat="44.53968" lon="6.83659">
        <ele>2920.978</ele>
        <time>2012-09-15T10:31:23Z</time>
      </trkpt>
      <trkpt lat="44.53975" lon="6.83666">
        <ele>2919.143</ele>
        <time>2012-09-15T10:31:33Z</time>
      </trkpt>
      <trkpt lat="44.53983" lon="6.83675">
        <ele>2916.653</ele>
        <time>2012-09-15T10:31:43Z</time>
      </trkpt>
      <trkpt lat="44.5399" lon="6.83677">
        <ele>2917.686</ele>
        <time>2012-09-15T10:31:53Z</time>
      </trkpt>
      <trkpt lat="44.53991" lon="6.83676">
        <ele>2918.445</ele>
        <time>2012-09-15T10:32:04Z</time>
      </trkpt>
      <trkpt lat="44.53999" lon="6.83684">
        <ele>2918.976</ele>
        <time>2012-09-15T10:32:12Z</time>
      </trkpt>
      <trkpt lat="44.5401" lon="6.83693">
        <ele>2920.958</ele>
        <time>2012-09-15T10:32:21Z</time>
      </trkpt>
      <trkpt lat="44.54019" lon="6.83701">
        <ele>2924.05</ele>
        <time>2012-09-15T10:32:30Z</time>
      </trkpt>
      <trkpt lat="44.54019" lon="6.83701">
        <ele>2924.234</ele>
        <time>2012-09-15T10:32:36Z</time>
      </trkpt>
      <trkpt lat="44.54021" lon="6.83703">
        <ele>2923.646</ele>
        <time>2012-09-15T10:33:08Z</time>
      </trkpt>
      <trkpt lat="44.54027" lon="6.83712">
        <ele>2925.838</ele>
        <time>2012-09-15T10:33:20Z</time>
      </trkpt>
      <trkpt lat="44.54029" lon="6.83715">
        <ele>2926.358</ele>
        <time>2012-09-15T10:33:28Z</time>
      </trkpt>
      <trkpt lat="44.54031" lon="6.83716">
        <ele>2928.409</ele>
        <time>2012-09-15T10:33:33Z</time>
      </trkpt>
      <trkpt lat="44.54032" lon="6.83717">
        <ele>2930.559</ele>
        <time>2012-09-15T10:33:39Z</time>
      </trkpt>
      <trkpt lat="44.54037" lon="6.83721">
        <ele>2933.107</ele>
        <time>2012-09-15T10:33:49Z</time>
      </trkpt>
      <trkpt lat="44.54038" lon="6.83718">
        <ele>2934.781</ele>
        <time>2012-09-15T10:33:54Z</time>
      </trkpt>
      <trkpt lat="44.54041" lon="6.83714">
        <ele>2936.579</ele>
        <time>2012-09-15T10:34:02Z</time>
      </trkpt>
      <trkpt lat="44.54046" lon="6.8372">
        <ele>2937.067</ele>
        <time>2012-09-15T10:34:12Z</time>
      </trkpt>
      <trkpt lat="44.54051" lon="6.83727">
        <ele>2936.515</ele>
        <time>2012-09-15T10:34:21Z</time>
      </trkpt>
      <trkpt lat="44.54055" lon="6.83733">
        <ele>2937.287</ele>
        <time>2012-09-15T10:34:31Z</time>
      </trkpt>
      <trkpt lat="44.54059" lon="6.83737">
        <ele>2938.118</ele>
        <time>2012-09-15T10:34:42Z</time>
      </trkpt>
      <trkpt lat="44.54061" lon="6.83739">
        <ele>2938.667</ele>
        <time>2012-09-15T10:34:48Z</time>
      </trkpt>
      <trkpt lat="44.54063" lon="6.83742">
        <ele>2939.248</ele>
        <time>2012-09-15T10:34:55Z</time>
      </trkpt>
      <trkpt lat="44.54065" lon="6.83745">
        <ele>2939.968</ele>
        <time>2012-09-15T10:35:02Z</time>
      </trkpt>
      <trkpt lat="44.54068" lon="6.83752">
        <ele>2940.286</ele>
        <time>2012-09-15T10:35:11Z</time>
      </trkpt>
      <trkpt lat="44.54069" lon="6.83753">
        <ele>2942.019</ele>
        <time>2012-09-15T10:35:18Z</time>
      </trkpt>
      <trkpt lat="44.54071" lon="6.83752">
        <ele>2944.218</ele>
        <time>2012-09-15T10:35:27Z</time>
      </trkpt>
      <trkpt lat="44.54073" lon="6.83754">
        <ele>2945.677</ele>
        <time>2012-09-15T10:35:35Z</time>
      </trkpt>
      <trkpt lat="44.54076" lon="6.83755">
        <ele>2946.337</ele>
        <time>2012-09-15T10:35:41Z</time>
      </trkpt>
      <trkpt lat="44.54078" lon="6.83758">
        <ele>2946.875</ele>
        <time>2012-09-15T10:35:50Z</time>
      </trkpt>
      <trkpt lat="44.5408" lon="6.83762">
        <ele>2947.386</ele>
        <time>2012-09-15T10:35:57Z</time>
      </trkpt>
      <trkpt lat="44.54082" lon="6.83765">
        <ele>2947.937</ele>
        <time>2012-09-15T10:36:03Z</time>
      </trkpt>
      <trkpt lat="44.54084" lon="6.83768">
        <ele>2948.917</ele>
        <time>2012-09-15T10:36:10Z</time>
      </trkpt>
      <trkpt lat="44.54086" lon="6.8377">
        <ele>2949.377</ele>
        <time>2012-09-15T10:36:16Z</time>
      </trkpt>
      <trkpt lat="44.54089" lon="6.83772">
        <ele>2950.448</ele>
        <time>2012-09-15T10:36:24Z</time>
      </trkpt>
      <trkpt lat="44.5409" lon="6.83774">
        <ele>2950.986</ele>
        <time>2012-09-15T10:36:31Z</time>
      </trkpt>
      <trkpt lat="44.54093" lon="6.83778">
        <ele>2950.316</ele>
        <time>2012-09-15T10:36:38Z</time>
      </trkpt>
      <trkpt lat="44.54095" lon="6.83781">
        <ele>2951.739</ele>
        <time>2012-09-15T10:36:45Z</time>
      </trkpt>
      <trkpt lat="44.54097" lon="6.83781">
        <ele>2954.469</ele>
        <time>2012-09-15T10:36:52Z</time>
      </trkpt>
      <trkpt lat="44.54099" lon="6.83784">
        <ele>2957.089</ele>
        <time>2012-09-15T10:37:01Z</time>
      </trkpt>
      <trkpt lat="44.541" lon="6.83787">
        <ele>2958.519</ele>
        <time>2012-09-15T10:37:09Z</time>
      </trkpt>
      <trkpt lat="44.54102" lon="6.8379">
        <ele>2959.217</ele>
        <time>2012-09-15T10:37:16Z</time>
      </trkpt>
      <trkpt lat="44.54104" lon="6.83794">
        <ele>2958.935</ele>
        <time>2012-09-15T10:37:23Z</time>
      </trkpt>
      <trkpt lat="44.54106" lon="6.83798">
        <ele>2959.258</ele>
        <time>2012-09-15T10:37:31Z</time>
      </trkpt>
      <trkpt lat="44.54108" lon="6.838">
        <ele>2959.827</ele>
        <time>2012-09-15T10:37:37Z</time>
      </trkpt>
      <trkpt lat="44.5411" lon="6.83802">
        <ele>2960.637</ele>
        <time>2012-09-15T10:37:44Z</time>
      </trkpt>
      <trkpt lat="44.54111" lon="6.83804">
        <ele>2961.698</ele>
        <time>2012-09-15T10:37:50Z</time>
      </trkpt>
      <trkpt lat="44.54113" lon="6.83806">
        <ele>2963.158</ele>
        <time>2012-09-15T10:37:58Z</time>
      </trkpt>
      <trkpt lat="44.54115" lon="6.83809">
        <ele>2964.058</ele>
        <time>2012-09-15T10:38:04Z</time>
      </trkpt>
      <trkpt lat="44.54117" lon="6.83812">
        <ele>2965.177</ele>
        <time>2012-09-15T10:38:12Z</time>
      </trkpt>
      <trkpt lat="44.54119" lon="6.83816">
        <ele>2967.927</ele>
        <time>2012-09-15T10:38:23Z</time>
      </trkpt>
      <trkpt lat="44.54121" lon="6.83819">
        <ele>2968.318</ele>
        <time>2012-09-15T10:38:30Z</time>
      </trkpt>
      <trkpt lat="44.54123" lon="6.83821">
        <ele>2969.365</ele>
        <time>2012-09-15T10:38:37Z</time>
      </trkpt>
      <trkpt lat="44.54126" lon="6.83823">
        <ele>2971.158</ele>
        <time>2012-09-15T10:38:44Z</time>
      </trkpt>
      <trkpt lat="44.54128" lon="6.83826">
        <ele>2972.128</ele>
        <time>2012-09-15T10:38:52Z</time>
      </trkpt>
      <trkpt lat="44.5413" lon="6.83829">
        <ele>2973.508</ele>
        <time>2012-09-15T10:38:59Z</time>
      </trkpt>
      <trkpt lat="44.54132" lon="6.83831">
        <ele>2974.338</ele>
        <time>2012-09-15T10:39:05Z</time>
      </trkpt>
      <trkpt lat="44.54134" lon="6.83833">
        <ele>2975.248</ele>
        <time>2012-09-15T10:39:12Z</time>
      </trkpt>
      <trkpt lat="44.54137" lon="6.83835">
        <ele>2976.378</ele>
        <time>2012-09-15T10:39:19Z</time>
      </trkpt>
      <trkpt lat="44.54138" lon="6.83837">
        <ele>2977.498</ele>
        <time>2012-09-15T10:39:25Z</time>
      </trkpt>
      <trkpt lat="44.54141" lon="6.83839">
        <ele>2979.558</ele>
        <time>2012-09-15T10:39:33Z</time>
      </trkpt>
      <trkpt lat="44.54143" lon="6.83841">
        <ele>2981.668</ele>
        <time>2012-09-15T10:39:41Z</time>
      </trkpt>
      <trkpt lat="44.54146" lon="6.83843">
        <ele>2984.239</ele>
        <time>2012-09-15T10:39:50Z</time>
      </trkpt>
      <trkpt lat="44.54148" lon="6.83844">
        <ele>2985.529</ele>
        <time>2012-09-15T10:39:55Z</time>
      </trkpt>
      <trkpt lat="44.5415" lon="6.83847">
        <ele>2986.817</ele>
        <time>2012-09-15T10:40:04Z</time>
      </trkpt>
      <trkpt lat="44.54153" lon="6.83846">
        <ele>2988.569</ele>
        <time>2012-09-15T10:40:12Z</time>
      </trkpt>
      <trkpt lat="44.54155" lon="6.83848">
        <ele>2989.637</ele>
        <time>2012-09-15T10:40:19Z</time>
      </trkpt>
      <trkpt lat="44.54157" lon="6.8385">
        <ele>2990.638</ele>
        <time>2012-09-15T10:40:25Z</time>
      </trkpt>
      <trkpt lat="44.54159" lon="6.83851">
        <ele>2991.658</ele>
        <time>2012-09-15T10:40:32Z</time>
      </trkpt>
      <trkpt lat="44.54161" lon="6.83855">
        <ele>2992.728</ele>
        <time>2012-09-15T10:40:39Z</time>
      </trkpt>
      <trkpt lat="44.54164" lon="6.83859">
        <ele>2993.597</ele>
        <time>2012-09-15T10:40:48Z</time>
      </trkpt>
      <trkpt lat="44.54167" lon="6.83858">
        <ele>2994.979</ele>
        <time>2012-09-15T10:40:55Z</time>
      </trkpt>
      <trkpt lat="44.54169" lon="6.83863">
        <ele>2996.728</ele>
        <time>2012-09-15T10:41:05Z</time>
      </trkpt>
      <trkpt lat="44.54172" lon="6.83867">
        <ele>2998.108</ele>
        <time>2012-09-15T10:41:14Z</time>
      </trkpt>
      <trkpt lat="44.54174" lon="6.83871">
        <ele>2998.937</ele>
        <time>2012-09-15T10:41:22Z</time>
      </trkpt>
      <trkpt lat="44.54176" lon="6.83879">
        <ele>2999.004</ele>
        <time>2012-09-15T10:41:32Z</time>
      </trkpt>
      <trkpt lat="44.54178" lon="6.83879">
        <ele>2996.533</ele>
        <time>2012-09-15T10:41:41Z</time>
      </trkpt>
      <trkpt lat="44.54179" lon="6.83885">
        <ele>2997.574</ele>
        <time>2012-09-15T10:42:00Z</time>
      </trkpt>
      <trkpt lat="44.54179" lon="6.83888">
        <ele>2996.883</ele>
        <time>2012-09-15T10:42:06Z</time>
      </trkpt>
      <trkpt lat="44.5418" lon="6.83894">
        <ele>2996.794</ele>
        <time>2012-09-15T10:42:13Z</time>
      </trkpt>
      <trkpt lat="44.54181" lon="6.839">
        <ele>2996.425</ele>
        <time>2012-09-15T10:42:21Z</time>
      </trkpt>
      <trkpt lat="44.5418" lon="6.83908">
        <ele>2997.735</ele>
        <time>2012-09-15T10:42:31Z</time>
      </trkpt>
      <trkpt lat="44.54179" lon="6.83914">
        <ele>2998.356</ele>
        <time>2012-09-15T10:42:38Z</time>
      </trkpt>
      <trkpt lat="44.54177" lon="6.83922">
        <ele>3003.519</ele>
        <time>2012-09-15T10:42:48Z</time>
      </trkpt>
      <trkpt lat="44.54173" lon="6.8393">
        <ele>3009.549</ele>
        <time>2012-09-15T10:42:59Z</time>
      </trkpt>
      <trkpt lat="44.5417" lon="6.83935">
        <ele>3012.168</ele>
        <time>2012-09-15T10:43:08Z</time>
      </trkpt>
      <trkpt lat="44.54173" lon="6.83936">
        <ele>3006.257</ele>
        <time>2012-09-15T10:44:52Z</time>
      </trkpt>
      <trkpt lat="44.54172" lon="6.83936">
        <ele>3011.06</ele>
        <time>2012-09-15T10:44:59Z</time>
      </trkpt>
      <trkpt lat="44.54172" lon="6.83941">
        <ele>3012.198</ele>
        <time>2012-09-15T10:45:07Z</time>
      </trkpt>
      <trkpt lat="44.54174" lon="6.83947">
        <ele>3011.217</ele>
        <time>2012-09-15T10:45:16Z</time>
      </trkpt>
      <trkpt lat="44.54172" lon="6.83955">
        <ele>3016.229</ele>
        <time>2012-09-15T10:45:27Z</time>
      </trkpt>
      <trkpt lat="44.54171" lon="6.8396">
        <ele>3015.916</ele>
        <time>2012-09-15T10:45:34Z</time>
      </trkpt>
      <trkpt lat="44.54171" lon="6.83966">
        <ele>3015.906</ele>
        <time>2012-09-15T10:45:41Z</time>
      </trkpt>
      <trkpt lat="44.54172" lon="6.83972">
        <ele>3012.874</ele>
        <time>2012-09-15T10:45:48Z</time>
      </trkpt>
      <trkpt lat="44.5417" lon="6.83976">
        <ele>3015.509</ele>
        <time>2012-09-15T10:45:56Z</time>
      </trkpt>
      <trkpt lat="44.54169" lon="6.83981">
        <ele>3017.617</ele>
        <time>2012-09-15T10:46:04Z</time>
      </trkpt>
      <trkpt lat="44.54166" lon="6.83984">
        <ele>3022.691</ele>
        <time>2012-09-15T10:46:12Z</time>
      </trkpt>
      <trkpt lat="44.54167" lon="6.83991">
        <ele>3018.162</ele>
        <time>2012-09-15T10:46:19Z</time>
      </trkpt>
      <trkpt lat="44.54164" lon="6.83996">
        <ele>3017.495</ele>
        <time>2012-09-15T10:46:26Z</time>
      </trkpt>
      <trkpt lat="44.54161" lon="6.83999">
        <ele>3018.815</ele>
        <time>2012-09-15T10:46:33Z</time>
      </trkpt>
      <trkpt lat="44.5416" lon="6.84003">
        <ele>3022.849</ele>
        <time>2012-09-15T10:46:47Z</time>
      </trkpt>
      <trkpt lat="44.54163" lon="6.8401">
        <ele>3022.996</ele>
        <time>2012-09-15T10:46:56Z</time>
      </trkpt>
      <trkpt lat="44.54165" lon="6.84014">
        <ele>3022.656</ele>
        <time>2012-09-15T10:47:03Z</time>
      </trkpt>
      <trkpt lat="44.54166" lon="6.84019">
        <ele>3024.146</ele>
        <time>2012-09-15T10:47:11Z</time>
      </trkpt>
      <trkpt lat="44.54166" lon="6.84022">
        <ele>3026.038</ele>
        <time>2012-09-15T10:47:18Z</time>
      </trkpt>
      <trkpt lat="44.54166" lon="6.84025">
        <ele>3025.866</ele>
        <time>2012-09-15T10:47:25Z</time>
      </trkpt>
      <trkpt lat="44.54163" lon="6.84031">
        <ele>3033.959</ele>
        <time>2012-09-15T10:47:41Z</time>
      </trkpt>
      <trkpt lat="44.54161" lon="6.84039">
        <ele>3037.739</ele>
        <time>2012-09-15T10:48:01Z</time>
      </trkpt>
      <trkpt lat="44.54161" lon="6.84043">
        <ele>3038.668</ele>
        <time>2012-09-15T10:48:08Z</time>
      </trkpt>
      <trkpt lat="44.54162" lon="6.84049">
        <ele>3038.906</ele>
        <time>2012-09-15T10:48:20Z</time>
      </trkpt>
      <trkpt lat="44.54159" lon="6.84056">
        <ele>3044.909</ele>
        <time>2012-09-15T10:48:40Z</time>
      </trkpt>
      <trkpt lat="44.54157" lon="6.84062">
        <ele>3050.238</ele>
        <time>2012-09-15T10:48:59Z</time>
      </trkpt>
      <trkpt lat="44.54153" lon="6.84068">
        <ele>3054.488</ele>
        <time>2012-09-15T10:49:19Z</time>
      </trkpt>
      <trkpt lat="44.54155" lon="6.84071">
        <ele>3055.799</ele>
        <time>2012-09-15T10:49:26Z</time>
      </trkpt>
      <trkpt lat="44.5416" lon="6.84072">
        <ele>3055.488</ele>
        <time>2012-09-15T10:49:39Z</time>
      </trkpt>
      <trkpt lat="44.54163" lon="6.84071">
        <ele>3055.289</ele>
        <time>2012-09-15T10:49:44Z</time>
      </trkpt>
      <trkpt lat="44.54166" lon="6.8407">
        <ele>3055.389</ele>
        <time>2012-09-15T10:49:50Z</time>
      </trkpt>
      <trkpt lat="44.54169" lon="6.84071">
        <ele>3056.009</ele>
        <time>2012-09-15T10:50:01Z</time>
      </trkpt>
      <trkpt lat="44.54171" lon="6.84072">
        <ele>3056.438</ele>
        <time>2012-09-15T10:50:06Z</time>
      </trkpt>
      <trkpt lat="44.54171" lon="6.84075">
        <ele>3056.928</ele>
        <time>2012-09-15T10:50:12Z</time>
      </trkpt>
      <trkpt lat="44.5417" lon="6.84077">
        <ele>3057.287</ele>
        <time>2012-09-15T10:50:17Z</time>
      </trkpt>
      <trkpt lat="44.54167" lon="6.84081">
        <ele>3059.109</ele>
        <time>2012-09-15T10:50:30Z</time>
      </trkpt>
      <trkpt lat="44.54165" lon="6.84086">
        <ele>3061.469</ele>
        <time>2012-09-15T10:50:43Z</time>
      </trkpt>
      <trkpt lat="44.54166" lon="6.84091">
        <ele>3062.428</ele>
        <time>2012-09-15T10:50:54Z</time>
      </trkpt>
      <trkpt lat="44.54169" lon="6.84098">
        <ele>3061.965</ele>
        <time>2012-09-15T10:51:13Z</time>
      </trkpt>
      <trkpt lat="44.5417" lon="6.84098">
        <ele>3063.639</ele>
        <time>2012-09-15T10:51:20Z</time>
      </trkpt>
      <trkpt lat="44.54169" lon="6.84102">
        <ele>3067.918</ele>
        <time>2012-09-15T10:51:35Z</time>
      </trkpt>
      <trkpt lat="44.54166" lon="6.84106">
        <ele>3070.04</ele>
        <time>2012-09-15T10:51:45Z</time>
      </trkpt>
      <trkpt lat="44.54165" lon="6.84112">
        <ele>3069.947</ele>
        <time>2012-09-15T10:51:58Z</time>
      </trkpt>
      <trkpt lat="44.54166" lon="6.84116">
        <ele>3069.568</ele>
        <time>2012-09-15T10:52:07Z</time>
      </trkpt>
      <trkpt lat="44.54169" lon="6.84119">
        <ele>3070.798</ele>
        <time>2012-09-15T10:52:23Z</time>
      </trkpt>
      <trkpt lat="44.54169" lon="6.84128">
        <ele>3072.589</ele>
        <time>2012-09-15T10:52:47Z</time>
      </trkpt>
      <trkpt lat="44.54169" lon="6.84131">
        <ele>3073.29</ele>
        <time>2012-09-15T10:52:54Z</time>
      </trkpt>
      <trkpt lat="44.54172" lon="6.84131">
        <ele>3073.128</ele>
        <time>2012-09-15T10:53:03Z</time>
      </trkpt>
      <trkpt lat="44.54177" lon="6.84133">
        <ele>3074.708</ele>
        <time>2012-09-15T10:53:18Z</time>
      </trkpt>
      <trkpt lat="44.54177" lon="6.84135">
        <ele>3075.739</ele>
        <time>2012-09-15T10:53:26Z</time>
      </trkpt>
      <trkpt lat="44.54177" lon="6.84139">
        <ele>3076.128</ele>
        <time>2012-09-15T10:53:34Z</time>
      </trkpt>
      <trkpt lat="44.54178" lon="6.84141">
        <ele>3077.789</ele>
        <time>2012-09-15T10:53:42Z</time>
      </trkpt>
      <trkpt lat="44.54179" lon="6.84145">
        <ele>3077.876</ele>
        <time>2012-09-15T10:53:54Z</time>
      </trkpt>
      <trkpt lat="44.54179" lon="6.84147">
        <ele>3078.796</ele>
        <time>2012-09-15T10:54:00Z</time>
      </trkpt>
      <trkpt lat="44.54181" lon="6.84146">
        <ele>3080.027</ele>
        <time>2012-09-15T10:54:10Z</time>
      </trkpt>
      <trkpt lat="44.54182" lon="6.84149">
        <ele>3080.057</ele>
        <time>2012-09-15T10:54:16Z</time>
      </trkpt>
      <trkpt lat="44.54183" lon="6.84152">
        <ele>3081.168</ele>
        <time>2012-09-15T10:54:22Z</time>
      </trkpt>
      <trkpt lat="44.54192" lon="6.84154">
        <ele>3087.048</ele>
        <time>2012-09-15T10:55:03Z</time>
      </trkpt>
      <trkpt lat="44.54194" lon="6.84159">
        <ele>3087.628</ele>
        <time>2012-09-15T10:55:14Z</time>
      </trkpt>
      <trkpt lat="44.54194" lon="6.84162">
        <ele>3088.407</ele>
        <time>2012-09-15T10:55:24Z</time>
      </trkpt>
      <trkpt lat="44.54196" lon="6.84162">
        <ele>3090.509</ele>
        <time>2012-09-15T10:55:33Z</time>
      </trkpt>
      <trkpt lat="44.54199" lon="6.84161">
        <ele>3091.86</ele>
        <time>2012-09-15T10:55:39Z</time>
      </trkpt>
      <trkpt lat="44.542" lon="6.84164">
        <ele>3092.847</ele>
        <time>2012-09-15T10:55:49Z</time>
      </trkpt>
      <trkpt lat="44.54201" lon="6.8417">
        <ele>3093.196</ele>
        <time>2012-09-15T10:56:02Z</time>
      </trkpt>
      <trkpt lat="44.54202" lon="6.84172">
        <ele>3093.957</ele>
        <time>2012-09-15T10:56:08Z</time>
      </trkpt>
      <trkpt lat="44.54205" lon="6.84177">
        <ele>3096.998</ele>
        <time>2012-09-15T10:56:24Z</time>
      </trkpt>
      <trkpt lat="44.54205" lon="6.8418">
        <ele>3096.505</ele>
        <time>2012-09-15T10:56:31Z</time>
      </trkpt>
      <trkpt lat="44.54204" lon="6.84175">
        <ele>3101.967</ele>
        <time>2012-09-15T10:58:50Z</time>
      </trkpt>
      <trkpt lat="44.54207" lon="6.84175">
        <ele>3104.648</ele>
        <time>2012-09-15T10:59:10Z</time>
      </trkpt>
      <trkpt lat="44.5421" lon="6.84177">
        <ele>3105.81</ele>
        <time>2012-09-15T10:59:17Z</time>
      </trkpt>
      <trkpt lat="44.54213" lon="6.84179">
        <ele>3107.33</ele>
        <time>2012-09-15T10:59:25Z</time>
      </trkpt>
      <trkpt lat="44.54214" lon="6.8418">
        <ele>3108.129</ele>
        <time>2012-09-15T10:59:30Z</time>
      </trkpt>
      <trkpt lat="44.54217" lon="6.84183">
        <ele>3109.049</ele>
        <time>2012-09-15T10:59:37Z</time>
      </trkpt>
      <trkpt lat="44.54219" lon="6.84189">
        <ele>3109.928</ele>
        <time>2012-09-15T10:59:47Z</time>
      </trkpt>
      <trkpt lat="44.5422" lon="6.84195">
        <ele>3109.547</ele>
        <time>2012-09-15T10:59:56Z</time>
      </trkpt>
      <trkpt lat="44.54222" lon="6.842">
        <ele>3110.769</ele>
        <time>2012-09-15T11:00:06Z</time>
      </trkpt>
      <trkpt lat="44.54224" lon="6.842">
        <ele>3111.58</ele>
        <time>2012-09-15T11:00:11Z</time>
      </trkpt>
      <trkpt lat="44.54233" lon="6.84202">
        <ele>3116.889</ele>
        <time>2012-09-15T11:00:45Z</time>
      </trkpt>
      <trkpt lat="44.54235" lon="6.84208">
        <ele>3116.997</ele>
        <time>2012-09-15T11:00:57Z</time>
      </trkpt>
      <trkpt lat="44.54236" lon="6.84211">
        <ele>3116.877</ele>
        <time>2012-09-15T11:01:03Z</time>
      </trkpt>
      <trkpt lat="44.54238" lon="6.84213">
        <ele>3117.288</ele>
        <time>2012-09-15T11:01:12Z</time>
      </trkpt>
      <trkpt lat="44.54242" lon="6.84217">
        <ele>3119.817</ele>
        <time>2012-09-15T11:01:30Z</time>
      </trkpt>
      <trkpt lat="44.54243" lon="6.8422">
        <ele>3124.56</ele>
        <time>2012-09-15T11:01:41Z</time>
      </trkpt>
      <trkpt lat="44.54247" lon="6.84224">
        <ele>3127.908</ele>
        <time>2012-09-15T11:02:01Z</time>
      </trkpt>
      <trkpt lat="44.54249" lon="6.84226">
        <ele>3128.158</ele>
        <time>2012-09-15T11:02:08Z</time>
      </trkpt>
      <trkpt lat="44.5425" lon="6.84226">
        <ele>3128.067</ele>
        <time>2012-09-15T11:02:14Z</time>
      </trkpt>
      <trkpt lat="44.54253" lon="6.84226">
        <ele>3128.689</ele>
        <time>2012-09-15T11:02:23Z</time>
      </trkpt>
      <trkpt lat="44.54253" lon="6.84229">
        <ele>3129.087</ele>
        <time>2012-09-15T11:02:29Z</time>
      </trkpt>
      <trkpt lat="44.54254" lon="6.84233">
        <ele>3129.508</ele>
        <time>2012-09-15T11:02:37Z</time>
      </trkpt>
      <trkpt lat="44.54255" lon="6.84236">
        <ele>3130.908</ele>
        <time>2012-09-15T11:02:45Z</time>
      </trkpt>
      <trkpt lat="44.54258" lon="6.84237">
        <ele>3132.82</ele>
        <time>2012-09-15T11:02:56Z</time>
      </trkpt>
      <trkpt lat="44.54261" lon="6.84244">
        <ele>3136.49</ele>
        <time>2012-09-15T11:03:14Z</time>
      </trkpt>
      <trkpt lat="44.54263" lon="6.84244">
        <ele>3137.249</ele>
        <time>2012-09-15T11:03:19Z</time>
      </trkpt>
      <trkpt lat="44.54266" lon="6.84241">
        <ele>3137.819</ele>
        <time>2012-09-15T11:03:29Z</time>
      </trkpt>
      <trkpt lat="44.54269" lon="6.84241">
        <ele>3138.689</ele>
        <time>2012-09-15T11:03:37Z</time>
      </trkpt>
      <trkpt lat="44.5428" lon="6.84233">
        <ele>3145.968</ele>
        <time>2012-09-15T11:04:19Z</time>
      </trkpt>
      <trkpt lat="44.54283" lon="6.84237">
        <ele>3143.61</ele>
        <time>2012-09-15T11:06:32Z</time>
      </trkpt>
      <trkpt lat="44.54284" lon="6.8424">
        <ele>3147.221</ele>
        <time>2012-09-15T11:06:41Z</time>
      </trkpt>
      <trkpt lat="44.54286" lon="6.84243">
        <ele>3150.45</ele>
        <time>2012-09-15T11:06:51Z</time>
      </trkpt>
      <trkpt lat="44.54287" lon="6.84247">
        <ele>3150.837</ele>
        <time>2012-09-15T11:06:58Z</time>
      </trkpt>
      <trkpt lat="44.54289" lon="6.84249">
        <ele>3151.448</ele>
        <time>2012-09-15T11:07:06Z</time>
      </trkpt>
      <trkpt lat="44.54292" lon="6.84248">
        <ele>3153.511</ele>
        <time>2012-09-15T11:07:15Z</time>
      </trkpt>
      <trkpt lat="44.54295" lon="6.84243">
        <ele>3154.809</ele>
        <time>2012-09-15T11:07:25Z</time>
      </trkpt>
      <trkpt lat="44.54298" lon="6.8424">
        <ele>3156.059</ele>
        <time>2012-09-15T11:07:35Z</time>
      </trkpt>
      <trkpt lat="44.543" lon="6.84239">
        <ele>3157.42</ele>
        <time>2012-09-15T11:07:42Z</time>
      </trkpt>
      <trkpt lat="44.54309" lon="6.84236">
        <ele>3164.306</ele>
        <time>2012-09-15T11:08:26Z</time>
      </trkpt>
      <trkpt lat="44.5431" lon="6.8424">
        <ele>3165.14</ele>
        <time>2012-09-15T11:08:35Z</time>
      </trkpt>
      <trkpt lat="44.54311" lon="6.84244">
        <ele>3165.348</ele>
        <time>2012-09-15T11:08:43Z</time>
      </trkpt>
      <trkpt lat="44.54312" lon="6.84248">
        <ele>3165.367</ele>
        <time>2012-09-15T11:08:49Z</time>
      </trkpt>
      <trkpt lat="44.54313" lon="6.84252">
        <ele>3165.407</ele>
        <time>2012-09-15T11:08:57Z</time>
      </trkpt>
      <trkpt lat="44.54313" lon="6.84255">
        <ele>3165.697</ele>
        <time>2012-09-15T11:09:03Z</time>
      </trkpt>
      <trkpt lat="44.54313" lon="6.8426">
        <ele>3166.908</ele>
        <time>2012-09-15T11:09:13Z</time>
      </trkpt>
      <trkpt lat="44.54314" lon="6.84263">
        <ele>3167.318</ele>
        <time>2012-09-15T11:09:21Z</time>
      </trkpt>
      <trkpt lat="44.54314" lon="6.84268">
        <ele>3167.657</ele>
        <time>2012-09-15T11:09:29Z</time>
      </trkpt>
      <trkpt lat="44.54314" lon="6.84275">
        <ele>3168.128</ele>
        <time>2012-09-15T11:09:38Z</time>
      </trkpt>
      <trkpt lat="44.54315" lon="6.84279">
        <ele>3171.791</ele>
        <time>2012-09-15T11:09:47Z</time>
      </trkpt>
      <trkpt lat="44.54316" lon="6.84283">
        <ele>3172.289</ele>
        <time>2012-09-15T11:09:54Z</time>
      </trkpt>
      <trkpt lat="44.54318" lon="6.84284">
        <ele>3172.74</ele>
        <time>2012-09-15T11:10:01Z</time>
      </trkpt>
      <trkpt lat="44.5432" lon="6.8428">
        <ele>3173.58</ele>
        <time>2012-09-15T11:10:09Z</time>
      </trkpt>
      <trkpt lat="44.54322" lon="6.84277">
        <ele>3174.9</ele>
        <time>2012-09-15T11:10:17Z</time>
      </trkpt>
      <trkpt lat="44.54327" lon="6.84278">
        <ele>3178.148</ele>
        <time>2012-09-15T11:10:39Z</time>
      </trkpt>
      <trkpt lat="44.54327" lon="6.84281">
        <ele>3180.329</ele>
        <time>2012-09-15T11:10:47Z</time>
      </trkpt>
      <trkpt lat="44.54329" lon="6.84284">
        <ele>3182.189</ele>
        <time>2012-09-15T11:10:57Z</time>
      </trkpt>
      <trkpt lat="44.54332" lon="6.84289">
        <ele>3183.958</ele>
        <time>2012-09-15T11:11:11Z</time>
      </trkpt>
      <trkpt lat="44.54334" lon="6.84291">
        <ele>3184.127</ele>
        <time>2012-09-15T11:11:18Z</time>
      </trkpt>
      <trkpt lat="44.54337" lon="6.84286">
        <ele>3186.551</ele>
        <time>2012-09-15T11:11:34Z</time>
      </trkpt>
      <trkpt lat="44.54337" lon="6.84283">
        <ele>3190.241</ele>
        <time>2012-09-15T11:14:19Z</time>
      </trkpt>
      <trkpt lat="44.54339" lon="6.8428">
        <ele>3191.19</ele>
        <time>2012-09-15T11:14:25Z</time>
      </trkpt>
      <trkpt lat="44.54342" lon="6.84276">
        <ele>3192.68</ele>
        <time>2012-09-15T11:14:33Z</time>
      </trkpt>
      <trkpt lat="44.54345" lon="6.84274">
        <ele>3194.602</ele>
        <time>2012-09-15T11:14:40Z</time>
      </trkpt>
      <trkpt lat="44.54347" lon="6.84273">
        <ele>3196.711</ele>
        <time>2012-09-15T11:14:47Z</time>
      </trkpt>
      <trkpt lat="44.54348" lon="6.84275">
        <ele>3198.111</ele>
        <time>2012-09-15T11:14:52Z</time>
      </trkpt>
      <trkpt lat="44.54348" lon="6.84279">
        <ele>3198.948</ele>
        <time>2012-09-15T11:14:58Z</time>
      </trkpt>
      <trkpt lat="44.5435" lon="6.84281">
        <ele>3199.76</ele>
        <time>2012-09-15T11:15:04Z</time>
      </trkpt>
      <trkpt lat="44.54353" lon="6.84281">
        <ele>3201.318</ele>
        <time>2012-09-15T11:15:18Z</time>
      </trkpt>
      <trkpt lat="44.54356" lon="6.84276">
        <ele>3203.781</ele>
        <time>2012-09-15T11:15:34Z</time>
      </trkpt>
      <trkpt lat="44.54359" lon="6.84273">
        <ele>3205.429</ele>
        <time>2012-09-15T11:15:43Z</time>
      </trkpt>
      <trkpt lat="44.54368" lon="6.84268">
        <ele>3210.338</ele>
        <time>2012-09-15T11:16:16Z</time>
      </trkpt>
      <trkpt lat="44.54372" lon="6.84267">
        <ele>3212.26</ele>
        <time>2012-09-15T11:16:28Z</time>
      </trkpt>
      <trkpt lat="44.54375" lon="6.84266">
        <ele>3214.04</ele>
        <time>2012-09-15T11:16:39Z</time>
      </trkpt>
      <trkpt lat="44.54374" lon="6.84266">
        <ele>3214.426</ele>
        <time>2012-09-15T11:16:50Z</time>
      </trkpt>
      <trkpt lat="44.54374" lon="6.84271">
        <ele>3214.16</ele>
        <time>2012-09-15T11:18:29Z</time>
      </trkpt>
      <trkpt lat="44.54375" lon="6.84275">
        <ele>3215.3</ele>
        <time>2012-09-15T11:18:36Z</time>
      </trkpt>
      <trkpt lat="44.54375" lon="6.84281">
        <ele>3216.26</ele>
        <time>2012-09-15T11:18:46Z</time>
      </trkpt>
      <trkpt lat="44.54376" lon="6.84287">
        <ele>3218.21</ele>
        <time>2012-09-15T11:18:54Z</time>
      </trkpt>
      <trkpt lat="44.54378" lon="6.84286">
        <ele>3220.032</ele>
        <time>2012-09-15T11:19:00Z</time>
      </trkpt>
      <trkpt lat="44.5438" lon="6.84284">
        <ele>3221.331</ele>
        <time>2012-09-15T11:19:06Z</time>
      </trkpt>
      <trkpt lat="44.54387" lon="6.84281">
        <ele>3226.811</ele>
        <time>2012-09-15T11:19:29Z</time>
      </trkpt>
      <trkpt lat="44.54386" lon="6.84282">
        <ele>3224.364</ele>
        <time>2012-09-15T11:19:43Z</time>
      </trkpt>
      <trkpt lat="44.54386" lon="6.84282">
        <ele>3224.316</ele>
        <time>2012-09-15T11:19:45Z</time>
      </trkpt>
      <trkpt lat="44.54386" lon="6.84283">
        <ele>3224.475</ele>
        <time>2012-09-15T11:19:52Z</time>
      </trkpt>
      <trkpt lat="44.54387" lon="6.84291">
        <ele>3230.291</ele>
        <time>2012-09-15T11:20:24Z</time>
      </trkpt>
      <trkpt lat="44.54385" lon="6.84295">
        <ele>3230.603</ele>
        <time>2012-09-15T11:20:29Z</time>
      </trkpt>
      <trkpt lat="44.54386" lon="6.84297">
        <ele>3231.069</ele>
        <time>2012-09-15T11:20:31Z</time>
      </trkpt>
      <trkpt lat="44.54386" lon="6.84299">
        <ele>3231.438</ele>
        <time>2012-09-15T11:20:38Z</time>
      </trkpt>
      <trkpt lat="44.54387" lon="6.84302">
        <ele>3227.542</ele>
        <time>2012-09-15T11:20:54Z</time>
      </trkpt>
      <trkpt lat="44.54391" lon="6.84308">
        <ele>3228.045</ele>
        <time>2012-09-15T11:20:58Z</time>
      </trkpt>
      <trkpt lat="44.54394" lon="6.84313">
        <ele>3227.783</ele>
        <time>2012-09-15T11:21:04Z</time>
      </trkpt>
      <trkpt lat="44.54394" lon="6.84316">
        <ele>3231.03</ele>
        <time>2012-09-15T11:21:11Z</time>
      </trkpt>
      <trkpt lat="44.54395" lon="6.84315">
        <ele>3231.798</ele>
        <time>2012-09-15T11:21:19Z</time>
      </trkpt>
      <trkpt lat="44.54397" lon="6.84313">
        <ele>3235.552</ele>
        <time>2012-09-15T11:21:24Z</time>
      </trkpt>
      <trkpt lat="44.54399" lon="6.8431">
        <ele>3237.381</ele>
        <time>2012-09-15T11:21:29Z</time>
      </trkpt>
      <trkpt lat="44.54402" lon="6.84308">
        <ele>3238.49</ele>
        <time>2012-09-15T11:21:35Z</time>
      </trkpt>
      <trkpt lat="44.544" lon="6.84308">
        <ele>3239.51</ele>
        <time>2012-09-15T11:21:41Z</time>
      </trkpt>
      <trkpt lat="44.54404" lon="6.84319">
        <ele>3244.843</ele>
        <time>2012-09-15T11:22:04Z</time>
      </trkpt>
      <trkpt lat="44.54407" lon="6.8432">
        <ele>3244.57</ele>
        <time>2012-09-15T11:22:10Z</time>
      </trkpt>
      <trkpt lat="44.54408" lon="6.84323">
        <ele>3246.022</ele>
        <time>2012-09-15T11:22:15Z</time>
      </trkpt>
      <trkpt lat="44.54407" lon="6.84325">
        <ele>3246.742</ele>
        <time>2012-09-15T11:22:19Z</time>
      </trkpt>
      <trkpt lat="44.54408" lon="6.84324">
        <ele>3248.449</ele>
        <time>2012-09-15T11:22:27Z</time>
      </trkpt>
      <trkpt lat="44.54405" lon="6.84321">
        <ele>3244.75</ele>
        <time>2012-09-15T11:22:34Z</time>
      </trkpt>
      <trkpt lat="44.54409" lon="6.84325">
        <ele>3245.019</ele>
        <time>2012-09-15T11:22:47Z</time>
      </trkpt>
      <trkpt lat="44.54413" lon="6.84329">
        <ele>3247.7</ele>
        <time>2012-09-15T11:22:54Z</time>
      </trkpt>
      <trkpt lat="44.54413" lon="6.84331">
        <ele>3250.725</ele>
        <time>2012-09-15T11:22:59Z</time>
      </trkpt>
      <trkpt lat="44.54417" lon="6.84334">
        <ele>3251.719</ele>
        <time>2012-09-15T11:23:12Z</time>
      </trkpt>
      <trkpt lat="44.5442" lon="6.84334">
        <ele>3250.686</ele>
        <time>2012-09-15T11:23:16Z</time>
      </trkpt>
      <trkpt lat="44.54421" lon="6.8433">
        <ele>3253.591</ele>
        <time>2012-09-15T11:23:22Z</time>
      </trkpt>
      <trkpt lat="44.54429" lon="6.84331">
        <ele>3257.502</ele>
        <time>2012-09-15T11:23:30Z</time>
      </trkpt>
      <trkpt lat="44.54429" lon="6.84325">
        <ele>3258.548</ele>
        <time>2012-09-15T11:23:59Z</time>
      </trkpt>
      <trkpt lat="44.54434" lon="6.84322">
        <ele>3258.949</ele>
        <time>2012-09-15T11:24:10Z</time>
      </trkpt>
      <trkpt lat="44.54438" lon="6.84322">
        <ele>3258.489</ele>
        <time>2012-09-15T11:24:14Z</time>
      </trkpt>
      <trkpt lat="44.54439" lon="6.84317">
        <ele>3260.368</ele>
        <time>2012-09-15T11:24:22Z</time>
      </trkpt>
      <trkpt lat="44.5444" lon="6.8432">
        <ele>3260.738</ele>
        <time>2012-09-15T11:24:28Z</time>
      </trkpt>
      <trkpt lat="44.5444" lon="6.84325">
        <ele>3263.458</ele>
        <time>2012-09-15T11:24:44Z</time>
      </trkpt>
      <trkpt lat="44.54442" lon="6.84329">
        <ele>3266.77</ele>
        <time>2012-09-15T11:24:52Z</time>
      </trkpt>
      <trkpt lat="44.54451" lon="6.84339">
        <ele>3271.152</ele>
        <time>2012-09-15T11:25:23Z</time>
      </trkpt>
      <trkpt lat="44.54453" lon="6.84337">
        <ele>3271.428</ele>
        <time>2012-09-15T11:25:28Z</time>
      </trkpt>
      <trkpt lat="44.54455" lon="6.84334">
        <ele>3273.711</ele>
        <time>2012-09-15T11:25:38Z</time>
      </trkpt>
      <trkpt lat="44.54456" lon="6.84332">
        <ele>3274.76</ele>
        <time>2012-09-15T11:25:43Z</time>
      </trkpt>
      <trkpt lat="44.54458" lon="6.8433">
        <ele>3277.312</ele>
        <time>2012-09-15T11:25:48Z</time>
      </trkpt>
      <trkpt lat="44.54458" lon="6.84328">
        <ele>3278.559</ele>
        <time>2012-09-15T11:25:53Z</time>
      </trkpt>
      <trkpt lat="44.54461" lon="6.8433">
        <ele>3279.027</ele>
        <time>2012-09-15T11:26:01Z</time>
      </trkpt>
      <trkpt lat="44.54463" lon="6.84329">
        <ele>3278.836</ele>
        <time>2012-09-15T11:26:14Z</time>
      </trkpt>
      <trkpt lat="44.54464" lon="6.84332">
        <ele>3280.089</ele>
        <time>2012-09-15T11:26:20Z</time>
      </trkpt>
      <trkpt lat="44.54466" lon="6.84331">
        <ele>3281.369</ele>
        <time>2012-09-15T11:26:27Z</time>
      </trkpt>
      <trkpt lat="44.54469" lon="6.84326">
        <ele>3282.669</ele>
        <time>2012-09-15T11:26:36Z</time>
      </trkpt>
      <trkpt lat="44.5447" lon="6.84326">
        <ele>3284.801</ele>
        <time>2012-09-15T11:26:42Z</time>
      </trkpt>
      <trkpt lat="44.54471" lon="6.84323">
        <ele>3287.001</ele>
        <time>2012-09-15T11:26:48Z</time>
      </trkpt>
      <trkpt lat="44.54474" lon="6.84322">
        <ele>3288.121</ele>
        <time>2012-09-15T11:26:53Z</time>
      </trkpt>
      <trkpt lat="44.54474" lon="6.84321">
        <ele>3290.62</ele>
        <time>2012-09-15T11:26:59Z</time>
      </trkpt>
      <trkpt lat="44.54476" lon="6.84318">
        <ele>3293.19</ele>
        <time>2012-09-15T11:27:10Z</time>
      </trkpt>
      <trkpt lat="44.54479" lon="6.84319">
        <ele>3292.958</ele>
        <time>2012-09-15T11:27:15Z</time>
      </trkpt>
      <trkpt lat="44.54481" lon="6.84317">
        <ele>3292.698</ele>
        <time>2012-09-15T11:27:19Z</time>
      </trkpt>
      <trkpt lat="44.54483" lon="6.84315">
        <ele>3291.355</ele>
        <time>2012-09-15T11:27:24Z</time>
      </trkpt>
      <trkpt lat="44.54483" lon="6.84315">
        <ele>3291.646</ele>
        <time>2012-09-15T11:27:25Z</time>
      </trkpt>
      <trkpt lat="44.54483" lon="6.8432">
        <ele>3293.74</ele>
        <time>2012-09-15T11:27:32Z</time>
      </trkpt>
      <trkpt lat="44.54482" lon="6.84324">
        <ele>3293.85</ele>
        <time>2012-09-15T11:27:38Z</time>
      </trkpt>
      <trkpt lat="44.54484" lon="6.84327">
        <ele>3298.08</ele>
        <time>2012-09-15T11:27:45Z</time>
      </trkpt>
      <trkpt lat="44.54486" lon="6.84328">
        <ele>3296.908</ele>
        <time>2012-09-15T11:27:53Z</time>
      </trkpt>
      <trkpt lat="44.54488" lon="6.84329">
        <ele>3296.537</ele>
        <time>2012-09-15T11:28:01Z</time>
      </trkpt>
      <trkpt lat="44.54493" lon="6.84329">
        <ele>3296.147</ele>
        <time>2012-09-15T11:28:07Z</time>
      </trkpt>
      <trkpt lat="44.54494" lon="6.8433">
        <ele>3298.958</ele>
        <time>2012-09-15T11:28:14Z</time>
      </trkpt>
      <trkpt lat="44.54496" lon="6.84332">
        <ele>3300.337</ele>
        <time>2012-09-15T11:28:21Z</time>
      </trkpt>
      <trkpt lat="44.54495" lon="6.84335">
        <ele>3301.898</ele>
        <time>2012-09-15T11:28:28Z</time>
      </trkpt>
      <trkpt lat="44.54498" lon="6.84334">
        <ele>3302.808</ele>
        <time>2012-09-15T11:28:33Z</time>
      </trkpt>
      <trkpt lat="44.54502" lon="6.84334">
        <ele>3302.968</ele>
        <time>2012-09-15T11:28:41Z</time>
      </trkpt>
      <trkpt lat="44.54505" lon="6.84335">
        <ele>3304.848</ele>
        <time>2012-09-15T11:28:49Z</time>
      </trkpt>
      <trkpt lat="44.54504" lon="6.84341">
        <ele>3306.96</ele>
        <time>2012-09-15T11:28:57Z</time>
      </trkpt>
      <trkpt lat="44.54503" lon="6.84344">
        <ele>3309.59</ele>
        <time>2012-09-15T11:29:04Z</time>
      </trkpt>
      <trkpt lat="44.54504" lon="6.84347">
        <ele>3311.039</ele>
        <time>2012-09-15T11:29:10Z</time>
      </trkpt>
      <trkpt lat="44.54507" lon="6.84352">
        <ele>3311.021</ele>
        <time>2012-09-15T11:29:21Z</time>
      </trkpt>
      <trkpt lat="44.54509" lon="6.84353">
        <ele>3313.341</ele>
        <time>2012-09-15T11:29:29Z</time>
      </trkpt>
      <trkpt lat="44.54508" lon="6.84355">
        <ele>3319.585</ele>
        <time>2012-09-15T11:29:41Z</time>
      </trkpt>
      <trkpt lat="44.54501" lon="6.84362">
        <ele>3336.35</ele>
        <time>2012-09-15T11:30:13Z</time>
      </trkpt>
      <trkpt lat="44.54509" lon="6.8435">
        <ele>3321.501</ele>
        <time>2012-09-15T11:30:46Z</time>
      </trkpt>
      <trkpt lat="44.5451" lon="6.84349">
        <ele>3321.942</ele>
        <time>2012-09-15T11:30:52Z</time>
      </trkpt>
      <trkpt lat="44.54511" lon="6.84347">
        <ele>3321.974</ele>
        <time>2012-09-15T11:30:56Z</time>
      </trkpt>
      <trkpt lat="44.54505" lon="6.84347">
        <ele>3317.864</ele>
        <time>2012-09-15T11:31:02Z</time>
      </trkpt>
      <trkpt lat="44.54506" lon="6.84346">
        <ele>3313.346</ele>
        <time>2012-09-15T11:31:18Z</time>
      </trkpt>
      <trkpt lat="44.54506" lon="6.84347">
        <ele>3310.527</ele>
        <time>2012-09-15T11:31:42Z</time>
      </trkpt>
      <trkpt lat="44.54506" lon="6.84346">
        <ele>3313.458</ele>
        <time>2012-09-15T11:32:08Z</time>
      </trkpt>
      <trkpt lat="44.5451" lon="6.84341">
        <ele>3314.749</ele>
        <time>2012-09-15T11:32:15Z</time>
      </trkpt>
      <trkpt lat="44.54509" lon="6.84341">
        <ele>3311.606</ele>
        <time>2012-09-15T11:34:05Z</time>
      </trkpt>
      <trkpt lat="44.54512" lon="6.8434">
        <ele>3312.047</ele>
        <time>2012-09-15T11:37:46Z</time>
      </trkpt>
      <trkpt lat="44.54507" lon="6.84335">
        <ele>3306.082</ele>
        <time>2012-09-15T12:14:40Z</time>
      </trkpt>
      <trkpt lat="44.54509" lon="6.84339">
        <ele>3308.613</ele>
        <time>2012-09-15T12:29:15Z</time>
      </trkpt>
      <trkpt lat="44.54506" lon="6.84338">
        <ele>3316.887</ele>
        <time>2012-09-15T12:30:20Z</time>
      </trkpt>
      <trkpt lat="44.545" lon="6.84332">
        <ele>3310.869</ele>
        <time>2012-09-15T12:30:27Z</time>
      </trkpt>
      <trkpt lat="44.54498" lon="6.84331">
        <ele>3310.396</ele>
        <time>2012-09-15T12:30:28Z</time>
      </trkpt>
      <trkpt lat="44.54494" lon="6.84332">
        <ele>3309.355</ele>
        <time>2012-09-15T12:30:31Z</time>
      </trkpt>
      <trkpt lat="44.54493" lon="6.8433">
        <ele>3304.808</ele>
        <time>2012-09-15T12:30:34Z</time>
      </trkpt>
      <trkpt lat="44.54492" lon="6.84327">
        <ele>3303.073</ele>
        <time>2012-09-15T12:30:37Z</time>
      </trkpt>
      <trkpt lat="44.54488" lon="6.84327">
        <ele>3301.358</ele>
        <time>2012-09-15T12:30:41Z</time>
      </trkpt>
      <trkpt lat="44.54484" lon="6.84328">
        <ele>3299.638</ele>
        <time>2012-09-15T12:30:44Z</time>
      </trkpt>
      <trkpt lat="44.54483" lon="6.84325">
        <ele>3297.399</ele>
        <time>2012-09-15T12:30:47Z</time>
      </trkpt>
      <trkpt lat="44.54482" lon="6.84324">
        <ele>3296.783</ele>
        <time>2012-09-15T12:30:49Z</time>
      </trkpt>
      <trkpt lat="44.5448" lon="6.84322">
        <ele>3293.176</ele>
        <time>2012-09-15T12:30:53Z</time>
      </trkpt>
      <trkpt lat="44.54482" lon="6.84318">
        <ele>3290.663</ele>
        <time>2012-09-15T12:30:56Z</time>
      </trkpt>
      <trkpt lat="44.54478" lon="6.84317">
        <ele>3289.265</ele>
        <time>2012-09-15T12:31:01Z</time>
      </trkpt>
      <trkpt lat="44.54472" lon="6.8432">
        <ele>3287.477</ele>
        <time>2012-09-15T12:31:06Z</time>
      </trkpt>
      <trkpt lat="44.54465" lon="6.84326">
        <ele>3285.279</ele>
        <time>2012-09-15T12:31:12Z</time>
      </trkpt>
      <trkpt lat="44.5446" lon="6.8433">
        <ele>3281.383</ele>
        <time>2012-09-15T12:31:18Z</time>
      </trkpt>
      <trkpt lat="44.54457" lon="6.84328">
        <ele>3279.326</ele>
        <time>2012-09-15T12:31:22Z</time>
      </trkpt>
      <trkpt lat="44.5445" lon="6.84337">
        <ele>3277.325</ele>
        <time>2012-09-15T12:31:29Z</time>
      </trkpt>
      <trkpt lat="44.54448" lon="6.84339">
        <ele>3275.004</ele>
        <time>2012-09-15T12:31:33Z</time>
      </trkpt>
      <trkpt lat="44.54446" lon="6.84338">
        <ele>3273.788</ele>
        <time>2012-09-15T12:31:36Z</time>
      </trkpt>
      <trkpt lat="44.54443" lon="6.84331">
        <ele>3268.836</ele>
        <time>2012-09-15T12:31:41Z</time>
      </trkpt>
      <trkpt lat="44.54439" lon="6.8432">
        <ele>3262.206</ele>
        <time>2012-09-15T12:31:47Z</time>
      </trkpt>
      <trkpt lat="44.54437" lon="6.84318">
        <ele>3260.852</ele>
        <time>2012-09-15T12:31:50Z</time>
      </trkpt>
      <trkpt lat="44.54433" lon="6.84322">
        <ele>3258.821</ele>
        <time>2012-09-15T12:31:55Z</time>
      </trkpt>
      <trkpt lat="44.54428" lon="6.84325">
        <ele>3256.891</ele>
        <time>2012-09-15T12:32:01Z</time>
      </trkpt>
      <trkpt lat="44.54421" lon="6.84332">
        <ele>3252.513</ele>
        <time>2012-09-15T12:32:07Z</time>
      </trkpt>
      <trkpt lat="44.5442" lon="6.84335">
        <ele>3251.391</ele>
        <time>2012-09-15T12:32:09Z</time>
      </trkpt>
      <trkpt lat="44.54416" lon="6.84339">
        <ele>3248.797</ele>
        <time>2012-09-15T12:32:13Z</time>
      </trkpt>
      <trkpt lat="44.54412" lon="6.84332">
        <ele>3245.22</ele>
        <time>2012-09-15T12:32:19Z</time>
      </trkpt>
      <trkpt lat="44.54411" lon="6.84331">
        <ele>3243.908</ele>
        <time>2012-09-15T12:32:21Z</time>
      </trkpt>
      <trkpt lat="44.54406" lon="6.84324">
        <ele>3237.342</ele>
        <time>2012-09-15T12:32:29Z</time>
      </trkpt>
      <trkpt lat="44.544" lon="6.84311">
        <ele>3233.553</ele>
        <time>2012-09-15T12:32:36Z</time>
      </trkpt>
      <trkpt lat="44.54399" lon="6.8431">
        <ele>3234.136</ele>
        <time>2012-09-15T12:32:40Z</time>
      </trkpt>
      <trkpt lat="44.54399" lon="6.84311">
        <ele>3233.078</ele>
        <time>2012-09-15T12:32:43Z</time>
      </trkpt>
      <trkpt lat="44.54394" lon="6.8432">
        <ele>3233.339</ele>
        <time>2012-09-15T12:32:50Z</time>
      </trkpt>
      <trkpt lat="44.54394" lon="6.8432">
        <ele>3233.065</ele>
        <time>2012-09-15T12:32:51Z</time>
      </trkpt>
      <trkpt lat="44.54388" lon="6.84321">
        <ele>3231.702</ele>
        <time>2012-09-15T12:32:57Z</time>
      </trkpt>
      <trkpt lat="44.54387" lon="6.8432">
        <ele>3231.167</ele>
        <time>2012-09-15T12:32:59Z</time>
      </trkpt>
      <trkpt lat="44.54386" lon="6.84307">
        <ele>3227.957</ele>
        <time>2012-09-15T12:33:07Z</time>
      </trkpt>
      <trkpt lat="44.54386" lon="6.843">
        <ele>3225.827</ele>
        <time>2012-09-15T12:33:12Z</time>
      </trkpt>
      <trkpt lat="44.54386" lon="6.84294">
        <ele>3223.918</ele>
        <time>2012-09-15T12:33:17Z</time>
      </trkpt>
      <trkpt lat="44.54385" lon="6.84288">
        <ele>3220.384</ele>
        <time>2012-09-15T12:33:21Z</time>
      </trkpt>
      <trkpt lat="44.54385" lon="6.84285">
        <ele>3219.274</ele>
        <time>2012-09-15T12:33:23Z</time>
      </trkpt>
      <trkpt lat="44.54388" lon="6.84285">
        <ele>3219.747</ele>
        <time>2012-09-15T12:33:31Z</time>
      </trkpt>
      <trkpt lat="44.54388" lon="6.84283">
        <ele>3222.083</ele>
        <time>2012-09-15T12:39:54Z</time>
      </trkpt>
      <trkpt lat="44.54386" lon="6.84284">
        <ele>3221.134</ele>
        <time>2012-09-15T12:40:01Z</time>
      </trkpt>
      <trkpt lat="44.54383" lon="6.84285">
        <ele>3220.039</ele>
        <time>2012-09-15T12:40:39Z</time>
      </trkpt>
      <trkpt lat="44.54377" lon="6.84289">
        <ele>3216.625</ele>
        <time>2012-09-15T12:40:45Z</time>
      </trkpt>
      <trkpt lat="44.54375" lon="6.84291">
        <ele>3214.686</ele>
        <time>2012-09-15T12:40:50Z</time>
      </trkpt>
      <trkpt lat="44.54375" lon="6.84281">
        <ele>3211.525</ele>
        <time>2012-09-15T12:40:57Z</time>
      </trkpt>
      <trkpt lat="44.54375" lon="6.84276">
        <ele>3210.604</ele>
        <time>2012-09-15T12:40:59Z</time>
      </trkpt>
      <trkpt lat="44.54369" lon="6.84268">
        <ele>3206.859</ele>
        <time>2012-09-15T12:41:05Z</time>
      </trkpt>
      <trkpt lat="44.54359" lon="6.84273">
        <ele>3202.317</ele>
        <time>2012-09-15T12:41:10Z</time>
      </trkpt>
      <trkpt lat="44.54352" lon="6.8428">
        <ele>3198.041</ele>
        <time>2012-09-15T12:41:14Z</time>
      </trkpt>
      <trkpt lat="44.54349" lon="6.84283">
        <ele>3194.709</ele>
        <time>2012-09-15T12:41:18Z</time>
      </trkpt>
      <trkpt lat="44.54348" lon="6.84277">
        <ele>3192.852</ele>
        <time>2012-09-15T12:41:21Z</time>
      </trkpt>
      <trkpt lat="44.54343" lon="6.84278">
        <ele>3189.327</ele>
        <time>2012-09-15T12:41:26Z</time>
      </trkpt>
      <trkpt lat="44.54336" lon="6.84288">
        <ele>3185.243</ele>
        <time>2012-09-15T12:41:32Z</time>
      </trkpt>
      <trkpt lat="44.54333" lon="6.84293">
        <ele>3182.82</ele>
        <time>2012-09-15T12:41:35Z</time>
      </trkpt>
      <trkpt lat="44.54326" lon="6.84283">
        <ele>3177.344</ele>
        <time>2012-09-15T12:41:41Z</time>
      </trkpt>
      <trkpt lat="44.54322" lon="6.84273">
        <ele>3173.93</ele>
        <time>2012-09-15T12:41:47Z</time>
      </trkpt>
      <trkpt lat="44.54322" lon="6.84273">
        <ele>3173.554</ele>
        <time>2012-09-15T12:41:49Z</time>
      </trkpt>
      <trkpt lat="44.54316" lon="6.84261">
        <ele>3168.819</ele>
        <time>2012-09-15T12:41:55Z</time>
      </trkpt>
      <trkpt lat="44.54315" lon="6.84257">
        <ele>3167.278</ele>
        <time>2012-09-15T12:41:57Z</time>
      </trkpt>
      <trkpt lat="44.54312" lon="6.84245">
        <ele>3162.551</ele>
        <time>2012-09-15T12:42:02Z</time>
      </trkpt>
      <trkpt lat="44.54306" lon="6.8424">
        <ele>3159.486</ele>
        <time>2012-09-15T12:42:06Z</time>
      </trkpt>
      <trkpt lat="44.54299" lon="6.84237">
        <ele>3155.664</ele>
        <time>2012-09-15T12:42:11Z</time>
      </trkpt>
      <trkpt lat="44.54288" lon="6.84249">
        <ele>3149.73</ele>
        <time>2012-09-15T12:42:18Z</time>
      </trkpt>
      <trkpt lat="44.54285" lon="6.8425">
        <ele>3148.289</ele>
        <time>2012-09-15T12:42:20Z</time>
      </trkpt>
      <trkpt lat="44.54283" lon="6.84243">
        <ele>3145.14</ele>
        <time>2012-09-15T12:42:25Z</time>
      </trkpt>
      <trkpt lat="44.5428" lon="6.8424">
        <ele>3142.548</ele>
        <time>2012-09-15T12:42:28Z</time>
      </trkpt>
      <trkpt lat="44.54273" lon="6.84237">
        <ele>3138.524</ele>
        <time>2012-09-15T12:42:33Z</time>
      </trkpt>
      <trkpt lat="44.54271" lon="6.84239">
        <ele>3137.592</ele>
        <time>2012-09-15T12:42:34Z</time>
      </trkpt>
      <trkpt lat="44.54261" lon="6.84243">
        <ele>3132.147</ele>
        <time>2012-09-15T12:42:39Z</time>
      </trkpt>
      <trkpt lat="44.54254" lon="6.84238">
        <ele>3127.407</ele>
        <time>2012-09-15T12:42:44Z</time>
      </trkpt>
      <trkpt lat="44.5425" lon="6.8423">
        <ele>3124.236</ele>
        <time>2012-09-15T12:42:47Z</time>
      </trkpt>
      <trkpt lat="44.54245" lon="6.84224">
        <ele>3121.254</ele>
        <time>2012-09-15T12:42:50Z</time>
      </trkpt>
      <trkpt lat="44.5424" lon="6.84219">
        <ele>3118.222</ele>
        <time>2012-09-15T12:42:53Z</time>
      </trkpt>
      <trkpt lat="44.54235" lon="6.84213">
        <ele>3114.934</ele>
        <time>2012-09-15T12:42:56Z</time>
      </trkpt>
      <trkpt lat="44.54232" lon="6.84205">
        <ele>3111.744</ele>
        <time>2012-09-15T12:42:59Z</time>
      </trkpt>
      <trkpt lat="44.54223" lon="6.84201">
        <ele>3106.076</ele>
        <time>2012-09-15T12:43:04Z</time>
      </trkpt>
      <trkpt lat="44.54218" lon="6.84196">
        <ele>3102.751</ele>
        <time>2012-09-15T12:43:07Z</time>
      </trkpt>
      <trkpt lat="44.5421" lon="6.84182">
        <ele>3099.09</ele>
        <time>2012-09-15T12:43:10Z</time>
      </trkpt>
      <trkpt lat="44.54201" lon="6.84174">
        <ele>3095.053</ele>
        <time>2012-09-15T12:43:13Z</time>
      </trkpt>
      <trkpt lat="44.54191" lon="6.84161">
        <ele>3087.468</ele>
        <time>2012-09-15T12:43:19Z</time>
      </trkpt>
      <trkpt lat="44.54186" lon="6.84149">
        <ele>3082.269</ele>
        <time>2012-09-15T12:43:24Z</time>
      </trkpt>
      <trkpt lat="44.54179" lon="6.84149">
        <ele>3078.366</ele>
        <time>2012-09-15T12:43:28Z</time>
      </trkpt>
      <trkpt lat="44.54175" lon="6.84146">
        <ele>3076.385</ele>
        <time>2012-09-15T12:43:32Z</time>
      </trkpt>
      <trkpt lat="44.54173" lon="6.84146">
        <ele>3075.791</ele>
        <time>2012-09-15T12:43:36Z</time>
      </trkpt>
      <trkpt lat="44.54175" lon="6.84145">
        <ele>3076.081</ele>
        <time>2012-09-15T12:43:41Z</time>
      </trkpt>
      <trkpt lat="44.54178" lon="6.84144">
        <ele>3078.693</ele>
        <time>2012-09-15T12:43:51Z</time>
      </trkpt>
      <trkpt lat="44.54178" lon="6.84143">
        <ele>3078.739</ele>
        <time>2012-09-15T12:44:08Z</time>
      </trkpt>
      <trkpt lat="44.54179" lon="6.84142">
        <ele>3074.677</ele>
        <time>2012-09-15T12:44:51Z</time>
      </trkpt>
      <trkpt lat="44.54174" lon="6.84132">
        <ele>3071.557</ele>
        <time>2012-09-15T12:44:56Z</time>
      </trkpt>
      <trkpt lat="44.5417" lon="6.84125">
        <ele>3069.227</ele>
        <time>2012-09-15T12:45:01Z</time>
      </trkpt>
      <trkpt lat="44.54167" lon="6.84118">
        <ele>3066.635</ele>
        <time>2012-09-15T12:45:04Z</time>
      </trkpt>
      <trkpt lat="44.54164" lon="6.84112">
        <ele>3064.513</ele>
        <time>2012-09-15T12:45:08Z</time>
      </trkpt>
      <trkpt lat="44.5417" lon="6.84103">
        <ele>3059.635</ele>
        <time>2012-09-15T12:45:13Z</time>
      </trkpt>
      <trkpt lat="44.54167" lon="6.84095">
        <ele>3056.297</ele>
        <time>2012-09-15T12:45:18Z</time>
      </trkpt>
      <trkpt lat="44.54166" lon="6.84085">
        <ele>3052.656</ele>
        <time>2012-09-15T12:45:22Z</time>
      </trkpt>
      <trkpt lat="44.54169" lon="6.84074">
        <ele>3049.188</ele>
        <time>2012-09-15T12:45:26Z</time>
      </trkpt>
      <trkpt lat="44.54165" lon="6.84073">
        <ele>3047.576</ele>
        <time>2012-09-15T12:45:28Z</time>
      </trkpt>
      <trkpt lat="44.5416" lon="6.84074">
        <ele>3046.538</ele>
        <time>2012-09-15T12:45:30Z</time>
      </trkpt>
      <trkpt lat="44.54155" lon="6.84069">
        <ele>3042.61</ele>
        <time>2012-09-15T12:45:36Z</time>
      </trkpt>
      <trkpt lat="44.54155" lon="6.84068">
        <ele>3042.203</ele>
        <time>2012-09-15T12:45:37Z</time>
      </trkpt>
      <trkpt lat="44.54159" lon="6.84057">
        <ele>3037.879</ele>
        <time>2012-09-15T12:45:42Z</time>
      </trkpt>
      <trkpt lat="44.5416" lon="6.84054">
        <ele>3037.112</ele>
        <time>2012-09-15T12:45:43Z</time>
      </trkpt>
      <trkpt lat="44.5416" lon="6.84038">
        <ele>3032.129</ele>
        <time>2012-09-15T12:45:48Z</time>
      </trkpt>
      <trkpt lat="44.54162" lon="6.84027">
        <ele>3028.772</ele>
        <time>2012-09-15T12:45:51Z</time>
      </trkpt>
      <trkpt lat="44.54159" lon="6.84009">
        <ele>3023.932</ele>
        <time>2012-09-15T12:45:55Z</time>
      </trkpt>
      <trkpt lat="44.54164" lon="6.83997">
        <ele>3020.714</ele>
        <time>2012-09-15T12:46:00Z</time>
      </trkpt>
      <trkpt lat="44.54167" lon="6.8399">
        <ele>3018.471</ele>
        <time>2012-09-15T12:46:03Z</time>
      </trkpt>
      <trkpt lat="44.5417" lon="6.83953">
        <ele>3012.821</ele>
        <time>2012-09-15T12:46:09Z</time>
      </trkpt>
      <trkpt lat="44.54171" lon="6.83937">
        <ele>3009.27</ele>
        <time>2012-09-15T12:46:12Z</time>
      </trkpt>
      <trkpt lat="44.54176" lon="6.83918">
        <ele>3005.664</ele>
        <time>2012-09-15T12:46:15Z</time>
      </trkpt>
      <trkpt lat="44.54177" lon="6.83909">
        <ele>3004.546</ele>
        <time>2012-09-15T12:46:16Z</time>
      </trkpt>
      <trkpt lat="44.54172" lon="6.8387">
        <ele>2998.244</ele>
        <time>2012-09-15T12:46:21Z</time>
      </trkpt>
      <trkpt lat="44.5417" lon="6.83865">
        <ele>2997.083</ele>
        <time>2012-09-15T12:46:22Z</time>
      </trkpt>
      <trkpt lat="44.54166" lon="6.83858">
        <ele>2995.016</ele>
        <time>2012-09-15T12:46:24Z</time>
      </trkpt>
      <trkpt lat="44.54155" lon="6.83849">
        <ele>2989.947</ele>
        <time>2012-09-15T12:46:29Z</time>
      </trkpt>
      <trkpt lat="44.54138" lon="6.83838">
        <ele>2982.122</ele>
        <time>2012-09-15T12:46:35Z</time>
      </trkpt>
      <trkpt lat="44.54115" lon="6.83815">
        <ele>2971.855</ele>
        <time>2012-09-15T12:46:41Z</time>
      </trkpt>
      <trkpt lat="44.54103" lon="6.83798">
        <ele>2964.296</ele>
        <time>2012-09-15T12:46:45Z</time>
      </trkpt>
      <trkpt lat="44.54089" lon="6.83777">
        <ele>2955.508</ele>
        <time>2012-09-15T12:46:50Z</time>
      </trkpt>
      <trkpt lat="44.54076" lon="6.83762">
        <ele>2948.394</ele>
        <time>2012-09-15T12:46:54Z</time>
      </trkpt>
      <trkpt lat="44.54069" lon="6.83753">
        <ele>2944.688</ele>
        <time>2012-09-15T12:46:56Z</time>
      </trkpt>
      <trkpt lat="44.54061" lon="6.83746">
        <ele>2941.128</ele>
        <time>2012-09-15T12:46:58Z</time>
      </trkpt>
      <trkpt lat="44.54048" lon="6.83731">
        <ele>2935.074</ele>
        <time>2012-09-15T12:47:01Z</time>
      </trkpt>
      <trkpt lat="44.54033" lon="6.83714">
        <ele>2929.054</ele>
        <time>2012-09-15T12:47:05Z</time>
      </trkpt>
      <trkpt lat="44.54016" lon="6.837">
        <ele>2922.58</ele>
        <time>2012-09-15T12:47:09Z</time>
      </trkpt>
      <trkpt lat="44.53984" lon="6.83672">
        <ele>2916.736</ele>
        <time>2012-09-15T12:47:14Z</time>
      </trkpt>
      <trkpt lat="44.53958" lon="6.83649">
        <ele>2910.552</ele>
        <time>2012-09-15T12:47:19Z</time>
      </trkpt>
      <trkpt lat="44.53942" lon="6.83634">
        <ele>2905.241</ele>
        <time>2012-09-15T12:47:23Z</time>
      </trkpt>
      <trkpt lat="44.53938" lon="6.83631">
        <ele>2903.842</ele>
        <time>2012-09-15T12:47:24Z</time>
      </trkpt>
      <trkpt lat="44.53918" lon="6.83625">
        <ele>2898.644</ele>
        <time>2012-09-15T12:47:29Z</time>
      </trkpt>
      <trkpt lat="44.53901" lon="6.83619">
        <ele>2895.354</ele>
        <time>2012-09-15T12:47:33Z</time>
      </trkpt>
      <trkpt lat="44.53894" lon="6.83616">
        <ele>2894.593</ele>
        <time>2012-09-15T12:47:35Z</time>
      </trkpt>
      <trkpt lat="44.53886" lon="6.83611">
        <ele>2892.981</ele>
        <time>2012-09-15T12:47:39Z</time>
      </trkpt>
      <trkpt lat="44.53888" lon="6.83613">
        <ele>2899.182</ele>
        <time>2012-09-15T12:49:22Z</time>
      </trkpt>
      <trkpt lat="44.53886" lon="6.8362">
        <ele>2897.274</ele>
        <time>2012-09-15T12:49:27Z</time>
      </trkpt>
      <trkpt lat="44.53888" lon="6.83623">
        <ele>2896.788</ele>
        <time>2012-09-15T12:49:28Z</time>
      </trkpt>
      <trkpt lat="44.53893" lon="6.83644">
        <ele>2892.878</ele>
        <time>2012-09-15T12:49:33Z</time>
      </trkpt>
      <trkpt lat="44.53885" lon="6.83657">
        <ele>2887.343</ele>
        <time>2012-09-15T12:49:39Z</time>
      </trkpt>
      <trkpt lat="44.53882" lon="6.83657">
        <ele>2885.605</ele>
        <time>2012-09-15T12:49:41Z</time>
      </trkpt>
      <trkpt lat="44.53871" lon="6.83652">
        <ele>2878.518</ele>
        <time>2012-09-15T12:49:47Z</time>
      </trkpt>
      <trkpt lat="44.5386" lon="6.83654">
        <ele>2872.791</ele>
        <time>2012-09-15T12:49:52Z</time>
      </trkpt>
      <trkpt lat="44.53848" lon="6.83655">
        <ele>2867.331</ele>
        <time>2012-09-15T12:49:57Z</time>
      </trkpt>
      <trkpt lat="44.53841" lon="6.83657">
        <ele>2862.902</ele>
        <time>2012-09-15T12:50:02Z</time>
      </trkpt>
      <trkpt lat="44.53837" lon="6.83657">
        <ele>2860.013</ele>
        <time>2012-09-15T12:50:06Z</time>
      </trkpt>
      <trkpt lat="44.53837" lon="6.83656">
        <ele>2859.889</ele>
        <time>2012-09-15T12:50:08Z</time>
      </trkpt>
      <trkpt lat="44.53836" lon="6.83653">
        <ele>2859.195</ele>
        <time>2012-09-15T12:50:13Z</time>
      </trkpt>
      <trkpt lat="44.53829" lon="6.83656">
        <ele>2855.673</ele>
        <time>2012-09-15T12:50:19Z</time>
      </trkpt>
      <trkpt lat="44.53829" lon="6.83654">
        <ele>2855.064</ele>
        <time>2012-09-15T12:50:21Z</time>
      </trkpt>
      <trkpt lat="44.53818" lon="6.83651">
        <ele>2851.777</ele>
        <time>2012-09-15T12:50:26Z</time>
      </trkpt>
      <trkpt lat="44.53806" lon="6.83652">
        <ele>2846.369</ele>
        <time>2012-09-15T12:50:30Z</time>
      </trkpt>
      <trkpt lat="44.53789" lon="6.8365">
        <ele>2840.174</ele>
        <time>2012-09-15T12:50:35Z</time>
      </trkpt>
      <trkpt lat="44.53779" lon="6.83648">
        <ele>2835.805</ele>
        <time>2012-09-15T12:50:38Z</time>
      </trkpt>
      <trkpt lat="44.53766" lon="6.83647">
        <ele>2831.195</ele>
        <time>2012-09-15T12:50:42Z</time>
      </trkpt>
      <trkpt lat="44.53756" lon="6.8365">
        <ele>2827.559</ele>
        <time>2012-09-15T12:50:45Z</time>
      </trkpt>
      <trkpt lat="44.53746" lon="6.83651">
        <ele>2823.35</ele>
        <time>2012-09-15T12:50:49Z</time>
      </trkpt>
      <trkpt lat="44.53735" lon="6.83661">
        <ele>2819.245</ele>
        <time>2012-09-15T12:50:54Z</time>
      </trkpt>
      <trkpt lat="44.53726" lon="6.83664">
        <ele>2815.692</ele>
        <time>2012-09-15T12:50:58Z</time>
      </trkpt>
      <trkpt lat="44.53716" lon="6.83668">
        <ele>2810.286</ele>
        <time>2012-09-15T12:51:04Z</time>
      </trkpt>
      <trkpt lat="44.5371" lon="6.83671">
        <ele>2808.197</ele>
        <time>2012-09-15T12:51:07Z</time>
      </trkpt>
      <trkpt lat="44.53703" lon="6.83671">
        <ele>2804.83</ele>
        <time>2012-09-15T12:51:11Z</time>
      </trkpt>
      <trkpt lat="44.53702" lon="6.83672">
        <ele>2803.977</ele>
        <time>2012-09-15T12:51:12Z</time>
      </trkpt>
      <trkpt lat="44.53699" lon="6.83675">
        <ele>2801.534</ele>
        <time>2012-09-15T12:51:14Z</time>
      </trkpt>
      <trkpt lat="44.53698" lon="6.83676">
        <ele>2800.284</ele>
        <time>2012-09-15T12:51:19Z</time>
      </trkpt>
      <trkpt lat="44.53697" lon="6.83675">
        <ele>2799.647</ele>
        <time>2012-09-15T12:51:21Z</time>
      </trkpt>
      <trkpt lat="44.53696" lon="6.83677">
        <ele>2798.591</ele>
        <time>2012-09-15T12:51:23Z</time>
      </trkpt>
      <trkpt lat="44.53695" lon="6.83682">
        <ele>2796.356</ele>
        <time>2012-09-15T12:51:30Z</time>
      </trkpt>
      <trkpt lat="44.53693" lon="6.83686">
        <ele>2794.114</ele>
        <time>2012-09-15T12:51:33Z</time>
      </trkpt>
      <trkpt lat="44.53682" lon="6.83693">
        <ele>2788.636</ele>
        <time>2012-09-15T12:51:39Z</time>
      </trkpt>
      <trkpt lat="44.53675" lon="6.83696">
        <ele>2786.487</ele>
        <time>2012-09-15T12:51:42Z</time>
      </trkpt>
      <trkpt lat="44.5367" lon="6.83698">
        <ele>2784.644</ele>
        <time>2012-09-15T12:51:44Z</time>
      </trkpt>
      <trkpt lat="44.53655" lon="6.83695">
        <ele>2779.079</ele>
        <time>2012-09-15T12:51:50Z</time>
      </trkpt>
      <trkpt lat="44.53649" lon="6.83696">
        <ele>2776.582</ele>
        <time>2012-09-15T12:51:52Z</time>
      </trkpt>
      <trkpt lat="44.53628" lon="6.83694">
        <ele>2772.139</ele>
        <time>2012-09-15T12:51:58Z</time>
      </trkpt>
      <trkpt lat="44.53624" lon="6.83696">
        <ele>2771.188</ele>
        <time>2012-09-15T12:52:00Z</time>
      </trkpt>
      <trkpt lat="44.53613" lon="6.83699">
        <ele>2768.339</ele>
        <time>2012-09-15T12:52:05Z</time>
      </trkpt>
      <trkpt lat="44.5361" lon="6.83701">
        <ele>2767.612</ele>
        <time>2012-09-15T12:52:06Z</time>
      </trkpt>
      <trkpt lat="44.53595" lon="6.83703">
        <ele>2763.046</ele>
        <time>2012-09-15T12:52:11Z</time>
      </trkpt>
      <trkpt lat="44.53586" lon="6.83702">
        <ele>2760.162</ele>
        <time>2012-09-15T12:52:14Z</time>
      </trkpt>
      <trkpt lat="44.53568" lon="6.83702">
        <ele>2753.658</ele>
        <time>2012-09-15T12:52:19Z</time>
      </trkpt>
      <trkpt lat="44.53565" lon="6.83701">
        <ele>2752.266</ele>
        <time>2012-09-15T12:52:20Z</time>
      </trkpt>
      <trkpt lat="44.53543" lon="6.83697">
        <ele>2745.153</ele>
        <time>2012-09-15T12:52:25Z</time>
      </trkpt>
      <trkpt lat="44.53529" lon="6.83692">
        <ele>2742.826</ele>
        <time>2012-09-15T12:52:28Z</time>
      </trkpt>
      <trkpt lat="44.53514" lon="6.83692">
        <ele>2739.554</ele>
        <time>2012-09-15T12:52:31Z</time>
      </trkpt>
      <trkpt lat="44.53494" lon="6.83691">
        <ele>2734.559</ele>
        <time>2012-09-15T12:52:36Z</time>
      </trkpt>
      <trkpt lat="44.53492" lon="6.83691">
        <ele>2733.513</ele>
        <time>2012-09-15T12:52:39Z</time>
      </trkpt>
      <trkpt lat="44.53491" lon="6.83689">
        <ele>2743.245</ele>
        <time>2012-09-15T12:56:11Z</time>
      </trkpt>
      <trkpt lat="44.53485" lon="6.83684">
        <ele>2741.163</ele>
        <time>2012-09-15T12:56:16Z</time>
      </trkpt>
      <trkpt lat="44.53476" lon="6.83678">
        <ele>2734.73</ele>
        <time>2012-09-15T12:56:22Z</time>
      </trkpt>
      <trkpt lat="44.53465" lon="6.8368">
        <ele>2729.713</ele>
        <time>2012-09-15T12:56:26Z</time>
      </trkpt>
      <trkpt lat="44.53451" lon="6.83675">
        <ele>2725.494</ele>
        <time>2012-09-15T12:56:32Z</time>
      </trkpt>
      <trkpt lat="44.53442" lon="6.83677">
        <ele>2723.135</ele>
        <time>2012-09-15T12:56:37Z</time>
      </trkpt>
      <trkpt lat="44.5344" lon="6.83678">
        <ele>2722.28</ele>
        <time>2012-09-15T12:56:38Z</time>
      </trkpt>
      <trkpt lat="44.53431" lon="6.83677">
        <ele>2718.064</ele>
        <time>2012-09-15T12:56:42Z</time>
      </trkpt>
      <trkpt lat="44.53429" lon="6.83679">
        <ele>2717.205</ele>
        <time>2012-09-15T12:56:45Z</time>
      </trkpt>
      <trkpt lat="44.53427" lon="6.83688">
        <ele>2714.007</ele>
        <time>2012-09-15T12:56:50Z</time>
      </trkpt>
      <trkpt lat="44.53427" lon="6.83696">
        <ele>2710.992</ele>
        <time>2012-09-15T12:56:54Z</time>
      </trkpt>
      <trkpt lat="44.53428" lon="6.83701">
        <ele>2710.532</ele>
        <time>2012-09-15T12:56:57Z</time>
      </trkpt>
      <trkpt lat="44.53425" lon="6.83712">
        <ele>2711.157</ele>
        <time>2012-09-15T12:57:02Z</time>
      </trkpt>
      <trkpt lat="44.53425" lon="6.83721">
        <ele>2710.43</ele>
        <time>2012-09-15T12:57:04Z</time>
      </trkpt>
      <trkpt lat="44.53424" lon="6.83756">
        <ele>2708.724</ele>
        <time>2012-09-15T12:57:09Z</time>
      </trkpt>
      <trkpt lat="44.53426" lon="6.83772">
        <ele>2708.345</ele>
        <time>2012-09-15T12:57:11Z</time>
      </trkpt>
      <trkpt lat="44.53432" lon="6.83806">
        <ele>2705.345</ele>
        <time>2012-09-15T12:57:16Z</time>
      </trkpt>
      <trkpt lat="44.53435" lon="6.83829">
        <ele>2699.73</ele>
        <time>2012-09-15T12:57:21Z</time>
      </trkpt>
      <trkpt lat="44.53436" lon="6.83833">
        <ele>2697.902</ele>
        <time>2012-09-15T12:57:23Z</time>
      </trkpt>
      <trkpt lat="44.53425" lon="6.8384">
        <ele>2692.82</ele>
        <time>2012-09-15T12:57:28Z</time>
      </trkpt>
      <trkpt lat="44.53422" lon="6.83839">
        <ele>2692.172</ele>
        <time>2012-09-15T12:57:29Z</time>
      </trkpt>
      <trkpt lat="44.53412" lon="6.83832">
        <ele>2690.814</ele>
        <time>2012-09-15T12:57:32Z</time>
      </trkpt>
      <trkpt lat="44.53394" lon="6.83821">
        <ele>2687.099</ele>
        <time>2012-09-15T12:57:37Z</time>
      </trkpt>
      <trkpt lat="44.53377" lon="6.83816">
        <ele>2681.705</ele>
        <time>2012-09-15T12:57:42Z</time>
      </trkpt>
      <trkpt lat="44.53361" lon="6.83805">
        <ele>2674.862</ele>
        <time>2012-09-15T12:57:48Z</time>
      </trkpt>
      <trkpt lat="44.53341" lon="6.83796">
        <ele>2665.913</ele>
        <time>2012-09-15T12:57:54Z</time>
      </trkpt>
      <trkpt lat="44.5332" lon="6.83783">
        <ele>2657.064</ele>
        <time>2012-09-15T12:58:00Z</time>
      </trkpt>
      <trkpt lat="44.53311" lon="6.83773">
        <ele>2653.306</ele>
        <time>2012-09-15T12:58:04Z</time>
      </trkpt>
      <trkpt lat="44.53305" lon="6.83767">
        <ele>2650.334</ele>
        <time>2012-09-15T12:58:08Z</time>
      </trkpt>
      <trkpt lat="44.53306" lon="6.83767">
        <ele>2649.643</ele>
        <time>2012-09-15T12:58:15Z</time>
      </trkpt>
      <trkpt lat="44.53298" lon="6.83761">
        <ele>2651.263</ele>
        <time>2012-09-15T12:58:57Z</time>
      </trkpt>
      <trkpt lat="44.53283" lon="6.83751">
        <ele>2648.531</ele>
        <time>2012-09-15T12:59:01Z</time>
      </trkpt>
      <trkpt lat="44.5328" lon="6.83747">
        <ele>2648.212</ele>
        <time>2012-09-15T12:59:02Z</time>
      </trkpt>
      <trkpt lat="44.53263" lon="6.83742">
        <ele>2644.606</ele>
        <time>2012-09-15T12:59:06Z</time>
      </trkpt>
      <trkpt lat="44.53243" lon="6.83735">
        <ele>2639.655</ele>
        <time>2012-09-15T12:59:11Z</time>
      </trkpt>
      <trkpt lat="44.53224" lon="6.83723">
        <ele>2635.948</ele>
        <time>2012-09-15T12:59:16Z</time>
      </trkpt>
      <trkpt lat="44.53203" lon="6.83709">
        <ele>2632.813</ele>
        <time>2012-09-15T12:59:20Z</time>
      </trkpt>
      <trkpt lat="44.53193" lon="6.837">
        <ele>2631.257</ele>
        <time>2012-09-15T12:59:22Z</time>
      </trkpt>
      <trkpt lat="44.53157" lon="6.83676">
        <ele>2627.721</ele>
        <time>2012-09-15T12:59:28Z</time>
      </trkpt>
      <trkpt lat="44.53151" lon="6.83672">
        <ele>2627.303</ele>
        <time>2012-09-15T12:59:29Z</time>
      </trkpt>
      <trkpt lat="44.53126" lon="6.83663">
        <ele>2624.459</ele>
        <time>2012-09-15T12:59:33Z</time>
      </trkpt>
      <trkpt lat="44.53115" lon="6.83656">
        <ele>2622.47</ele>
        <time>2012-09-15T12:59:36Z</time>
      </trkpt>
      <trkpt lat="44.53114" lon="6.83657">
        <ele>2621.666</ele>
        <time>2012-09-15T12:59:39Z</time>
      </trkpt>
      <trkpt lat="44.53115" lon="6.83658">
        <ele>2621.584</ele>
        <time>2012-09-15T12:59:46Z</time>
      </trkpt>
      <trkpt lat="44.5311" lon="6.83654">
        <ele>2620.02</ele>
        <time>2012-09-15T12:59:52Z</time>
      </trkpt>
      <trkpt lat="44.53103" lon="6.8365">
        <ele>2618.676</ele>
        <time>2012-09-15T12:59:55Z</time>
      </trkpt>
      <trkpt lat="44.53084" lon="6.83634">
        <ele>2619.443</ele>
        <time>2012-09-15T13:00:01Z</time>
      </trkpt>
      <trkpt lat="44.53066" lon="6.83627">
        <ele>2620.534</ele>
        <time>2012-09-15T13:00:07Z</time>
      </trkpt>
      <trkpt lat="44.53048" lon="6.83619">
        <ele>2621.566</ele>
        <time>2012-09-15T13:00:13Z</time>
      </trkpt>
      <trkpt lat="44.53035" lon="6.83609">
        <ele>2624.071</ele>
        <time>2012-09-15T13:00:18Z</time>
      </trkpt>
      <trkpt lat="44.53016" lon="6.83595">
        <ele>2626.138</ele>
        <time>2012-09-15T13:00:26Z</time>
      </trkpt>
      <trkpt lat="44.53001" lon="6.8359">
        <ele>2627.766</ele>
        <time>2012-09-15T13:00:34Z</time>
      </trkpt>
      <trkpt lat="44.53001" lon="6.8359">
        <ele>2627.864</ele>
        <time>2012-09-15T13:00:39Z</time>
      </trkpt>
      <trkpt lat="44.53011" lon="6.83595">
        <ele>2623.983</ele>
        <time>2012-09-15T13:05:04Z</time>
      </trkpt>
      <trkpt lat="44.5301" lon="6.83591">
        <ele>2623.202</ele>
        <time>2012-09-15T13:05:08Z</time>
      </trkpt>
      <trkpt lat="44.53008" lon="6.83587">
        <ele>2622.853</ele>
        <time>2012-09-15T13:05:19Z</time>
      </trkpt>
      <trkpt lat="44.53006" lon="6.83586">
        <ele>2622.563</ele>
        <time>2012-09-15T13:05:32Z</time>
      </trkpt>
      <trkpt lat="44.53003" lon="6.83569">
        <ele>2622.726</ele>
        <time>2012-09-15T13:05:40Z</time>
      </trkpt>
      <trkpt lat="44.52996" lon="6.8355">
        <ele>2625.917</ele>
        <time>2012-09-15T13:05:46Z</time>
      </trkpt>
      <trkpt lat="44.52992" lon="6.83535">
        <ele>2626.144</ele>
        <time>2012-09-15T13:05:51Z</time>
      </trkpt>
      <trkpt lat="44.52992" lon="6.83514">
        <ele>2627.065</ele>
        <time>2012-09-15T13:05:59Z</time>
      </trkpt>
      <trkpt lat="44.52992" lon="6.83514">
        <ele>2627.135</ele>
        <time>2012-09-15T13:06:00Z</time>
      </trkpt>
      <trkpt lat="44.52995" lon="6.83507">
        <ele>2627.505</ele>
        <time>2012-09-15T13:06:06Z</time>
      </trkpt>
      <trkpt lat="44.52993" lon="6.83494">
        <ele>2627.995</ele>
        <time>2012-09-15T13:06:14Z</time>
      </trkpt>
      <trkpt lat="44.52992" lon="6.83493">
        <ele>2629.895</ele>
        <time>2012-09-15T13:06:17Z</time>
      </trkpt>
      <trkpt lat="44.52993" lon="6.83486">
        <ele>2631.906</ele>
        <time>2012-09-15T13:06:21Z</time>
      </trkpt>
      <trkpt lat="44.52989" lon="6.83476">
        <ele>2632.404</ele>
        <time>2012-09-15T13:06:27Z</time>
      </trkpt>
      <trkpt lat="44.52989" lon="6.83476">
        <ele>2632.943</ele>
        <time>2012-09-15T13:06:31Z</time>
      </trkpt>
      <trkpt lat="44.52987" lon="6.83466">
        <ele>2630.016</ele>
        <time>2012-09-15T13:07:21Z</time>
      </trkpt>
      <trkpt lat="44.52981" lon="6.8346">
        <ele>2628.736</ele>
        <time>2012-09-15T13:07:24Z</time>
      </trkpt>
      <trkpt lat="44.52972" lon="6.83452">
        <ele>2624.616</ele>
        <time>2012-09-15T13:07:29Z</time>
      </trkpt>
      <trkpt lat="44.52949" lon="6.83439">
        <ele>2617.341</ele>
        <time>2012-09-15T13:07:36Z</time>
      </trkpt>
      <trkpt lat="44.52937" lon="6.83432">
        <ele>2613.011</ele>
        <time>2012-09-15T13:07:40Z</time>
      </trkpt>
      <trkpt lat="44.52926" lon="6.83426">
        <ele>2607.611</ele>
        <time>2012-09-15T13:07:45Z</time>
      </trkpt>
      <trkpt lat="44.5292" lon="6.83424">
        <ele>2605.121</ele>
        <time>2012-09-15T13:07:47Z</time>
      </trkpt>
      <trkpt lat="44.52907" lon="6.83417">
        <ele>2603.033</ele>
        <time>2012-09-15T13:07:50Z</time>
      </trkpt>
      <trkpt lat="44.52887" lon="6.834">
        <ele>2599.357</ele>
        <time>2012-09-15T13:07:55Z</time>
      </trkpt>
      <trkpt lat="44.52878" lon="6.83387">
        <ele>2596.173</ele>
        <time>2012-09-15T13:07:59Z</time>
      </trkpt>
      <trkpt lat="44.52861" lon="6.83363">
        <ele>2594.376</ele>
        <time>2012-09-15T13:08:04Z</time>
      </trkpt>
      <trkpt lat="44.52861" lon="6.83347">
        <ele>2592.418</ele>
        <time>2012-09-15T13:08:07Z</time>
      </trkpt>
      <trkpt lat="44.52849" lon="6.83311">
        <ele>2593.785</ele>
        <time>2012-09-15T13:08:12Z</time>
      </trkpt>
      <trkpt lat="44.52836" lon="6.8329">
        <ele>2592.876</ele>
        <time>2012-09-15T13:08:15Z</time>
      </trkpt>
      <trkpt lat="44.52827" lon="6.83277">
        <ele>2591.865</ele>
        <time>2012-09-15T13:08:17Z</time>
      </trkpt>
      <trkpt lat="44.52819" lon="6.83253">
        <ele>2591.117</ele>
        <time>2012-09-15T13:08:21Z</time>
      </trkpt>
      <trkpt lat="44.52816" lon="6.83217">
        <ele>2588.857</ele>
        <time>2012-09-15T13:08:27Z</time>
      </trkpt>
      <trkpt lat="44.52813" lon="6.83203">
        <ele>2588.246</ele>
        <time>2012-09-15T13:08:30Z</time>
      </trkpt>
      <trkpt lat="44.52815" lon="6.83188">
        <ele>2587.407</ele>
        <time>2012-09-15T13:08:34Z</time>
      </trkpt>
      <trkpt lat="44.52813" lon="6.83154">
        <ele>2585.966</ele>
        <time>2012-09-15T13:08:40Z</time>
      </trkpt>
      <trkpt lat="44.52809" lon="6.83124">
        <ele>2581.698</ele>
        <time>2012-09-15T13:08:45Z</time>
      </trkpt>
      <trkpt lat="44.52811" lon="6.83103">
        <ele>2581.325</ele>
        <time>2012-09-15T13:08:48Z</time>
      </trkpt>
      <trkpt lat="44.5282" lon="6.83073">
        <ele>2581.788</ele>
        <time>2012-09-15T13:08:53Z</time>
      </trkpt>
      <trkpt lat="44.52833" lon="6.83056">
        <ele>2582.902</ele>
        <time>2012-09-15T13:08:57Z</time>
      </trkpt>
      <trkpt lat="44.5285" lon="6.83035">
        <ele>2584.001</ele>
        <time>2012-09-15T13:09:02Z</time>
      </trkpt>
      <trkpt lat="44.52853" lon="6.83031">
        <ele>2584.303</ele>
        <time>2012-09-15T13:09:03Z</time>
      </trkpt>
      <trkpt lat="44.52867" lon="6.8302">
        <ele>2584.592</ele>
        <time>2012-09-15T13:09:08Z</time>
      </trkpt>
      <trkpt lat="44.52883" lon="6.8301">
        <ele>2584.033</ele>
        <time>2012-09-15T13:09:13Z</time>
      </trkpt>
      <trkpt lat="44.52895" lon="6.83003">
        <ele>2583.723</ele>
        <time>2012-09-15T13:09:16Z</time>
      </trkpt>
      <trkpt lat="44.52912" lon="6.82996">
        <ele>2584.234</ele>
        <time>2012-09-15T13:09:20Z</time>
      </trkpt>
      <trkpt lat="44.52932" lon="6.82983">
        <ele>2585.103</ele>
        <time>2012-09-15T13:09:25Z</time>
      </trkpt>
      <trkpt lat="44.52951" lon="6.82975">
        <ele>2585.28</ele>
        <time>2012-09-15T13:09:30Z</time>
      </trkpt>
      <trkpt lat="44.52954" lon="6.82974">
        <ele>2585.581</ele>
        <time>2012-09-15T13:09:31Z</time>
      </trkpt>
      <trkpt lat="44.52964" lon="6.82971">
        <ele>2585.62</ele>
        <time>2012-09-15T13:09:34Z</time>
      </trkpt>
      <trkpt lat="44.52976" lon="6.82953">
        <ele>2585.68</ele>
        <time>2012-09-15T13:09:38Z</time>
      </trkpt>
      <trkpt lat="44.52988" lon="6.8293">
        <ele>2586.302</ele>
        <time>2012-09-15T13:09:43Z</time>
      </trkpt>
      <trkpt lat="44.52995" lon="6.82908">
        <ele>2586.16</ele>
        <time>2012-09-15T13:09:47Z</time>
      </trkpt>
      <trkpt lat="44.53002" lon="6.82885">
        <ele>2585.891</ele>
        <time>2012-09-15T13:09:51Z</time>
      </trkpt>
      <trkpt lat="44.53006" lon="6.82868">
        <ele>2585.44</ele>
        <time>2012-09-15T13:09:54Z</time>
      </trkpt>
      <trkpt lat="44.53005" lon="6.82856">
        <ele>2585.199</ele>
        <time>2012-09-15T13:09:56Z</time>
      </trkpt>
      <trkpt lat="44.53007" lon="6.82832">
        <ele>2583.858</ele>
        <time>2012-09-15T13:10:01Z</time>
      </trkpt>
      <trkpt lat="44.53009" lon="6.8283">
        <ele>2583.391</ele>
        <time>2012-09-15T13:10:05Z</time>
      </trkpt>
      <trkpt lat="44.53012" lon="6.82832">
        <ele>2579.326</ele>
        <time>2012-09-15T13:10:25Z</time>
      </trkpt>
      <trkpt lat="44.53017" lon="6.82829">
        <ele>2579.264</ele>
        <time>2012-09-15T13:10:32Z</time>
      </trkpt>
      <trkpt lat="44.53019" lon="6.82827">
        <ele>2579.635</ele>
        <time>2012-09-15T13:10:35Z</time>
      </trkpt>
      <trkpt lat="44.53023" lon="6.82828">
        <ele>2580.207</ele>
        <time>2012-09-15T13:10:40Z</time>
      </trkpt>
      <trkpt lat="44.53028" lon="6.82829">
        <ele>2581.568</ele>
        <time>2012-09-15T13:10:46Z</time>
      </trkpt>
      <trkpt lat="44.53032" lon="6.82831">
        <ele>2578.2</ele>
        <time>2012-09-15T13:10:54Z</time>
      </trkpt>
      <trkpt lat="44.53035" lon="6.82832">
        <ele>2575.241</ele>
        <time>2012-09-15T13:11:01Z</time>
      </trkpt>
      <trkpt lat="44.5304" lon="6.82831">
        <ele>2574.603</ele>
        <time>2012-09-15T13:11:11Z</time>
      </trkpt>
      <trkpt lat="44.53043" lon="6.82831">
        <ele>2573.731</ele>
        <time>2012-09-15T13:11:15Z</time>
      </trkpt>
      <trkpt lat="44.53043" lon="6.82819">
        <ele>2571.864</ele>
        <time>2012-09-15T13:11:20Z</time>
      </trkpt>
      <trkpt lat="44.53036" lon="6.82797">
        <ele>2567.796</ele>
        <time>2012-09-15T13:11:25Z</time>
      </trkpt>
      <trkpt lat="44.5303" lon="6.82779">
        <ele>2563.499</ele>
        <time>2012-09-15T13:11:29Z</time>
      </trkpt>
      <trkpt lat="44.53028" lon="6.82747">
        <ele>2560.519</ele>
        <time>2012-09-15T13:11:34Z</time>
      </trkpt>
      <trkpt lat="44.53026" lon="6.82715">
        <ele>2558.01</ele>
        <time>2012-09-15T13:11:39Z</time>
      </trkpt>
      <trkpt lat="44.53025" lon="6.82708">
        <ele>2558.194</ele>
        <time>2012-09-15T13:11:40Z</time>
      </trkpt>
      <trkpt lat="44.53024" lon="6.82697">
        <ele>2557.595</ele>
        <time>2012-09-15T13:11:42Z</time>
      </trkpt>
      <trkpt lat="44.53026" lon="6.82688">
        <ele>2556.925</ele>
        <time>2012-09-15T13:11:44Z</time>
      </trkpt>
      <trkpt lat="44.53035" lon="6.82666">
        <ele>2555.313</ele>
        <time>2012-09-15T13:11:49Z</time>
      </trkpt>
      <trkpt lat="44.53041" lon="6.82653">
        <ele>2552.746</ele>
        <time>2012-09-15T13:11:52Z</time>
      </trkpt>
      <trkpt lat="44.53042" lon="6.8263">
        <ele>2549.795</ele>
        <time>2012-09-15T13:11:56Z</time>
      </trkpt>
      <trkpt lat="44.53037" lon="6.8261">
        <ele>2548.918</ele>
        <time>2012-09-15T13:11:59Z</time>
      </trkpt>
      <trkpt lat="44.53035" lon="6.82569">
        <ele>2549.454</ele>
        <time>2012-09-15T13:12:05Z</time>
      </trkpt>
      <trkpt lat="44.53036" lon="6.82556">
        <ele>2549.103</ele>
        <time>2012-09-15T13:12:07Z</time>
      </trkpt>
      <trkpt lat="44.53035" lon="6.82541">
        <ele>2549.306</ele>
        <time>2012-09-15T13:12:09Z</time>
      </trkpt>
      <trkpt lat="44.53028" lon="6.82514">
        <ele>2549.286</ele>
        <time>2012-09-15T13:12:13Z</time>
      </trkpt>
      <trkpt lat="44.53007" lon="6.82478">
        <ele>2549.459</ele>
        <time>2012-09-15T13:12:20Z</time>
      </trkpt>
      <trkpt lat="44.52994" lon="6.82448">
        <ele>2548.877</ele>
        <time>2012-09-15T13:12:24Z</time>
      </trkpt>
      <trkpt lat="44.52982" lon="6.82421">
        <ele>2547.38</ele>
        <time>2012-09-15T13:12:28Z</time>
      </trkpt>
      <trkpt lat="44.52979" lon="6.82416">
        <ele>2546.859</ele>
        <time>2012-09-15T13:12:29Z</time>
      </trkpt>
      <trkpt lat="44.52971" lon="6.82403">
        <ele>2545.949</ele>
        <time>2012-09-15T13:12:31Z</time>
      </trkpt>
      <trkpt lat="44.52971" lon="6.82375">
        <ele>2543.923</ele>
        <time>2012-09-15T13:12:35Z</time>
      </trkpt>
      <trkpt lat="44.52975" lon="6.82357">
        <ele>2543.153</ele>
        <time>2012-09-15T13:12:38Z</time>
      </trkpt>
      <trkpt lat="44.52974" lon="6.82324">
        <ele>2540.672</ele>
        <time>2012-09-15T13:12:43Z</time>
      </trkpt>
      <trkpt lat="44.52977" lon="6.8231">
        <ele>2539.592</ele>
        <time>2012-09-15T13:12:45Z</time>
      </trkpt>
      <trkpt lat="44.52976" lon="6.82278">
        <ele>2537.689</ele>
        <time>2012-09-15T13:12:49Z</time>
      </trkpt>
      <trkpt lat="44.5298" lon="6.82247">
        <ele>2534.957</ele>
        <time>2012-09-15T13:12:53Z</time>
      </trkpt>
      <trkpt lat="44.52984" lon="6.82227">
        <ele>2532.526</ele>
        <time>2012-09-15T13:12:56Z</time>
      </trkpt>
      <trkpt lat="44.52996" lon="6.82201">
        <ele>2530.218</ele>
        <time>2012-09-15T13:13:00Z</time>
      </trkpt>
      <trkpt lat="44.53008" lon="6.82164">
        <ele>2527.478</ele>
        <time>2012-09-15T13:13:05Z</time>
      </trkpt>
      <trkpt lat="44.53006" lon="6.82156">
        <ele>2526.776</ele>
        <time>2012-09-15T13:13:06Z</time>
      </trkpt>
      <trkpt lat="44.53002" lon="6.82136">
        <ele>2523.341</ele>
        <time>2012-09-15T13:13:10Z</time>
      </trkpt>
      <trkpt lat="44.53001" lon="6.82115">
        <ele>2518.326</ele>
        <time>2012-09-15T13:13:14Z</time>
      </trkpt>
      <trkpt lat="44.53008" lon="6.82087">
        <ele>2514.809</ele>
        <time>2012-09-15T13:13:19Z</time>
      </trkpt>
      <trkpt lat="44.53009" lon="6.82081">
        <ele>2514.228</ele>
        <time>2012-09-15T13:13:20Z</time>
      </trkpt>
      <trkpt lat="44.53011" lon="6.82071">
        <ele>2513.158</ele>
        <time>2012-09-15T13:13:22Z</time>
      </trkpt>
      <trkpt lat="44.53016" lon="6.82047">
        <ele>2510.901</ele>
        <time>2012-09-15T13:13:27Z</time>
      </trkpt>
      <trkpt lat="44.53028" lon="6.82026">
        <ele>2510.266</ele>
        <time>2012-09-15T13:13:32Z</time>
      </trkpt>
      <trkpt lat="44.53031" lon="6.82021">
        <ele>2510.187</ele>
        <time>2012-09-15T13:13:33Z</time>
      </trkpt>
      <trkpt lat="44.53047" lon="6.82003">
        <ele>2509.357</ele>
        <time>2012-09-15T13:13:38Z</time>
      </trkpt>
      <trkpt lat="44.53048" lon="6.82001">
        <ele>2510.161</ele>
        <time>2012-09-15T13:13:41Z</time>
      </trkpt>
      <trkpt lat="44.53048" lon="6.81998">
        <ele>2513.439</ele>
        <time>2012-09-15T13:14:14Z</time>
      </trkpt>
      <trkpt lat="44.53048" lon="6.81981">
        <ele>2513.34</ele>
        <time>2012-09-15T13:14:18Z</time>
      </trkpt>
      <trkpt lat="44.53047" lon="6.8196">
        <ele>2512.075</ele>
        <time>2012-09-15T13:14:22Z</time>
      </trkpt>
      <trkpt lat="44.53049" lon="6.81954">
        <ele>2511.628</ele>
        <time>2012-09-15T13:14:23Z</time>
      </trkpt>
      <trkpt lat="44.53054" lon="6.81934">
        <ele>2510.051</ele>
        <time>2012-09-15T13:14:26Z</time>
      </trkpt>
      <trkpt lat="44.53055" lon="6.81895">
        <ele>2505.98</ele>
        <time>2012-09-15T13:14:31Z</time>
      </trkpt>
      <trkpt lat="44.53062" lon="6.81862">
        <ele>2502.565</ele>
        <time>2012-09-15T13:14:35Z</time>
      </trkpt>
      <trkpt lat="44.53075" lon="6.81841">
        <ele>2500.015</ele>
        <time>2012-09-15T13:14:38Z</time>
      </trkpt>
      <trkpt lat="44.53091" lon="6.81808">
        <ele>2497.66</ele>
        <time>2012-09-15T13:14:43Z</time>
      </trkpt>
      <trkpt lat="44.53104" lon="6.81796">
        <ele>2496.2</ele>
        <time>2012-09-15T13:14:46Z</time>
      </trkpt>
      <trkpt lat="44.53122" lon="6.81775">
        <ele>2493.572</ele>
        <time>2012-09-15T13:14:51Z</time>
      </trkpt>
      <trkpt lat="44.53129" lon="6.81758">
        <ele>2492.373</ele>
        <time>2012-09-15T13:14:55Z</time>
      </trkpt>
      <trkpt lat="44.53132" lon="6.81741">
        <ele>2490.722</ele>
        <time>2012-09-15T13:14:59Z</time>
      </trkpt>
      <trkpt lat="44.53141" lon="6.8173">
        <ele>2489.322</ele>
        <time>2012-09-15T13:15:02Z</time>
      </trkpt>
      <trkpt lat="44.53147" lon="6.81718">
        <ele>2487.599</ele>
        <time>2012-09-15T13:15:05Z</time>
      </trkpt>
      <trkpt lat="44.53149" lon="6.81711">
        <ele>2486.448</ele>
        <time>2012-09-15T13:15:07Z</time>
      </trkpt>
      <trkpt lat="44.5317" lon="6.81685">
        <ele>2481.585</ele>
        <time>2012-09-15T13:15:13Z</time>
      </trkpt>
      <trkpt lat="44.53192" lon="6.81659">
        <ele>2478.547</ele>
        <time>2012-09-15T13:15:18Z</time>
      </trkpt>
      <trkpt lat="44.53217" lon="6.81631">
        <ele>2475.781</ele>
        <time>2012-09-15T13:15:24Z</time>
      </trkpt>
      <trkpt lat="44.53243" lon="6.81605">
        <ele>2475.648</ele>
        <time>2012-09-15T13:15:29Z</time>
      </trkpt>
      <trkpt lat="44.5328" lon="6.81573">
        <ele>2474.538</ele>
        <time>2012-09-15T13:15:35Z</time>
      </trkpt>
      <trkpt lat="44.53296" lon="6.81556">
        <ele>2473.978</ele>
        <time>2012-09-15T13:15:38Z</time>
      </trkpt>
      <trkpt lat="44.53312" lon="6.81547">
        <ele>2473.72</ele>
        <time>2012-09-15T13:15:41Z</time>
      </trkpt>
      <trkpt lat="44.53326" lon="6.81536">
        <ele>2473.358</ele>
        <time>2012-09-15T13:15:45Z</time>
      </trkpt>
      <trkpt lat="44.53342" lon="6.81494">
        <ele>2473.72</ele>
        <time>2012-09-15T13:15:52Z</time>
      </trkpt>
      <trkpt lat="44.53352" lon="6.81474">
        <ele>2473.962</ele>
        <time>2012-09-15T13:15:56Z</time>
      </trkpt>
      <trkpt lat="44.53358" lon="6.81475">
        <ele>2474.244</ele>
        <time>2012-09-15T13:15:58Z</time>
      </trkpt>
      <trkpt lat="44.53367" lon="6.81464">
        <ele>2473.166</ele>
        <time>2012-09-15T13:16:03Z</time>
      </trkpt>
      <trkpt lat="44.53367" lon="6.81439">
        <ele>2474.462</ele>
        <time>2012-09-15T13:16:07Z</time>
      </trkpt>
      <trkpt lat="44.53369" lon="6.81435">
        <ele>2474.673</ele>
        <time>2012-09-15T13:16:08Z</time>
      </trkpt>
      <trkpt lat="44.53374" lon="6.81426">
        <ele>2474.891</ele>
        <time>2012-09-15T13:16:10Z</time>
      </trkpt>
      <trkpt lat="44.53383" lon="6.81412">
        <ele>2475.071</ele>
        <time>2012-09-15T13:16:13Z</time>
      </trkpt>
      <trkpt lat="44.53388" lon="6.81401">
        <ele>2475.261</ele>
        <time>2012-09-15T13:16:15Z</time>
      </trkpt>
      <trkpt lat="44.53407" lon="6.81372">
        <ele>2475.199</ele>
        <time>2012-09-15T13:16:21Z</time>
      </trkpt>
      <trkpt lat="44.53417" lon="6.8135">
        <ele>2475.451</ele>
        <time>2012-09-15T13:16:25Z</time>
      </trkpt>
      <trkpt lat="44.53431" lon="6.81331">
        <ele>2472.459</ele>
        <time>2012-09-15T13:16:30Z</time>
      </trkpt>
      <trkpt lat="44.53434" lon="6.8132">
        <ele>2469.746</ele>
        <time>2012-09-15T13:16:33Z</time>
      </trkpt>
      <trkpt lat="44.53427" lon="6.81317">
        <ele>2467.966</ele>
        <time>2012-09-15T13:16:35Z</time>
      </trkpt>
      <trkpt lat="44.53411" lon="6.81315">
        <ele>2464.196</ele>
        <time>2012-09-15T13:16:38Z</time>
      </trkpt>
      <trkpt lat="44.53394" lon="6.81321">
        <ele>2459.815</ele>
        <time>2012-09-15T13:16:41Z</time>
      </trkpt>
      <trkpt lat="44.5338" lon="6.81323">
        <ele>2456.458</ele>
        <time>2012-09-15T13:16:44Z</time>
      </trkpt>
      <trkpt lat="44.5337" lon="6.81319">
        <ele>2452.239</ele>
        <time>2012-09-15T13:16:48Z</time>
      </trkpt>
      <trkpt lat="44.53371" lon="6.81306">
        <ele>2450.48</ele>
        <time>2012-09-15T13:16:50Z</time>
      </trkpt>
      <trkpt lat="44.53373" lon="6.81292">
        <ele>2448.781</ele>
        <time>2012-09-15T13:16:52Z</time>
      </trkpt>
      <trkpt lat="44.5338" lon="6.81277">
        <ele>2447.221</ele>
        <time>2012-09-15T13:16:54Z</time>
      </trkpt>
      <trkpt lat="44.53397" lon="6.81227">
        <ele>2441.635</ele>
        <time>2012-09-15T13:17:00Z</time>
      </trkpt>
      <trkpt lat="44.53402" lon="6.81217">
        <ele>2439.688</ele>
        <time>2012-09-15T13:17:02Z</time>
      </trkpt>
      <trkpt lat="44.53396" lon="6.81206">
        <ele>2436.51</ele>
        <time>2012-09-15T13:17:06Z</time>
      </trkpt>
      <trkpt lat="44.5337" lon="6.8121">
        <ele>2432.941</ele>
        <time>2012-09-15T13:17:10Z</time>
      </trkpt>
      <trkpt lat="44.53342" lon="6.81219">
        <ele>2427.556</ele>
        <time>2012-09-15T13:17:15Z</time>
      </trkpt>
      <trkpt lat="44.5333" lon="6.81223">
        <ele>2425.606</ele>
        <time>2012-09-15T13:17:17Z</time>
      </trkpt>
      <trkpt lat="44.53316" lon="6.81208">
        <ele>2420.438</ele>
        <time>2012-09-15T13:17:22Z</time>
      </trkpt>
      <trkpt lat="44.53319" lon="6.81191">
        <ele>2418.154</ele>
        <time>2012-09-15T13:17:24Z</time>
      </trkpt>
      <trkpt lat="44.53334" lon="6.81139">
        <ele>2412.505</ele>
        <time>2012-09-15T13:17:29Z</time>
      </trkpt>
      <trkpt lat="44.53344" lon="6.811">
        <ele>2408.705</ele>
        <time>2012-09-15T13:17:33Z</time>
      </trkpt>
      <trkpt lat="44.53346" lon="6.81091">
        <ele>2407.576</ele>
        <time>2012-09-15T13:17:34Z</time>
      </trkpt>
      <trkpt lat="44.53355" lon="6.81056">
        <ele>2402.729</ele>
        <time>2012-09-15T13:17:38Z</time>
      </trkpt>
      <trkpt lat="44.5337" lon="6.81026">
        <ele>2396.882</ele>
        <time>2012-09-15T13:17:43Z</time>
      </trkpt>
      <trkpt lat="44.53386" lon="6.81012">
        <ele>2391.572</ele>
        <time>2012-09-15T13:17:47Z</time>
      </trkpt>
      <trkpt lat="44.534" lon="6.81006">
        <ele>2387.505</ele>
        <time>2012-09-15T13:17:50Z</time>
      </trkpt>
      <trkpt lat="44.53414" lon="6.81007">
        <ele>2382.523</ele>
        <time>2012-09-15T13:17:53Z</time>
      </trkpt>
      <trkpt lat="44.53433" lon="6.81013">
        <ele>2377.719</ele>
        <time>2012-09-15T13:17:58Z</time>
      </trkpt>
      <trkpt lat="44.53432" lon="6.81005">
        <ele>2376.138</ele>
        <time>2012-09-15T13:18:00Z</time>
      </trkpt>
      <trkpt lat="44.53426" lon="6.80984">
        <ele>2371.125</ele>
        <time>2012-09-15T13:18:04Z</time>
      </trkpt>
      <trkpt lat="44.53414" lon="6.80945">
        <ele>2362.992</ele>
        <time>2012-09-15T13:18:10Z</time>
      </trkpt>
      <trkpt lat="44.5341" lon="6.80934">
        <ele>2361.154</ele>
        <time>2012-09-15T13:18:12Z</time>
      </trkpt>
      <trkpt lat="44.53408" lon="6.80921">
        <ele>2359.295</ele>
        <time>2012-09-15T13:18:14Z</time>
      </trkpt>
      <trkpt lat="44.53401" lon="6.80896">
        <ele>2355.687</ele>
        <time>2012-09-15T13:18:18Z</time>
      </trkpt>
      <trkpt lat="44.53399" lon="6.80889">
        <ele>2352.292</ele>
        <time>2012-09-15T13:18:22Z</time>
      </trkpt>
      <trkpt lat="44.534" lon="6.80889">
        <ele>2351.352</ele>
        <time>2012-09-15T13:18:23Z</time>
      </trkpt>
      <trkpt lat="44.53398" lon="6.80877">
        <ele>2348.776</ele>
        <time>2012-09-15T13:18:27Z</time>
      </trkpt>
      <trkpt lat="44.53397" lon="6.80865">
        <ele>2347.643</ele>
        <time>2012-09-15T13:18:29Z</time>
      </trkpt>
      <trkpt lat="44.53387" lon="6.80827">
        <ele>2343.098</ele>
        <time>2012-09-15T13:18:35Z</time>
      </trkpt>
      <trkpt lat="44.53385" lon="6.80821">
        <ele>2342.127</ele>
        <time>2012-09-15T13:18:36Z</time>
      </trkpt>
      <trkpt lat="44.53379" lon="6.80795">
        <ele>2338.322</ele>
        <time>2012-09-15T13:18:41Z</time>
      </trkpt>
      <trkpt lat="44.53374" lon="6.80789">
        <ele>2337.361</ele>
        <time>2012-09-15T13:18:45Z</time>
      </trkpt>
      <trkpt lat="44.53373" lon="6.80792">
        <ele>2336.84</ele>
        <time>2012-09-15T13:20:02Z</time>
      </trkpt>
      <trkpt lat="44.53372" lon="6.80788">
        <ele>2336.447</ele>
        <time>2012-09-15T13:20:06Z</time>
      </trkpt>
      <trkpt lat="44.5338" lon="6.80782">
        <ele>2335.832</ele>
        <time>2012-09-15T13:20:10Z</time>
      </trkpt>
      <trkpt lat="44.53384" lon="6.8078">
        <ele>2335.15</ele>
        <time>2012-09-15T13:20:11Z</time>
      </trkpt>
      <trkpt lat="44.5341" lon="6.80773">
        <ele>2330.484</ele>
        <time>2012-09-15T13:20:17Z</time>
      </trkpt>
      <trkpt lat="44.53411" lon="6.80758">
        <ele>2327.2</ele>
        <time>2012-09-15T13:20:21Z</time>
      </trkpt>
      <trkpt lat="44.534" lon="6.80725">
        <ele>2321.643</ele>
        <time>2012-09-15T13:20:25Z</time>
      </trkpt>
      <trkpt lat="44.53397" lon="6.80718">
        <ele>2320.362</ele>
        <time>2012-09-15T13:20:26Z</time>
      </trkpt>
      <trkpt lat="44.53398" lon="6.80696">
        <ele>2315.187</ele>
        <time>2012-09-15T13:20:31Z</time>
      </trkpt>
      <trkpt lat="44.53404" lon="6.80694">
        <ele>2314.45</ele>
        <time>2012-09-15T13:20:32Z</time>
      </trkpt>
      <trkpt lat="44.53416" lon="6.80692">
        <ele>2313.123</ele>
        <time>2012-09-15T13:20:34Z</time>
      </trkpt>
      <trkpt lat="44.53426" lon="6.80692">
        <ele>2311.775</ele>
        <time>2012-09-15T13:20:36Z</time>
      </trkpt>
      <trkpt lat="44.53424" lon="6.8068">
        <ele>2309.887</ele>
        <time>2012-09-15T13:20:40Z</time>
      </trkpt>
      <trkpt lat="44.53423" lon="6.8067">
        <ele>2308.579</ele>
        <time>2012-09-15T13:20:43Z</time>
      </trkpt>
      <trkpt lat="44.53434" lon="6.80664">
        <ele>2306.336</ele>
        <time>2012-09-15T13:20:46Z</time>
      </trkpt>
      <trkpt lat="44.53435" lon="6.80648">
        <ele>2304.172</ele>
        <time>2012-09-15T13:20:49Z</time>
      </trkpt>
      <trkpt lat="44.53434" lon="6.80636">
        <ele>2302.491</ele>
        <time>2012-09-15T13:20:51Z</time>
      </trkpt>
      <trkpt lat="44.5345" lon="6.80627">
        <ele>2298.704</ele>
        <time>2012-09-15T13:20:56Z</time>
      </trkpt>
      <trkpt lat="44.53468" lon="6.80624">
        <ele>2295.316</ele>
        <time>2012-09-15T13:21:01Z</time>
      </trkpt>
      <trkpt lat="44.53479" lon="6.80626">
        <ele>2293.395</ele>
        <time>2012-09-15T13:21:04Z</time>
      </trkpt>
      <trkpt lat="44.53483" lon="6.80612">
        <ele>2290.001</ele>
        <time>2012-09-15T13:21:08Z</time>
      </trkpt>
      <trkpt lat="44.53479" lon="6.80591">
        <ele>2286.127</ele>
        <time>2012-09-15T13:21:12Z</time>
      </trkpt>
      <trkpt lat="44.53489" lon="6.8058">
        <ele>2283.159</ele>
        <time>2012-09-15T13:21:16Z</time>
      </trkpt>
      <trkpt lat="44.53501" lon="6.80574">
        <ele>2280.39</ele>
        <time>2012-09-15T13:21:19Z</time>
      </trkpt>
      <trkpt lat="44.53497" lon="6.80562">
        <ele>2278.265</ele>
        <time>2012-09-15T13:21:23Z</time>
      </trkpt>
      <trkpt lat="44.53482" lon="6.8055">
        <ele>2275.982</ele>
        <time>2012-09-15T13:21:26Z</time>
      </trkpt>
      <trkpt lat="44.53469" lon="6.80544">
        <ele>2274.203</ele>
        <time>2012-09-15T13:21:29Z</time>
      </trkpt>
      <trkpt lat="44.53458" lon="6.8055">
        <ele>2272.465</ele>
        <time>2012-09-15T13:21:32Z</time>
      </trkpt>
      <trkpt lat="44.53428" lon="6.80555">
        <ele>2267.154</ele>
        <time>2012-09-15T13:21:38Z</time>
      </trkpt>
      <trkpt lat="44.53417" lon="6.80553">
        <ele>2265.064</ele>
        <time>2012-09-15T13:21:40Z</time>
      </trkpt>
      <trkpt lat="44.53387" lon="6.80544">
        <ele>2260.317</ele>
        <time>2012-09-15T13:21:45Z</time>
      </trkpt>
      <trkpt lat="44.53377" lon="6.80542">
        <ele>2257.903</ele>
        <time>2012-09-15T13:21:49Z</time>
      </trkpt>
      <trkpt lat="44.53379" lon="6.80537">
        <ele>2256.089</ele>
        <time>2012-09-15T13:21:53Z</time>
      </trkpt>
      <trkpt lat="44.53398" lon="6.80528">
        <ele>2255.53</ele>
        <time>2012-09-15T13:21:57Z</time>
      </trkpt>
      <trkpt lat="44.53428" lon="6.80505">
        <ele>2251.629</ele>
        <time>2012-09-15T13:22:03Z</time>
      </trkpt>
      <trkpt lat="44.53427" lon="6.805">
        <ele>2249.987</ele>
        <time>2012-09-15T13:22:06Z</time>
      </trkpt>
      <trkpt lat="44.53423" lon="6.805">
        <ele>2249.185</ele>
        <time>2012-09-15T13:22:07Z</time>
      </trkpt>
      <trkpt lat="44.53413" lon="6.80499">
        <ele>2247.282</ele>
        <time>2012-09-15T13:22:09Z</time>
      </trkpt>
      <trkpt lat="44.53395" lon="6.80498">
        <ele>2243.66</ele>
        <time>2012-09-15T13:22:13Z</time>
      </trkpt>
      <trkpt lat="44.53385" lon="6.80497">
        <ele>2242.259</ele>
        <time>2012-09-15T13:22:15Z</time>
      </trkpt>
      <trkpt lat="44.53368" lon="6.80497">
        <ele>2239.616</ele>
        <time>2012-09-15T13:22:19Z</time>
      </trkpt>
      <trkpt lat="44.53334" lon="6.80506">
        <ele>2233.374</ele>
        <time>2012-09-15T13:22:28Z</time>
      </trkpt>
      <trkpt lat="44.53321" lon="6.80507">
        <ele>2231.301</ele>
        <time>2012-09-15T13:22:30Z</time>
      </trkpt>
      <trkpt lat="44.53304" lon="6.80511">
        <ele>2227.823</ele>
        <time>2012-09-15T13:22:34Z</time>
      </trkpt>
      <trkpt lat="44.53287" lon="6.80515">
        <ele>2224.26</ele>
        <time>2012-09-15T13:22:37Z</time>
      </trkpt>
      <trkpt lat="44.53278" lon="6.80516">
        <ele>2222.325</ele>
        <time>2012-09-15T13:22:39Z</time>
      </trkpt>
      <trkpt lat="44.53248" lon="6.80516">
        <ele>2217.851</ele>
        <time>2012-09-15T13:22:45Z</time>
      </trkpt>
      <trkpt lat="44.53237" lon="6.80526">
        <ele>2215.327</ele>
        <time>2012-09-15T13:22:48Z</time>
      </trkpt>
      <trkpt lat="44.5323" lon="6.80542">
        <ele>2212.517</ele>
        <time>2012-09-15T13:22:51Z</time>
      </trkpt>
      <trkpt lat="44.53228" lon="6.80547">
        <ele>2211.92</ele>
        <time>2012-09-15T13:22:52Z</time>
      </trkpt>
      <trkpt lat="44.53227" lon="6.80553">
        <ele>2209.946</ele>
        <time>2012-09-15T13:22:56Z</time>
      </trkpt>
      <trkpt lat="44.53226" lon="6.80555">
        <ele>2209.315</ele>
        <time>2012-09-15T13:22:57Z</time>
      </trkpt>
      <trkpt lat="44.53225" lon="6.80548">
        <ele>2208.3</ele>
        <time>2012-09-15T13:23:01Z</time>
      </trkpt>
      <trkpt lat="44.53224" lon="6.80528">
        <ele>2208.02</ele>
        <time>2012-09-15T13:23:04Z</time>
      </trkpt>
      <trkpt lat="44.53217" lon="6.80497">
        <ele>2205.603</ele>
        <time>2012-09-15T13:23:08Z</time>
      </trkpt>
      <trkpt lat="44.53216" lon="6.80489">
        <ele>2204.863</ele>
        <time>2012-09-15T13:23:09Z</time>
      </trkpt>
      <trkpt lat="44.53209" lon="6.80454">
        <ele>2201.342</ele>
        <time>2012-09-15T13:23:14Z</time>
      </trkpt>
      <trkpt lat="44.53212" lon="6.80418">
        <ele>2198.984</ele>
        <time>2012-09-15T13:23:18Z</time>
      </trkpt>
      <trkpt lat="44.53214" lon="6.8041">
        <ele>2198.002</ele>
        <time>2012-09-15T13:23:19Z</time>
      </trkpt>
      <trkpt lat="44.53224" lon="6.80384">
        <ele>2195.04</ele>
        <time>2012-09-15T13:23:23Z</time>
      </trkpt>
      <trkpt lat="44.53232" lon="6.80372">
        <ele>2193.128</ele>
        <time>2012-09-15T13:23:25Z</time>
      </trkpt>
      <trkpt lat="44.53252" lon="6.80341">
        <ele>2188.497</ele>
        <time>2012-09-15T13:23:30Z</time>
      </trkpt>
      <trkpt lat="44.53262" lon="6.80316">
        <ele>2184.938</ele>
        <time>2012-09-15T13:23:34Z</time>
      </trkpt>
      <trkpt lat="44.5326" lon="6.80306">
        <ele>2182.679</ele>
        <time>2012-09-15T13:23:37Z</time>
      </trkpt>
      <trkpt lat="44.53255" lon="6.803">
        <ele>2180.527</ele>
        <time>2012-09-15T13:23:39Z</time>
      </trkpt>
      <trkpt lat="44.53245" lon="6.80295">
        <ele>2176.957</ele>
        <time>2012-09-15T13:23:42Z</time>
      </trkpt>
      <trkpt lat="44.5323" lon="6.80306">
        <ele>2173.41</ele>
        <time>2012-09-15T13:23:46Z</time>
      </trkpt>
      <trkpt lat="44.53205" lon="6.80312">
        <ele>2166.55</ele>
        <time>2012-09-15T13:23:52Z</time>
      </trkpt>
      <trkpt lat="44.532" lon="6.80312">
        <ele>2165.63</ele>
        <time>2012-09-15T13:23:53Z</time>
      </trkpt>
      <trkpt lat="44.53181" lon="6.80304">
        <ele>2162.97</ele>
        <time>2012-09-15T13:23:57Z</time>
      </trkpt>
      <trkpt lat="44.53155" lon="6.80302">
        <ele>2159.361</ele>
        <time>2012-09-15T13:24:02Z</time>
      </trkpt>
      <trkpt lat="44.53141" lon="6.80308">
        <ele>2157.351</ele>
        <time>2012-09-15T13:24:05Z</time>
      </trkpt>
      <trkpt lat="44.53134" lon="6.80311">
        <ele>2155.846</ele>
        <time>2012-09-15T13:24:08Z</time>
      </trkpt>
      <trkpt lat="44.53135" lon="6.80311">
        <ele>2155.765</ele>
        <time>2012-09-15T13:24:15Z</time>
      </trkpt>
      <trkpt lat="44.53135" lon="6.80312">
        <ele>2155.327</ele>
        <time>2012-09-15T13:24:48Z</time>
      </trkpt>
      <trkpt lat="44.53134" lon="6.8031">
        <ele>2150.578</ele>
        <time>2012-09-15T13:25:58Z</time>
      </trkpt>
      <trkpt lat="44.5313" lon="6.80325">
        <ele>2147.732</ele>
        <time>2012-09-15T13:26:01Z</time>
      </trkpt>
      <trkpt lat="44.53131" lon="6.80349">
        <ele>2145.356</ele>
        <time>2012-09-15T13:26:04Z</time>
      </trkpt>
      <trkpt lat="44.53128" lon="6.80378">
        <ele>2144.126</ele>
        <time>2012-09-15T13:26:08Z</time>
      </trkpt>
      <trkpt lat="44.53126" lon="6.80384">
        <ele>2143.89</ele>
        <time>2012-09-15T13:26:11Z</time>
      </trkpt>
      <trkpt lat="44.53123" lon="6.80393">
        <ele>2142.69</ele>
        <time>2012-09-15T13:26:20Z</time>
      </trkpt>
      <trkpt lat="44.53114" lon="6.80419">
        <ele>2141.113</ele>
        <time>2012-09-15T13:26:25Z</time>
      </trkpt>
      <trkpt lat="44.53106" lon="6.80441">
        <ele>2138.931</ele>
        <time>2012-09-15T13:26:28Z</time>
      </trkpt>
      <trkpt lat="44.53096" lon="6.80474">
        <ele>2133.829</ele>
        <time>2012-09-15T13:26:33Z</time>
      </trkpt>
      <trkpt lat="44.53095" lon="6.80477">
        <ele>2133.158</ele>
        <time>2012-09-15T13:26:34Z</time>
      </trkpt>
      <trkpt lat="44.53091" lon="6.80471">
        <ele>2130.93</ele>
        <time>2012-09-15T13:26:38Z</time>
      </trkpt>
      <trkpt lat="44.53088" lon="6.80459">
        <ele>2130.155</ele>
        <time>2012-09-15T13:26:40Z</time>
      </trkpt>
      <trkpt lat="44.53085" lon="6.80446">
        <ele>2129.646</ele>
        <time>2012-09-15T13:26:42Z</time>
      </trkpt>
      <trkpt lat="44.53072" lon="6.80394">
        <ele>2125.451</ele>
        <time>2012-09-15T13:26:48Z</time>
      </trkpt>
      <trkpt lat="44.53065" lon="6.80345">
        <ele>2119.897</ele>
        <time>2012-09-15T13:26:53Z</time>
      </trkpt>
      <trkpt lat="44.53065" lon="6.80335">
        <ele>2118.918</ele>
        <time>2012-09-15T13:26:54Z</time>
      </trkpt>
      <trkpt lat="44.53055" lon="6.80286">
        <ele>2116.082</ele>
        <time>2012-09-15T13:26:59Z</time>
      </trkpt>
      <trkpt lat="44.53051" lon="6.80267">
        <ele>2114.733</ele>
        <time>2012-09-15T13:27:01Z</time>
      </trkpt>
      <trkpt lat="44.53033" lon="6.80227">
        <ele>2109.889</ele>
        <time>2012-09-15T13:27:06Z</time>
      </trkpt>
      <trkpt lat="44.53024" lon="6.80197">
        <ele>2107.024</ele>
        <time>2012-09-15T13:27:10Z</time>
      </trkpt>
      <trkpt lat="44.53018" lon="6.80168">
        <ele>2106.077</ele>
        <time>2012-09-15T13:27:14Z</time>
      </trkpt>
      <trkpt lat="44.53011" lon="6.80153">
        <ele>2104.253</ele>
        <time>2012-09-15T13:27:16Z</time>
      </trkpt>
      <trkpt lat="44.52996" lon="6.80125">
        <ele>2099.063</ele>
        <time>2012-09-15T13:27:20Z</time>
      </trkpt>
      <trkpt lat="44.52984" lon="6.80096">
        <ele>2094.595</ele>
        <time>2012-09-15T13:27:24Z</time>
      </trkpt>
      <trkpt lat="44.52977" lon="6.80076">
        <ele>2090.888</ele>
        <time>2012-09-15T13:27:28Z</time>
      </trkpt>
      <trkpt lat="44.52973" lon="6.8005">
        <ele>2088.481</ele>
        <time>2012-09-15T13:27:32Z</time>
      </trkpt>
      <trkpt lat="44.52969" lon="6.80035">
        <ele>2087.022</ele>
        <time>2012-09-15T13:27:34Z</time>
      </trkpt>
      <trkpt lat="44.5296" lon="6.80007">
        <ele>2083.257</ele>
        <time>2012-09-15T13:27:40Z</time>
      </trkpt>
      <trkpt lat="44.5296" lon="6.79997">
        <ele>2081.982</ele>
        <time>2012-09-15T13:27:44Z</time>
      </trkpt>
      <trkpt lat="44.5296" lon="6.79989">
        <ele>2079.561</ele>
        <time>2012-09-15T13:28:15Z</time>
      </trkpt>
      <trkpt lat="44.52957" lon="6.79975">
        <ele>2079.719</ele>
        <time>2012-09-15T13:28:19Z</time>
      </trkpt>
      <trkpt lat="44.52954" lon="6.79961">
        <ele>2078.998</ele>
        <time>2012-09-15T13:28:21Z</time>
      </trkpt>
      <trkpt lat="44.5294" lon="6.79918">
        <ele>2074.479</ele>
        <time>2012-09-15T13:28:27Z</time>
      </trkpt>
      <trkpt lat="44.52933" lon="6.79896">
        <ele>2073.151</ele>
        <time>2012-09-15T13:28:31Z</time>
      </trkpt>
      <trkpt lat="44.52933" lon="6.79876">
        <ele>2069.524</ele>
        <time>2012-09-15T13:28:35Z</time>
      </trkpt>
      <trkpt lat="44.52934" lon="6.79869">
        <ele>2068.814</ele>
        <time>2012-09-15T13:28:36Z</time>
      </trkpt>
      <trkpt lat="44.52936" lon="6.79853">
        <ele>2068.752</ele>
        <time>2012-09-15T13:28:38Z</time>
      </trkpt>
      <trkpt lat="44.52947" lon="6.79822">
        <ele>2066.77</ele>
        <time>2012-09-15T13:28:43Z</time>
      </trkpt>
      <trkpt lat="44.52948" lon="6.79804">
        <ele>2065.942</ele>
        <time>2012-09-15T13:28:46Z</time>
      </trkpt>
      <trkpt lat="44.52943" lon="6.79767">
        <ele>2062.244</ele>
        <time>2012-09-15T13:28:52Z</time>
      </trkpt>
      <trkpt lat="44.52936" lon="6.79747">
        <ele>2057.317</ele>
        <time>2012-09-15T13:28:56Z</time>
      </trkpt>
      <trkpt lat="44.52948" lon="6.79745">
        <ele>2050.654</ele>
        <time>2012-09-15T13:29:00Z</time>
      </trkpt>
      <trkpt lat="44.52952" lon="6.79746">
        <ele>2048.651</ele>
        <time>2012-09-15T13:29:01Z</time>
      </trkpt>
      <trkpt lat="44.52964" lon="6.79755">
        <ele>2045.792</ele>
        <time>2012-09-15T13:29:04Z</time>
      </trkpt>
      <trkpt lat="44.52983" lon="6.79784">
        <ele>2039.557</ele>
        <time>2012-09-15T13:29:09Z</time>
      </trkpt>
      <trkpt lat="44.52985" lon="6.79786">
        <ele>2038.736</ele>
        <time>2012-09-15T13:29:10Z</time>
      </trkpt>
      <trkpt lat="44.52988" lon="6.79778">
        <ele>2038.72</ele>
        <time>2012-09-15T13:29:14Z</time>
      </trkpt>
      <trkpt lat="44.5299" lon="6.79762">
        <ele>2037.291</ele>
        <time>2012-09-15T13:29:18Z</time>
      </trkpt>
      <trkpt lat="44.52987" lon="6.79733">
        <ele>2038.715</ele>
        <time>2012-09-15T13:29:23Z</time>
      </trkpt>
      <trkpt lat="44.52988" lon="6.79708">
        <ele>2039.487</ele>
        <time>2012-09-15T13:29:26Z</time>
      </trkpt>
      <trkpt lat="44.52982" lon="6.79675">
        <ele>2035.135</ele>
        <time>2012-09-15T13:29:31Z</time>
      </trkpt>
      <trkpt lat="44.52978" lon="6.79662">
        <ele>2031.396</ele>
        <time>2012-09-15T13:29:34Z</time>
      </trkpt>
      <trkpt lat="44.52993" lon="6.79641">
        <ele>2020.19</ele>
        <time>2012-09-15T13:29:39Z</time>
      </trkpt>
      <trkpt lat="44.53007" lon="6.79616">
        <ele>2013.167</ele>
        <time>2012-09-15T13:29:44Z</time>
      </trkpt>
      <trkpt lat="44.53014" lon="6.79617">
        <ele>2008.971</ele>
        <time>2012-09-15T13:29:46Z</time>
      </trkpt>
      <trkpt lat="44.53025" lon="6.79629">
        <ele>2003.637</ele>
        <time>2012-09-15T13:29:49Z</time>
      </trkpt>
      <trkpt lat="44.53038" lon="6.7965">
        <ele>1998.743</ele>
        <time>2012-09-15T13:29:54Z</time>
      </trkpt>
      <trkpt lat="44.53046" lon="6.79639">
        <ele>1999.01</ele>
        <time>2012-09-15T13:29:57Z</time>
      </trkpt>
      <trkpt lat="44.53048" lon="6.79633">
        <ele>1997.914</ele>
        <time>2012-09-15T13:29:58Z</time>
      </trkpt>
      <trkpt lat="44.5305" lon="6.7962">
        <ele>1997.446</ele>
        <time>2012-09-15T13:30:00Z</time>
      </trkpt>
      <trkpt lat="44.53049" lon="6.79625">
        <ele>1994.163</ele>
        <time>2012-09-15T13:30:04Z</time>
      </trkpt>
      <trkpt lat="44.5305" lon="6.79621">
        <ele>1994.954</ele>
        <time>2012-09-15T13:30:07Z</time>
      </trkpt>
      <trkpt lat="44.5305" lon="6.79598">
        <ele>1996.257</ele>
        <time>2012-09-15T13:30:11Z</time>
      </trkpt>
      <trkpt lat="44.53047" lon="6.79586">
        <ele>1994.854</ele>
        <time>2012-09-15T13:30:13Z</time>
      </trkpt>
      <trkpt lat="44.53046" lon="6.79574">
        <ele>1992.994</ele>
        <time>2012-09-15T13:30:15Z</time>
      </trkpt>
      <trkpt lat="44.53032" lon="6.79561">
        <ele>1992.313</ele>
        <time>2012-09-15T13:30:19Z</time>
      </trkpt>
      <trkpt lat="44.53028" lon="6.7956">
        <ele>1991.855</ele>
        <time>2012-09-15T13:30:20Z</time>
      </trkpt>
      <trkpt lat="44.53009" lon="6.79557">
        <ele>1988.591</ele>
        <time>2012-09-15T13:30:25Z</time>
      </trkpt>
      <trkpt lat="44.53009" lon="6.7955">
        <ele>1987.039</ele>
        <time>2012-09-15T13:30:28Z</time>
      </trkpt>
      <trkpt lat="44.53014" lon="6.79542">
        <ele>1984.611</ele>
        <time>2012-09-15T13:30:31Z</time>
      </trkpt>
      <trkpt lat="44.53024" lon="6.79525">
        <ele>1979.977</ele>
        <time>2012-09-15T13:30:35Z</time>
      </trkpt>
      <trkpt lat="44.53046" lon="6.79506">
        <ele>1974.646</ele>
        <time>2012-09-15T13:30:41Z</time>
      </trkpt>
      <trkpt lat="44.53059" lon="6.79496">
        <ele>1971.08</ele>
        <time>2012-09-15T13:30:45Z</time>
      </trkpt>
      <trkpt lat="44.5306" lon="6.79495">
        <ele>1970.056</ele>
        <time>2012-09-15T13:30:46Z</time>
      </trkpt>
      <trkpt lat="44.53044" lon="6.79504">
        <ele>1963.899</ele>
        <time>2012-09-15T13:30:50Z</time>
      </trkpt>
      <trkpt lat="44.53021" lon="6.79512">
        <ele>1961.544</ele>
        <time>2012-09-15T13:30:55Z</time>
      </trkpt>
      <trkpt lat="44.53015" lon="6.79512">
        <ele>1959.98</ele>
        <time>2012-09-15T13:30:58Z</time>
      </trkpt>
      <trkpt lat="44.53017" lon="6.79511">
        <ele>1958.05</ele>
        <time>2012-09-15T13:31:00Z</time>
      </trkpt>
      <trkpt lat="44.53033" lon="6.79498">
        <ele>1958.424</ele>
        <time>2012-09-15T13:31:04Z</time>
      </trkpt>
      <trkpt lat="44.53047" lon="6.79474">
        <ele>1956.464</ele>
        <time>2012-09-15T13:31:09Z</time>
      </trkpt>
      <trkpt lat="44.53049" lon="6.79469">
        <ele>1955.339</ele>
        <time>2012-09-15T13:31:10Z</time>
      </trkpt>
      <trkpt lat="44.5304" lon="6.79466">
        <ele>1953.458</ele>
        <time>2012-09-15T13:31:14Z</time>
      </trkpt>
      <trkpt lat="44.53032" lon="6.79468">
        <ele>1952.128</ele>
        <time>2012-09-15T13:31:17Z</time>
      </trkpt>
      <trkpt lat="44.5303" lon="6.79471">
        <ele>1948.746</ele>
        <time>2012-09-15T13:31:53Z</time>
      </trkpt>
      <trkpt lat="44.5303" lon="6.7947">
        <ele>1949.367</ele>
        <time>2012-09-15T13:32:00Z</time>
      </trkpt>
      <trkpt lat="44.53036" lon="6.79458">
        <ele>1950.175</ele>
        <time>2012-09-15T13:32:08Z</time>
      </trkpt>
      <trkpt lat="44.53038" lon="6.79455">
        <ele>1949.235</ele>
        <time>2012-09-15T13:32:09Z</time>
      </trkpt>
      <trkpt lat="44.53051" lon="6.79433">
        <ele>1946.359</ele>
        <time>2012-09-15T13:32:13Z</time>
      </trkpt>
      <trkpt lat="44.53062" lon="6.79414">
        <ele>1942.458</ele>
        <time>2012-09-15T13:32:17Z</time>
      </trkpt>
      <trkpt lat="44.53067" lon="6.79411">
        <ele>1940.089</ele>
        <time>2012-09-15T13:32:19Z</time>
      </trkpt>
      <trkpt lat="44.53075" lon="6.79407">
        <ele>1936.899</ele>
        <time>2012-09-15T13:32:22Z</time>
      </trkpt>
      <trkpt lat="44.53088" lon="6.79402">
        <ele>1929.114</ele>
        <time>2012-09-15T13:32:27Z</time>
      </trkpt>
      <trkpt lat="44.53099" lon="6.79404">
        <ele>1924.462</ele>
        <time>2012-09-15T13:32:30Z</time>
      </trkpt>
      <trkpt lat="44.53108" lon="6.79406">
        <ele>1921.607</ele>
        <time>2012-09-15T13:32:32Z</time>
      </trkpt>
      <trkpt lat="44.53127" lon="6.79406">
        <ele>1916.402</ele>
        <time>2012-09-15T13:32:36Z</time>
      </trkpt>
      <trkpt lat="44.53131" lon="6.79407">
        <ele>1915.123</ele>
        <time>2012-09-15T13:32:37Z</time>
      </trkpt>
      <trkpt lat="44.53145" lon="6.79412">
        <ele>1913.938</ele>
        <time>2012-09-15T13:32:42Z</time>
      </trkpt>
      <trkpt lat="44.53158" lon="6.79412">
        <ele>1915.458</ele>
        <time>2012-09-15T13:32:45Z</time>
      </trkpt>
      <trkpt lat="44.53176" lon="6.79415">
        <ele>1914.864</ele>
        <time>2012-09-15T13:32:49Z</time>
      </trkpt>
      <trkpt lat="44.53192" lon="6.79418">
        <ele>1913.546</ele>
        <time>2012-09-15T13:32:53Z</time>
      </trkpt>
      <trkpt lat="44.53212" lon="6.7944">
        <ele>1912.186</ele>
        <time>2012-09-15T13:32:58Z</time>
      </trkpt>
      <trkpt lat="44.53229" lon="6.7945">
        <ele>1911.799</ele>
        <time>2012-09-15T13:33:02Z</time>
      </trkpt>
      <trkpt lat="44.53248" lon="6.7945">
        <ele>1909.642</ele>
        <time>2012-09-15T13:33:07Z</time>
      </trkpt>
      <trkpt lat="44.53253" lon="6.79432">
        <ele>1905.845</ele>
        <time>2012-09-15T13:33:12Z</time>
      </trkpt>
      <trkpt lat="44.53256" lon="6.79427">
        <ele>1904.269</ele>
        <time>2012-09-15T13:33:14Z</time>
      </trkpt>
      <trkpt lat="44.53252" lon="6.79416">
        <ele>1900.982</ele>
        <time>2012-09-15T13:33:18Z</time>
      </trkpt>
      <trkpt lat="44.53256" lon="6.79412">
        <ele>1900.644</ele>
        <time>2012-09-15T13:33:20Z</time>
      </trkpt>
      <trkpt lat="44.53279" lon="6.79407">
        <ele>1896.537</ele>
        <time>2012-09-15T13:33:27Z</time>
      </trkpt>
      <trkpt lat="44.53284" lon="6.79409">
        <ele>1894.231</ele>
        <time>2012-09-15T13:33:28Z</time>
      </trkpt>
      <trkpt lat="44.53305" lon="6.79428">
        <ele>1890.923</ele>
        <time>2012-09-15T13:33:33Z</time>
      </trkpt>
      <trkpt lat="44.53315" lon="6.79419">
        <ele>1885.495</ele>
        <time>2012-09-15T13:33:38Z</time>
      </trkpt>
      <trkpt lat="44.53331" lon="6.79397">
        <ele>1877.124</ele>
        <time>2012-09-15T13:33:44Z</time>
      </trkpt>
      <trkpt lat="44.53338" lon="6.79393">
        <ele>1874.125</ele>
        <time>2012-09-15T13:33:46Z</time>
      </trkpt>
      <trkpt lat="44.53357" lon="6.79383">
        <ele>1865.993</ele>
        <time>2012-09-15T13:33:51Z</time>
      </trkpt>
      <trkpt lat="44.53359" lon="6.79378">
        <ele>1863.482</ele>
        <time>2012-09-15T13:33:52Z</time>
      </trkpt>
      <trkpt lat="44.53367" lon="6.79354">
        <ele>1862.718</ele>
        <time>2012-09-15T13:33:56Z</time>
      </trkpt>
      <trkpt lat="44.53359" lon="6.79333">
        <ele>1858.207</ele>
        <time>2012-09-15T13:34:00Z</time>
      </trkpt>
      <trkpt lat="44.53352" lon="6.79318">
        <ele>1857.981</ele>
        <time>2012-09-15T13:34:02Z</time>
      </trkpt>
      <trkpt lat="44.53336" lon="6.79286">
        <ele>1850.676</ele>
        <time>2012-09-15T13:34:07Z</time>
      </trkpt>
      <trkpt lat="44.53329" lon="6.79264">
        <ele>1843.182</ele>
        <time>2012-09-15T13:34:11Z</time>
      </trkpt>
      <trkpt lat="44.53335" lon="6.79257">
        <ele>1838.525</ele>
        <time>2012-09-15T13:34:14Z</time>
      </trkpt>
      <trkpt lat="44.53337" lon="6.79255">
        <ele>1836.393</ele>
        <time>2012-09-15T13:34:15Z</time>
      </trkpt>
      <trkpt lat="44.53354" lon="6.79252">
        <ele>1828.283</ele>
        <time>2012-09-15T13:34:20Z</time>
      </trkpt>
      <trkpt lat="44.53366" lon="6.79246">
        <ele>1824.072</ele>
        <time>2012-09-15T13:34:25Z</time>
      </trkpt>
      <trkpt lat="44.53365" lon="6.79244">
        <ele>1824.057</ele>
        <time>2012-09-15T13:34:26Z</time>
      </trkpt>
      <trkpt lat="44.53366" lon="6.79237">
        <ele>1826.179</ele>
        <time>2012-09-15T13:34:30Z</time>
      </trkpt>
      <trkpt lat="44.53378" lon="6.79242">
        <ele>1822.085</ele>
        <time>2012-09-15T13:34:35Z</time>
      </trkpt>
      <trkpt lat="44.53384" lon="6.79248">
        <ele>1818.368</ele>
        <time>2012-09-15T13:34:38Z</time>
      </trkpt>
      <trkpt lat="44.53387" lon="6.79239">
        <ele>1822.192</ele>
        <time>2012-09-15T13:34:43Z</time>
      </trkpt>
      <trkpt lat="44.53383" lon="6.79221">
        <ele>1823.513</ele>
        <time>2012-09-15T13:34:48Z</time>
      </trkpt>
      <trkpt lat="44.53374" lon="6.79189">
        <ele>1823.102</ele>
        <time>2012-09-15T13:34:53Z</time>
      </trkpt>
      <trkpt lat="44.53358" lon="6.79165">
        <ele>1817.065</ele>
        <time>2012-09-15T13:34:58Z</time>
      </trkpt>
      <trkpt lat="44.53352" lon="6.79151">
        <ele>1812.613</ele>
        <time>2012-09-15T13:35:02Z</time>
      </trkpt>
      <trkpt lat="44.53352" lon="6.79133">
        <ele>1802.463</ele>
        <time>2012-09-15T13:35:06Z</time>
      </trkpt>
      <trkpt lat="44.53359" lon="6.79112">
        <ele>1794.004</ele>
        <time>2012-09-15T13:35:10Z</time>
      </trkpt>
      <trkpt lat="44.53376" lon="6.79082">
        <ele>1780.958</ele>
        <time>2012-09-15T13:35:17Z</time>
      </trkpt>
      <trkpt lat="44.53389" lon="6.79072">
        <ele>1770.841</ele>
        <time>2012-09-15T13:35:22Z</time>
      </trkpt>
      <trkpt lat="44.53393" lon="6.7907">
        <ele>1768.642</ele>
        <time>2012-09-15T13:35:23Z</time>
      </trkpt>
      <trkpt lat="44.53415" lon="6.79057">
        <ele>1761.867</ele>
        <time>2012-09-15T13:35:28Z</time>
      </trkpt>
      <trkpt lat="44.53431" lon="6.79039">
        <ele>1757.547</ele>
        <time>2012-09-15T13:35:33Z</time>
      </trkpt>
      <trkpt lat="44.53431" lon="6.79036">
        <ele>1755.139</ele>
        <time>2012-09-15T13:35:34Z</time>
      </trkpt>
      <trkpt lat="44.53423" lon="6.79015">
        <ele>1751.377</ele>
        <time>2012-09-15T13:35:40Z</time>
      </trkpt>
      <trkpt lat="44.53423" lon="6.79016">
        <ele>1751.151</ele>
        <time>2012-09-15T13:35:46Z</time>
      </trkpt>
      <trkpt lat="44.53425" lon="6.79017">
        <ele>1750.592</ele>
        <time>2012-09-15T13:35:52Z</time>
      </trkpt>
      <trkpt lat="44.5343" lon="6.79016">
        <ele>1748.292</ele>
        <time>2012-09-15T13:35:55Z</time>
      </trkpt>
      <trkpt lat="44.5343" lon="6.79007">
        <ele>1747.339</ele>
        <time>2012-09-15T13:35:59Z</time>
      </trkpt>
      <trkpt lat="44.53421" lon="6.79">
        <ele>1745.88</ele>
        <time>2012-09-15T13:36:04Z</time>
      </trkpt>
      <trkpt lat="44.53414" lon="6.78995">
        <ele>1745.801</ele>
        <time>2012-09-15T13:36:07Z</time>
      </trkpt>
      <trkpt lat="44.53413" lon="6.78994">
        <ele>1746.303</ele>
        <time>2012-09-15T13:36:11Z</time>
      </trkpt>
      <trkpt lat="44.53406" lon="6.78988">
        <ele>1747.975</ele>
        <time>2012-09-15T13:36:15Z</time>
      </trkpt>
      <trkpt lat="44.53395" lon="6.78981">
        <ele>1747.203</ele>
        <time>2012-09-15T13:36:18Z</time>
      </trkpt>
      <trkpt lat="44.53381" lon="6.7897">
        <ele>1743.687</ele>
        <time>2012-09-15T13:36:23Z</time>
      </trkpt>
      <trkpt lat="44.53375" lon="6.78968">
        <ele>1742.215</ele>
        <time>2012-09-15T13:36:25Z</time>
      </trkpt>
      <trkpt lat="44.53374" lon="6.78957">
        <ele>1737.271</ele>
        <time>2012-09-15T13:36:29Z</time>
      </trkpt>
      <trkpt lat="44.53377" lon="6.78945">
        <ele>1733.649</ele>
        <time>2012-09-15T13:36:32Z</time>
      </trkpt>
      <trkpt lat="44.53377" lon="6.78937">
        <ele>1730.517</ele>
        <time>2012-09-15T13:36:34Z</time>
      </trkpt>
      <trkpt lat="44.53368" lon="6.78937">
        <ele>1723.169</ele>
        <time>2012-09-15T13:36:38Z</time>
      </trkpt>
      <trkpt lat="44.53364" lon="6.78932">
        <ele>1719.927</ele>
        <time>2012-09-15T13:36:41Z</time>
      </trkpt>
      <trkpt lat="44.5336" lon="6.78932">
        <ele>1717.048</ele>
        <time>2012-09-15T13:36:43Z</time>
      </trkpt>
      <trkpt lat="44.53346" lon="6.78925">
        <ele>1710.598</ele>
        <time>2012-09-15T13:36:49Z</time>
      </trkpt>
      <trkpt lat="44.53333" lon="6.78907">
        <ele>1707.828</ele>
        <time>2012-09-15T13:36:54Z</time>
      </trkpt>
      <trkpt lat="44.53322" lon="6.78898">
        <ele>1703.426</ele>
        <time>2012-09-15T13:36:57Z</time>
      </trkpt>
      <trkpt lat="44.53296" lon="6.7888">
        <ele>1694.353</ele>
        <time>2012-09-15T13:37:03Z</time>
      </trkpt>
      <trkpt lat="44.53283" lon="6.78864">
        <ele>1687.081</ele>
        <time>2012-09-15T13:37:08Z</time>
      </trkpt>
      <trkpt lat="44.53279" lon="6.78846">
        <ele>1684.409</ele>
        <time>2012-09-15T13:37:12Z</time>
      </trkpt>
      <trkpt lat="44.53278" lon="6.78841">
        <ele>1684.513</ele>
        <time>2012-09-15T13:37:13Z</time>
      </trkpt>
      <trkpt lat="44.53277" lon="6.78822">
        <ele>1687.57</ele>
        <time>2012-09-15T13:37:18Z</time>
      </trkpt>
      <trkpt lat="44.53289" lon="6.78829">
        <ele>1714.602</ele>
        <time>2012-09-15T13:37:54Z</time>
      </trkpt>
      <trkpt lat="44.53291" lon="6.78824">
        <ele>1708.799</ele>
        <time>2012-09-15T13:37:59Z</time>
      </trkpt>
      <trkpt lat="44.53288" lon="6.78816">
        <ele>1706.329</ele>
        <time>2012-09-15T13:38:01Z</time>
      </trkpt>
      <trkpt lat="44.53278" lon="6.78791">
        <ele>1692.053</ele>
        <time>2012-09-15T13:38:06Z</time>
      </trkpt>
      <trkpt lat="44.53285" lon="6.78774">
        <ele>1686.121</ele>
        <time>2012-09-15T13:38:11Z</time>
      </trkpt>
      <trkpt lat="44.53288" lon="6.78758">
        <ele>1685.311</ele>
        <time>2012-09-15T13:38:15Z</time>
      </trkpt>
      <trkpt lat="44.53295" lon="6.7875">
        <ele>1677.139</ele>
        <time>2012-09-15T13:38:19Z</time>
      </trkpt>
      <trkpt lat="44.53299" lon="6.78736">
        <ele>1664.287</ele>
        <time>2012-09-15T13:38:24Z</time>
      </trkpt>
      <trkpt lat="44.53298" lon="6.78733">
        <ele>1660.551</ele>
        <time>2012-09-15T13:38:26Z</time>
      </trkpt>
      <trkpt lat="44.53296" lon="6.78726">
        <ele>1655.682</ele>
        <time>2012-09-15T13:38:30Z</time>
      </trkpt>
      <trkpt lat="44.53296" lon="6.78724">
        <ele>1651.274</ele>
        <time>2012-09-15T13:38:34Z</time>
      </trkpt>
      <trkpt lat="44.53299" lon="6.78722">
        <ele>1650.443</ele>
        <time>2012-09-15T13:38:39Z</time>
      </trkpt>
      <trkpt lat="44.53298" lon="6.7872">
        <ele>1650.106</ele>
        <time>2012-09-15T13:38:40Z</time>
      </trkpt>
      <trkpt lat="44.53295" lon="6.78711">
        <ele>1648.569</ele>
        <time>2012-09-15T13:38:44Z</time>
      </trkpt>
      <trkpt lat="44.53296" lon="6.78704">
        <ele>1647.517</ele>
        <time>2012-09-15T13:38:46Z</time>
      </trkpt>
      <trkpt lat="44.53294" lon="6.78687">
        <ele>1646.33</ele>
        <time>2012-09-15T13:38:51Z</time>
      </trkpt>
      <trkpt lat="44.5329" lon="6.7867">
        <ele>1640.43</ele>
        <time>2012-09-15T13:38:56Z</time>
      </trkpt>
      <trkpt lat="44.53281" lon="6.78642">
        <ele>1633.319</ele>
        <time>2012-09-15T13:39:02Z</time>
      </trkpt>
      <trkpt lat="44.53269" lon="6.78633">
        <ele>1626.919</ele>
        <time>2012-09-15T13:39:07Z</time>
      </trkpt>
      <trkpt lat="44.53237" lon="6.78607">
        <ele>1618.775</ele>
        <time>2012-09-15T13:39:14Z</time>
      </trkpt>
      <trkpt lat="44.53232" lon="6.78603">
        <ele>1618.185</ele>
        <time>2012-09-15T13:39:15Z</time>
      </trkpt>
      <trkpt lat="44.53222" lon="6.78593">
        <ele>1614.253</ele>
        <time>2012-09-15T13:39:17Z</time>
      </trkpt>
      <trkpt lat="44.53202" lon="6.78566">
        <ele>1608.365</ele>
        <time>2012-09-15T13:39:23Z</time>
      </trkpt>
      <trkpt lat="44.53199" lon="6.78558">
        <ele>1606.021</ele>
        <time>2012-09-15T13:39:27Z</time>
      </trkpt>
      <trkpt lat="44.53192" lon="6.78541">
        <ele>1602.09</ele>
        <time>2012-09-15T13:39:32Z</time>
      </trkpt>
      <trkpt lat="44.53179" lon="6.78525">
        <ele>1599.276</ele>
        <time>2012-09-15T13:39:36Z</time>
      </trkpt>
      <trkpt lat="44.53163" lon="6.78506">
        <ele>1595.625</ele>
        <time>2012-09-15T13:39:42Z</time>
      </trkpt>
      <trkpt lat="44.53148" lon="6.78485">
        <ele>1593.839</ele>
        <time>2012-09-15T13:39:48Z</time>
      </trkpt>
      <trkpt lat="44.53149" lon="6.78476">
        <ele>1591.287</ele>
        <time>2012-09-15T13:39:51Z</time>
      </trkpt>
      <trkpt lat="44.53158" lon="6.78467">
        <ele>1588.576</ele>
        <time>2012-09-15T13:39:55Z</time>
      </trkpt>
      <trkpt lat="44.53157" lon="6.78443">
        <ele>1587.338</ele>
        <time>2012-09-15T13:40:00Z</time>
      </trkpt>
      <trkpt lat="44.53153" lon="6.78433">
        <ele>1584.004</ele>
        <time>2012-09-15T13:40:02Z</time>
      </trkpt>
      <trkpt lat="44.53145" lon="6.7842">
        <ele>1581.311</ele>
        <time>2012-09-15T13:40:04Z</time>
      </trkpt>
      <trkpt lat="44.53127" lon="6.78394">
        <ele>1574.884</ele>
        <time>2012-09-15T13:40:08Z</time>
      </trkpt>
      <trkpt lat="44.53119" lon="6.78379">
        <ele>1572.272</ele>
        <time>2012-09-15T13:40:10Z</time>
      </trkpt>
      <trkpt lat="44.53095" lon="6.78348">
        <ele>1565.931</ele>
        <time>2012-09-15T13:40:15Z</time>
      </trkpt>
      <trkpt lat="44.53082" lon="6.78327">
        <ele>1563.383</ele>
        <time>2012-09-15T13:40:18Z</time>
      </trkpt>
      <trkpt lat="44.53074" lon="6.78312">
        <ele>1561.423</ele>
        <time>2012-09-15T13:40:20Z</time>
      </trkpt>
      <trkpt lat="44.53061" lon="6.78283">
        <ele>1560.921</ele>
        <time>2012-09-15T13:40:24Z</time>
      </trkpt>
      <trkpt lat="44.53054" lon="6.78265">
        <ele>1559.513</ele>
        <time>2012-09-15T13:40:27Z</time>
      </trkpt>
      <trkpt lat="44.5304" lon="6.78237">
        <ele>1555.33</ele>
        <time>2012-09-15T13:40:31Z</time>
      </trkpt>
      <trkpt lat="44.53031" lon="6.78213">
        <ele>1551.923</ele>
        <time>2012-09-15T13:40:36Z</time>
      </trkpt>
      <trkpt lat="44.53033" lon="6.78215">
        <ele>1550.797</ele>
        <time>2012-09-15T13:40:40Z</time>
      </trkpt>
      <trkpt lat="44.53034" lon="6.78217">
        <ele>1550.948</ele>
        <time>2012-09-15T13:40:42Z</time>
      </trkpt>
      <trkpt lat="44.53041" lon="6.78224">
        <ele>1550.448</ele>
        <time>2012-09-15T13:40:45Z</time>
      </trkpt>
      <trkpt lat="44.53053" lon="6.78233">
        <ele>1548.516</ele>
        <time>2012-09-15T13:40:48Z</time>
      </trkpt>
      <trkpt lat="44.53071" lon="6.78245">
        <ele>1546.136</ele>
        <time>2012-09-15T13:40:52Z</time>
      </trkpt>
      <trkpt lat="44.53092" lon="6.78263">
        <ele>1545.057</ele>
        <time>2012-09-15T13:40:57Z</time>
      </trkpt>
      <trkpt lat="44.531" lon="6.78249">
        <ele>1543.703</ele>
        <time>2012-09-15T13:41:01Z</time>
      </trkpt>
      <trkpt lat="44.53096" lon="6.78242">
        <ele>1541.025</ele>
        <time>2012-09-15T13:41:03Z</time>
      </trkpt>
      <trkpt lat="44.53088" lon="6.78212">
        <ele>1534.945</ele>
        <time>2012-09-15T13:41:08Z</time>
      </trkpt>
      <trkpt lat="44.53086" lon="6.78201">
        <ele>1533.256</ele>
        <time>2012-09-15T13:41:10Z</time>
      </trkpt>
      <trkpt lat="44.53078" lon="6.78182">
        <ele>1528.31</ele>
        <time>2012-09-15T13:41:13Z</time>
      </trkpt>
      <trkpt lat="44.53061" lon="6.78157">
        <ele>1521.147</ele>
        <time>2012-09-15T13:41:18Z</time>
      </trkpt>
      <trkpt lat="44.53051" lon="6.78139">
        <ele>1518.449</ele>
        <time>2012-09-15T13:41:21Z</time>
      </trkpt>
      <trkpt lat="44.53048" lon="6.78123">
        <ele>1516.149</ele>
        <time>2012-09-15T13:41:23Z</time>
      </trkpt>
      <trkpt lat="44.53046" lon="6.78107">
        <ele>1516.385</ele>
        <time>2012-09-15T13:41:25Z</time>
      </trkpt>
      <trkpt lat="44.53044" lon="6.78088">
        <ele>1515.207</ele>
        <time>2012-09-15T13:41:27Z</time>
      </trkpt>
      <trkpt lat="44.53039" lon="6.7805">
        <ele>1513.947</ele>
        <time>2012-09-15T13:41:32Z</time>
      </trkpt>
      <trkpt lat="44.53035" lon="6.7802">
        <ele>1512.634</ele>
        <time>2012-09-15T13:41:37Z</time>
      </trkpt>
      <trkpt lat="44.53044" lon="6.78004">
        <ele>1512.908</ele>
        <time>2012-09-15T13:41:41Z</time>
      </trkpt>
      <trkpt lat="44.53053" lon="6.77989">
        <ele>1515.035</ele>
        <time>2012-09-15T13:41:45Z</time>
      </trkpt>
      <trkpt lat="44.53073" lon="6.77967">
        <ele>1514.136</ele>
        <time>2012-09-15T13:41:50Z</time>
      </trkpt>
      <trkpt lat="44.53088" lon="6.77956">
        <ele>1513.208</ele>
        <time>2012-09-15T13:41:53Z</time>
      </trkpt>
      <trkpt lat="44.53105" lon="6.77948">
        <ele>1511.818</ele>
        <time>2012-09-15T13:41:56Z</time>
      </trkpt>
      <trkpt lat="44.53133" lon="6.77939">
        <ele>1510.905</ele>
        <time>2012-09-15T13:42:01Z</time>
      </trkpt>
      <trkpt lat="44.5314" lon="6.7793">
        <ele>1513.211</ele>
        <time>2012-09-15T13:42:03Z</time>
      </trkpt>
      <trkpt lat="44.53149" lon="6.77913">
        <ele>1514.814</ele>
        <time>2012-09-15T13:42:09Z</time>
      </trkpt>
      <trkpt lat="44.53154" lon="6.77897">
        <ele>1518.649</ele>
        <time>2012-09-15T13:42:18Z</time>
      </trkpt>
      <trkpt lat="44.53157" lon="6.77887">
        <ele>1524.962</ele>
        <time>2012-09-15T13:42:24Z</time>
      </trkpt>
      <trkpt lat="44.53157" lon="6.77874">
        <ele>1527.285</ele>
        <time>2012-09-15T13:42:31Z</time>
      </trkpt>
      <trkpt lat="44.53157" lon="6.7787">
        <ele>1527.404</ele>
        <time>2012-09-15T13:42:34Z</time>
      </trkpt>
      <trkpt lat="44.53157" lon="6.77861">
        <ele>1528.41</ele>
        <time>2012-09-15T13:42:40Z</time>
      </trkpt>
      <trkpt lat="44.53157" lon="6.77859">
        <ele>1528.951</ele>
        <time>2012-09-15T13:42:41Z</time>
      </trkpt>
      <trkpt lat="44.53157" lon="6.77853">
        <ele>1530.506</ele>
        <time>2012-09-15T13:42:45Z</time>
      </trkpt>
      <trkpt lat="44.53154" lon="6.77842">
        <ele>1530.812</ele>
        <time>2012-09-15T13:42:51Z</time>
      </trkpt>
      <trkpt lat="44.53152" lon="6.7783">
        <ele>1532.344</ele>
        <time>2012-09-15T13:42:58Z</time>
      </trkpt>
      <trkpt lat="44.53148" lon="6.77816">
        <ele>1531.831</ele>
        <time>2012-09-15T13:43:06Z</time>
      </trkpt>
      <trkpt lat="44.53143" lon="6.77802">
        <ele>1530.022</ele>
        <time>2012-09-15T13:43:14Z</time>
      </trkpt>
      <trkpt lat="44.53136" lon="6.77789">
        <ele>1531.794</ele>
        <time>2012-09-15T13:43:22Z</time>
      </trkpt>
      <trkpt lat="44.53135" lon="6.77784">
        <ele>1532.594</ele>
        <time>2012-09-15T13:43:25Z</time>
      </trkpt>
      <trkpt lat="44.53128" lon="6.77771">
        <ele>1532.284</ele>
        <time>2012-09-15T13:43:34Z</time>
      </trkpt>
      <trkpt lat="44.53123" lon="6.77762">
        <ele>1532.635</ele>
        <time>2012-09-15T13:43:40Z</time>
      </trkpt>
      <trkpt lat="44.53117" lon="6.77754">
        <ele>1534.507</ele>
        <time>2012-09-15T13:43:46Z</time>
      </trkpt>
      <trkpt lat="44.53116" lon="6.7774">
        <ele>1536.122</ele>
        <time>2012-09-15T13:43:53Z</time>
      </trkpt>
      <trkpt lat="44.53116" lon="6.77733">
        <ele>1537.458</ele>
        <time>2012-09-15T13:43:58Z</time>
      </trkpt>
      <trkpt lat="44.53115" lon="6.77734">
        <ele>1537.512</ele>
        <time>2012-09-15T13:45:11Z</time>
      </trkpt>
      <trkpt lat="44.53116" lon="6.77733">
        <ele>1543.969</ele>
        <time>2012-09-15T13:48:26Z</time>
      </trkpt>
      <trkpt lat="44.53111" lon="6.77723">
        <ele>1542.195</ele>
        <time>2012-09-15T13:48:33Z</time>
      </trkpt>
      <trkpt lat="44.531" lon="6.77705">
        <ele>1542.612</ele>
        <time>2012-09-15T13:48:42Z</time>
      </trkpt>
      <trkpt lat="44.53086" lon="6.77689">
        <ele>1552.79</ele>
        <time>2012-09-15T13:48:51Z</time>
      </trkpt>
      <trkpt lat="44.53077" lon="6.77674">
        <ele>1551.402</ele>
        <time>2012-09-15T13:48:56Z</time>
      </trkpt>
      <trkpt lat="44.53064" lon="6.77659">
        <ele>1551.092</ele>
        <time>2012-09-15T13:49:03Z</time>
      </trkpt>
      <trkpt lat="44.53053" lon="6.77639">
        <ele>1545.869</ele>
        <time>2012-09-15T13:49:10Z</time>
      </trkpt>
      <trkpt lat="44.53048" lon="6.77617">
        <ele>1545.641</ele>
        <time>2012-09-15T13:49:16Z</time>
      </trkpt>
      <trkpt lat="44.5305" lon="6.77604">
        <ele>1543.973</ele>
        <time>2012-09-15T13:49:19Z</time>
      </trkpt>
      <trkpt lat="44.53065" lon="6.7758">
        <ele>1540.194</ele>
        <time>2012-09-15T13:49:24Z</time>
      </trkpt>
      <trkpt lat="44.53068" lon="6.77557">
        <ele>1537.658</ele>
        <time>2012-09-15T13:49:30Z</time>
      </trkpt>
      <trkpt lat="44.53064" lon="6.77547">
        <ele>1536.409</ele>
        <time>2012-09-15T13:49:33Z</time>
      </trkpt>
      <trkpt lat="44.53061" lon="6.77538">
        <ele>1535.44</ele>
        <time>2012-09-15T13:49:38Z</time>
      </trkpt>
      <trkpt lat="44.53062" lon="6.77538">
        <ele>1548.368</ele>
        <time>2012-09-15T13:50:03Z</time>
      </trkpt>
      <trkpt lat="44.53062" lon="6.77536">
        <ele>1549.437</ele>
        <time>2012-09-15T13:50:08Z</time>
      </trkpt>
      <trkpt lat="44.53062" lon="6.77535">
        <ele>1549.555</ele>
        <time>2012-09-15T13:50:15Z</time>
      </trkpt>
      <trkpt lat="44.53062" lon="6.77533">
        <ele>1546.768</ele>
        <time>2012-09-15T13:50:28Z</time>
      </trkpt>
    </trkseg>
  </trk>
</gpx>